     2              OBSERVATION DATA    GPS                 RINEX VERSION / TYPE
teqc 2000Feb29 Duncan Agnew 20000517 23:39:40UTC            PGM / RUN BY / DATE
                                                            COMMENT
L2: 1 -> 1; 5 -> 5; 60 -> 9                                 COMMENT
L2: 1 -> 1; 5 -> 5; 60 -> 9                                 COMMENT
L2: 1 -> 1; 5 -> 5; 60 -> 9                                 COMMENT
L2: 1 -> 1; 5 -> 5; 60 -> 9                                 COMMENT
L2: 1 -> 1; 5 -> 5; 60 -> 9                                 COMMENT
Original Marker Name: CAJO                                  COMMENT
Campaign Name: CSRC Post Hector                             COMMENT
4-Character Station Name: CAJO                              COMMENT
6-Character Antenna Code: TRMCMP                            COMMENT
Vertical Measurement Point: BPA                             COMMENT
Vertical Offset to Rinex Ref. Point: 0.0000                 COMMENT
Radial Measurement Point: RRP                               COMMENT
Radial Offset to Rinex Ref. Point: 0.0000                   COMMENT
Antenna Height from Field Measurement: 1.8940 m             COMMENT
Additional Antenna Identification Info.:                    COMMENT
Model 22020.00+GP                                           COMMENT
Original XYZ: -2430674.9859 -4679029.5440 3579058.6140      COMMENT
New XYZ position is based on association with SCEC monument COMMENT
E1F2A7V9+0011. Position of that monument is believed to be  COMMENT
valid to within 1 m horizontally; vertical accuracy         COMMENT
should be no worse than 3-times this value.                 COMMENT
                                                            COMMENT
Revised Rinex header created by UCSD GPS archive for        COMMENT
GSAC on 16-Jun-2000 (2000:168) 03:04:59 GMT                 COMMENT
For assistance contact dagnew@ucsd.edu                      COMMENT
or anderson@python.ucsd.edu                                 COMMENT
                                                            COMMENT
CAJON 1934                                                  MARKER NAME
CAJO                                                        MARKER NUMBER
-Unknown- CALIF DEPT TRANSPORTATION                         OBSERVER / AGENCY
1538 TRIMBLE 4000 SSI NP 7.29; SP 3.07                      REC # / TYPE / VERS
64100 TR GEOD L1/L2 GP                                      ANT # / TYPE
 -2430670.9024 -4679025.4712  3579049.6426                  APPROX POSITION XYZ
        1.8940        0.0000        0.0000                  ANTENNA: DELTA H/E/N
     1     1     0                                          WAVELENGTH FACT L1/2
     7    C1    L1    L2    P1    P2    S1    S2            # / TYPES OF OBSERV
     0                                                      INTERVAL
  2000     5     9    18    59   45.000000                  TIME OF FIRST OBS
  2000     5    10     0    30   15.000000                  TIME OF LAST OBS
                                                            END OF HEADER
 00  5  9 18 59 45.0000000  0  7G 4G 5G 6G10G17G24G30
  24440979.5634     914171.62255    533583.48355                  24440995.6804
         9.7504          9.2504
  20592034.7274     372903.19258    243020.83957                  20592042.8984
        32.0004         30.2504
  23144979.9144    -305295.95156   -196514.83156                  23144990.8524
        17.7504         17.2504
  21472875.6024    -160204.18257   -103778.70857                  21472886.0944
        27.0004         28.5004
  24844342.2814    -482593.81155   -279583.74755                  24844360.9884
         8.0004          9.0004
  21551331.0234     656613.07458    434371.52557                  21551340.6604
        30.2504         28.5004
  21212910.1024    -175928.80558   -109732.39557                  21212918.1094
        32.5004         30.5004
 00  5  9 19  0  0.0000000  0  7G 4G 5G 6G10G17G24G30
  24452818.5784     976389.68845    582065.00845                  24452834.1914
         9.2504          9.2504
  20597123.5394     399644.95848    263858.55447                  20597131.8634
        32.0004         30.2504
  23141159.9844    -325369.79446   -212156.74646                  23141170.6764
        18.2504         17.5004
  21471111.0164    -169476.46247   -111003.82647                  21471121.5664
        27.0004         28.5004
  24838287.6724    -514409.32145   -304374.92945                  24838304.4694
         7.7504          8.5004
  21559949.1254     701901.66848    469661.30147                  21559958.7384
        30.7504         28.5004
  21210877.8444    -186607.10048   -118053.13447                  21210885.9104
        32.2504         30.5004
 00  5  9 19  0 15.0000000  0  7G 4G 5G 6G10G17G24G30
  24464664.0704    1038635.43345    630568.14945                  24464680.1764
         9.2504          9.5004
  20602244.2734     426553.96048    284826.58547                  20602252.4344
        31.7504         30.0004
  23137347.9224    -345401.23446   -227765.59946                  23137358.9654
        17.0004         17.5004
  21469379.0234    -178578.91947   -118096.62847                  21469389.3524
        27.2504         28.5004
  24832246.9694    -546151.82945   -329109.25245                  24832264.1294
         7.7504          8.5004
  21568583.9694     747277.57248    505019.11147                  21568593.6884
        30.5004         28.5004
  21208875.5314    -197129.79448   -126252.62647                  21208883.5744
        32.2504         30.5004
 00  5  9 19  0 30.0000000  0  7G 4G 5G 6G10G17G24G30
  24476513.8984    1100908.02745    679092.15645                  24476529.3484
         9.0004          9.2504
  20607396.6414     453629.46048    305924.34947                  20607404.7774
        31.7504         30.0004
  23133544.1644    -365390.89646   -243341.92546                  23133554.8444
        17.5004         17.7504
  21467679.0314    -187512.02347   -125057.45947                  21467689.4414
        27.0004         28.5004
  24826221.0704    -577821.81345   -353787.02045                  24826238.5474
         8.0004          8.7504
  21577235.2424     792739.74348    540444.14747                  21577244.9614
        30.5004         28.5004
  21206902.6254    -207497.16248   -134331.08747                  21206910.6564
        32.0004         30.5004
 00  5  9 19  0 45.0000000  0  7G 4G 5G 6G10G17G24G30
  24488368.8364    1163204.58145    727634.84945                  24488384.9414
         9.5004          9.2504
  20612580.0634     480868.77448    327149.76547                  20612588.2584
        32.0004         30.0004
  23129747.4844    -385341.31946   -258887.67146                  23129758.0704
        17.2504         17.2504
  21466011.0164    -196278.10147   -131888.14347                  21466021.4964
        27.2504         28.2504
  24820207.2344    -609421.86745   -378410.34345                  24820225.1684
         7.7504          9.0004
  21585902.2584     838285.25848    575934.12047                  21585912.0594
        30.5004         28.5004
  21204958.9144    -217711.50848   -142290.30947                  21204967.1214
        31.7504         30.7504
 00  5  9 19  1  0.0000000  0  7G 4G 5G 6G10G17G24G30
  24500227.3914    1225522.91245    776194.53045                  24500244.6214
        10.0004         10.0004
  20617794.3364     508270.04148    348501.37547                  20617802.5084
        31.7504         30.0004
  23125958.3674    -405254.31546   -274404.23946                  23125969.3874
        17.7504         17.7504
  21464374.2034    -204878.70447   -138589.87947                  21464384.7774
        27.2504         28.5004
  24814206.5394    -640953.76745   -402980.50945                  24814225.1994
         7.7504          8.7504
  21594584.6954     883912.00348    611487.39147                  21594594.6024
        30.2504         28.2504
  21203043.9924    -227774.45748   -150131.56047                  21203052.1884
        31.5004         30.5004
 00  5  9 19  1 15.0000000  0  7G 4G 5G 6G10G17G24G30
  24512089.6564    1287858.24945    824767.43345                  24512105.6094
        10.2504         10.0004
  20623038.6174     535828.48848    369975.46347                  20623046.8954
        31.5004         30.2504
  23122175.1804    -425134.50746   -289895.25946                  23122185.8594
        18.2504         18.0004
  21462768.1484    -213318.34647   -145166.20147                  21462778.6884
        27.2504         28.5004
  24808218.3674    -672422.03545   -427501.14845                  24808236.6884
         8.0004          8.5004
  21603281.6564     929615.03748    647100.11047                  21603291.3634
        30.2504         28.2504
  21201157.0554    -237690.45448   -157858.30147                  21201165.3324
        32.0004         30.5004
 00  5  9 19  1 30.0000000  0  7G 4G 5G 6G10G17G24G30
  24523955.6644    1350212.36045    873355.01945                  24523972.5084
        10.5004         10.0004
  20628313.1884     563546.11048    391573.58847                  20628321.3834
        31.7504         30.0004
  23118398.8674    -444979.90446   -305359.15846                  23118409.2424
        18.7504         18.0004
  21461193.0554    -221595.02447   -151615.53247                  21461203.4654
        27.2504         28.5004
  24802243.0394    -703824.66745   -451970.60045                  24802260.9734
         8.2504          8.7504
  21611993.6174     975396.05848    682773.59547                  21612003.4184
        29.7504         28.0004
  21199298.3674    -247457.33248   -165468.84447                  21199306.6564
        32.0004         30.7504
 00  5  9 19  1 45.0000000  0  7G 4G 5G 6G10G17G24G30
  24535823.8834    1412581.50445    921954.29045                  24535840.0474
        10.5004          9.2504
  20633617.1644     591419.12148    413292.79147                  20633625.1954
        31.7504         30.0004
  23114628.0164    -464794.13846   -320798.78346                  23114638.7774
        18.2504         18.0004
  21459648.5004    -229712.02747   -157940.44547                  21459658.8634
        27.2504         28.5004
  24796278.6414    -735165.17145   -476391.65645                  24796296.8914
         8.2504          8.7504
  21620719.5944    1021251.12448    718504.77947                  21620729.3484
        30.0004         28.0004
  21197467.5784    -257078.55848   -172965.89347                  21197475.9144
        32.0004         31.0004
 00  5  9 19  2  0.0000000  0  7G 4G 5G 6G10G17G24G30
  24547694.8674    1474963.79745    970563.82745                  24547711.0784
        10.0004          9.2504
  20638950.4454     619445.95548    435131.85547                  20638958.5824
        31.7504         30.2504
  23110863.3754    -484578.57946   -336215.19246                  23110873.9614
        18.2504         18.2504
  21458134.0784    -237670.31947   -164141.68647                  21458144.3714
        27.5004         28.5004
  24790326.6724    -766444.87145   -500765.32145                  24790344.4774
         8.5004          8.7504
  21629459.2584    1067178.55748    754292.34947                  21629469.0704
        29.5004         27.5004
  21195664.3524    -266555.20648   -180350.28747                  21195672.6054
        32.2504         31.0004
 00  5  9 19  2 15.0000000  0  7G 4G 5G 6G10G17G24G30
  24559568.5634    1537358.18145   1019182.76145                  24559584.7154
        10.7504          8.5004
  20644312.8444     647625.57948    457089.97747                  20644321.0044
        31.7504         30.2504
  23107103.8054    -504334.23946   -351609.16046                  23107114.3204
        18.7504         18.5004
  21456649.7194    -245470.88848   -170220.02447                  21456659.8834
        28.0004         28.5004
  24784385.4144    -797664.60645   -525092.25945                  24784402.6804
         8.5004          9.0004
  21638212.4384    1113177.11248    790135.34347                  21638222.2504
        29.5004         27.5004
  21193888.1804    -275888.19848   -187622.73947                  21193896.4344
        32.0004         30.7504
 00  5  9 19  2 30.0000000  0  7G 4G 5G 6G10G17G24G30
  24571444.0004    1599765.25745   1067811.61045                  24571458.7464
         9.7504          8.7504
  20649704.4924     675958.73148    479167.73447                  20649712.6644
        31.7504         30.0004
  23103350.2344    -524060.25546   -366980.03846                  23103360.8324
        19.2504         18.5004
  21455195.4614    -253112.81547   -176174.74647                  21455205.5554
        27.7504         28.7504
  24778455.5784    -828823.48545   -549371.79045                  24778472.7974
         8.5004          9.0004
  21646979.5084    1159247.27048    826034.13547                  21646989.3204
        29.0004         27.2504
  21192139.7194    -285076.42648   -194782.38647                  21192147.9264
        32.0004         30.7504
 00  5  9 19  2 45.0000000  0  7G 4G 5G 6G10G17G24G30
  24583321.5474    1662185.66945   1116450.84745                  24583336.8324
         9.5004          8.5004
  20655125.5704     704446.15448    501365.69547                  20655133.7074
        32.0004         30.2504
  23099602.5474    -543755.78746   -382327.17346                  23099613.0864
        19.7504         18.5004
  21453771.6254    -260595.05948   -182005.04147                  21453781.7664
        28.2504         28.7504
  24772537.7814    -859920.60845   -573603.21945                  24772555.2934
         8.2504          9.0004
  21655760.0164    1205389.60348    861989.16247                  21655769.8874
        29.0004         27.2504
  21190419.0864    -294118.81448   -201828.39547                  21190427.2114
        32.0004         31.0004
 00  5  9 19  3  0.0000000  0  7G 4G 5G 6G10G17G24G30
  24595202.6724    1724619.61345   1165100.61545                  24595217.5474
         9.2504          8.7504
  20660575.9534     733088.21648    523684.15747                  20660584.1954
        32.0004         30.2504
  23095860.3284    -563420.33646   -397650.16246                  23095870.9264
        18.7504         18.7504
  21452378.3134    -267916.78748   -187710.25847                  21452388.4064
        28.2504         28.7504
  24766632.2274    -890955.42345   -597786.01745                  24766651.5314
         8.0004          9.0004
  21664554.3204    1251604.27448    898000.56347                  21664564.3324
        28.7504         27.0004
  21188726.2664    -303014.68248   -208760.23847                  21188734.3914
        32.0004         30.7504
 00  5  9 19  3 15.0000000  0  7G 4G 5G 6G10G17G24G30
  24607085.8674    1787065.10745   1213759.39445                  24607100.6954
         8.7504          7.7504
  20666055.5864     761882.98648    546121.61347                  20666063.7344
        32.0004         30.2504
  23092123.5864    -583055.71446   -412950.41546                  23092134.2304
        18.5004         18.2504
  21451015.0704    -275079.64848   -193291.67847                  21451025.1524
        28.2504         29.0004
  24760738.4224    -921929.61545   -621921.62345                  24760756.2974
         8.2504          8.5004
  21673362.3444    1297889.15048    934066.66347                  21673372.2034
        28.5004         27.0004
  21187060.9454    -311765.74048   -215579.23447                  21187069.1174
        31.7504         30.7504
 00  5  9 19  3 30.0000000  0  7G 4G 5G 6G10G17G24G30
  24618970.5164    1849520.06345   1262425.54445                  24618985.6604
         8.7504          8.5004
  20671563.6884     790828.60748    568676.61547                  20671571.8134
        32.0004         30.2504
  23088392.4064    -602663.62246   -428229.26346                  23088402.8524
        18.7504         18.5004
  21449682.2034    -282085.25748   -198750.57347                  21449692.2974
        28.0004         28.7504
  24754854.4304    -952844.88245   -646011.33945                  24754872.4344
         8.5004          9.0004
  21682182.6484    1344242.17348    970185.86347                  21682192.6484
        28.2504         26.7504
  21185423.0704    -320373.46248   -222286.54647                  21185431.1484
        32.5004         30.7504
 00  5  9 19  3 45.0010000  0  7G 4G 5G 6G10G17G24G30
  24630857.9194    1911988.66445   1311102.32645                  24630873.1814
         8.0004          7.7504
  20677100.8964     819926.85148    591350.54147                  20677109.0564
        32.2504         30.2504
  23084665.8724    -622245.30046   -443487.67546                  23084676.2944
        19.5004         18.5004
  21448378.7864    -288933.90048   -204087.14847                  21448388.8454
        28.0004         28.7504
  24748982.7554    -983703.20245   -670056.63545                  24749000.7124
         8.2504          8.7504
  21691017.0834    1390666.23748   1006360.42647                  21691027.0834
        28.2504         26.5004
  21183812.2394    -328838.09548   -228882.36147                  21183820.2714
        32.5004         30.7504
 00  5  9 19  4  0.0010000  0  7G 4G 5G 6G10G17G24G30
  24642745.8494    1974462.36445   1359783.05445                  24642761.7434
         8.0004          7.7504
  20682666.3884     849174.08448    614140.56647                  20682674.5364
        32.2504         30.5004
  23080945.4424    -641797.82847   -458723.37246                  23080955.8884
        20.0004         19.0004
  21447105.5604    -295624.07047   -209300.23547                  21447115.6064
        27.7504         28.5004
  24743122.5054   -1014500.11945   -694054.12645                  24743140.6854
         8.5004          8.2504
  21699863.5604    1437155.17848   1042585.54147                  21699873.4894
        28.0004         26.2504
  21182229.0214    -337158.19248   -235365.55147                  21182236.8644
        32.2504         30.5004
 00  5  9 19  4 15.0010000  0  7G 4G 5G 6G10G17G24G30
  24654636.4504    2036943.96545   1408469.98745                  24654652.2164
         7.7504          7.5004
  20688260.4744     878570.78648    637047.05747                  20688268.6224
        32.2504         30.5004
  23077229.6224    -661323.83646   -473938.40446                  23077240.1264
        19.5004         19.0004
  21445862.5444    -302157.46048   -214391.16247                  21445872.7674
        28.0004         28.7504
  24737272.2864   -1045238.89045   -718006.26245                  24737289.7284
         8.0004          9.0004
  21708722.7164    1483710.39147   1078862.29047                  21708732.6924
        27.7504         26.5004
  21180672.9814    -345335.35648   -241737.35847                  21180680.9074
        32.5004         30.5004
 00  5  9 19  4 30.0010000  0  7G 4G 5G 6G10G17G24G30
  24666526.7784    2099430.68345   1457160.87745                  24666541.5834
         7.7504          7.0004
  20693882.5134     908114.37948    660068.00647                  20693890.6854
        32.2504         30.5004
  23073518.3334    -680825.76346   -489134.67546                  23073528.8964
        19.7504         18.7504
  21444648.4424    -308536.40548   -219361.74347                  21444658.5604
        28.2504         28.7504
  24731433.5134   -1075922.00045   -741915.06945                  24731449.9814
         8.2504          9.7504
  21717593.8884    1530329.07647   1115188.49947                  21717603.8064
        27.2504         26.2504
  21179143.5994    -353371.80548   -247999.52547                  21179151.6774
        32.5004         30.5004
 00  5  9 19  4 45.0010000  0  7G 4G 5G 6G10G17G24G30
  24678419.4354    2161923.31745   1505856.41145                  24678435.3064
         8.2504          8.0004
  20699532.5994     937805.72848    683204.09047                  20699540.7714
        32.2504         30.5004
  23069811.9354    -700302.62147   -504311.40346                  23069822.7784
        20.2504         18.7504
  21443464.1854    -314759.76748   -224211.08747                  21443474.1384
        28.0004         28.5004
  24725605.5754   -1106548.34945   -765779.61345                  24725623.6964
         8.7504          9.5004
  21726477.5284    1577011.95647   1151564.73647                  21726487.6694
        27.0004         26.2504
  21177641.1464    -361266.57548   -254151.28647                  21177649.2244
        32.2504         30.7504
 00  5  9 19  5  0.0010000  0  7G 4G 5G 6G10G17G24G30
  24690311.5994    2224420.71445   1554555.63445                  24690328.1034
         8.0004          8.0004
  20705210.7164     967643.75448    706454.47347                  20705218.8994
        32.2504         30.2504
  23066110.3174    -719755.31947   -519469.31346                  23066121.0214
        20.2504         19.2504
  21442309.4814    -320828.23948   -228939.74147                  21442319.5874
        28.2504         28.7504
  24719788.0524   -1137118.82845   -789600.61945                  24719804.8374
         9.2504          9.2504
  21735372.8104    1623757.71147   1187989.96447                  21735382.9384
        26.7504         25.7504
  21176165.6534    -369020.37748   -260193.20647                  21176173.7084
        32.0004         30.5004
 00  5  9 19  5 15.0010000  0  7G 4G 5G 6G10G17G24G30
  24702206.7554    2286925.23545   1603260.40145                  24702222.7084
         8.0004          7.5004
  20710917.1224     997631.07748    729821.18847                  20710925.4234
        32.2504         30.5004
  23062413.6774    -739181.15747   -534606.29746                  23062424.1104
        20.5004         19.0004
  21441184.5524    -326738.99948   -233545.49847                  21441194.4704
        28.2504         28.7504
  24713982.0674   -1167630.62345   -813375.95045                  24713999.5794
         9.2504          9.5004
  21744280.8024    1670568.87047   1224466.15446                  21744290.9424
        26.5004         25.5004
  21174717.5214    -376630.22148   -266122.95047                  21174725.6574
        32.0004         30.2504
 00  5  9 19  5 30.0010000  0  7G 4G 5G 6G10G17G24G30
  24714101.1614    2349434.89345   1651969.18445                  24714118.2514
         7.7504          7.5004
  20716651.5674    1027765.69948    753302.68347                  20716659.6924
        32.5004         30.7504
  23058721.8174    -758582.03747   -549723.82446                  23058732.3454
        20.2504         19.0004
  21440089.5284    -332493.59248   -238029.56947                  21440099.5634
        28.0004         28.7504
  24708186.6464   -1198085.55445   -837106.89345                  24708204.2744
         9.0004          9.5004
  21753200.5284    1717443.14047   1260991.52447                  21753210.6924
        26.7504         25.7504
  21173296.6774    -384097.81448   -271941.84747                  21173304.9314
        32.0004         30.2504
 00  5  9 19  5 45.0010000  0  7G 4G 5G 6G10G17G24G30
  24725996.4744    2411945.31645   1700678.60645                  24726011.5244
         7.7504          7.5004
  20722413.2554    1058043.30948    776895.59647                  20722421.3454
        32.5004         30.7504
  23055033.6224    -777962.04046   -564825.10546                  23055043.9744
        19.2504         19.0004
  21439023.4584    -338096.05948   -242395.09647                  21439033.4354
        28.2504         28.5004
  24702400.7554   -1228487.65345   -860796.71845                  24702419.4384
         9.2504          9.5004
  21762131.9424    1764376.19447   1297562.70346                  21762142.0604
        26.5004         25.5004
  21171901.7474    -391427.25748   -277653.09547                  21171909.8254
        32.0004         30.2504
 00  5  9 19  6  0.0010000  0  7G 4G 5G 6G10G17G24G30
  24737892.0994    2474458.16744   1749389.83445                  24737911.2164
         7.0004          7.0004
  20728202.4504    1088465.78248    800601.39147                  20728210.7044
        32.2504         30.7504
  23051350.1304    -797319.24846   -579908.60246                  23051360.6224
        19.7504         19.0004
  21437986.7084    -343544.41948   -246640.54547                  21437996.6144
        28.2504         28.5004
  24696625.5134   -1258834.91545   -884443.81145                  24696642.2044
         9.2504         10.0004
  21771074.3644    1811369.57847   1334180.88747                  21771084.5524
        26.7504         25.7504
  21170533.6694    -398616.36048   -283254.98547                  21170541.6424
        31.7504         30.5004
 00  5  9 19  6 15.0010000  0  7G 4G 5G 6G10G17G24G30
  24749789.5214    2536977.80144   1798106.46245                  24749806.6694
         6.2504          6.5004
  20734019.9744    1119037.43748    824423.43347                  20734028.1814
        32.2504         30.7504
  23047672.0214    -816649.11547   -594970.79946                  23047682.1734
        20.2504         19.0004
  21436979.9584    -348833.97647   -250762.24347                  21436989.9464
        27.5004         28.2504
  24690862.0524   -1289122.76945   -908044.59245                  24690879.3994
         9.2504         10.2504
  21780029.2634    1858427.61947   1370849.45646                  21780039.2394
        26.7504         25.5004
  21169193.3494    -405660.28548   -288743.75347                  21169201.5324
        32.0004         30.2504
 00  5  9 19  6 30.0010000  0  7G 4G 5G 6G10G17G24G30
  24761687.6464    2599499.57344   1846824.59645                  24761702.9074
         6.5004          7.0004
  20739865.0444    1149753.65248    848358.11747                  20739873.2634
        32.2504         30.7504
  23043998.0834    -835956.07147   -610015.14746                  23044008.5284
        20.0004         18.7504
  21436002.7554    -353968.96847   -254763.50747                  21436012.8724
        27.7504         28.0004
  24685108.7004   -1319355.68345   -931602.59745                  24685126.8684
         9.0004          9.7504
  21788995.3254    1905545.42747   1407564.59746                  21789005.3374
        26.7504         25.5004
  21167879.7714    -412563.33248   -294122.74847                  21167887.8724
        32.2504         30.2504
 00  5  9 19  6 45.0010000  0  7G 4G 5G 6G10G17G24G30
  24773585.6304    2662025.69144   1895546.22645                  24773601.0444
         7.2504          7.5004
  20745738.2314    1180616.92148    872407.38847                  20745746.6264
        32.2504         31.0004
  23040328.6464    -855237.52947   -625039.63046                  23040339.0794
        20.0004         18.7504
  21435055.5364    -358946.65247   -258642.18947                  21435065.4424
        27.2504         28.0004
  24679367.1144   -1349530.99645   -955115.68445                  24679385.3414
         9.2504          9.7504
  21797973.5054    1952725.36347   1444328.14546                  21797983.5754
        27.0004         25.5004
  21166593.4354    -419322.83548   -299389.88947                  21166601.3494
        31.7504         30.2504
 00  5  9 19  7  0.0010000  0  7G 4G 5G 6G10G17G24G30
  24785483.8334    2724552.64245   1944268.50745                  24785500.0674
         8.0004          7.5004
  20751638.7864    1211623.72448    896568.50647                  20751647.2284
        32.0004         30.7504
  23036664.0134    -874496.85646   -640046.86146                  23036674.1534
        19.7504         18.7504
  21434137.4744    -363770.34247   -262400.88147                  21434147.4154
        27.7504         28.0004
  24673635.0214   -1379651.94545   -978586.43345                  24673653.2824
         9.2504         10.0004
  21806962.7394    1999963.79647   1481137.27546                  21806972.9504
        27.0004         25.5004
  21165333.9974    -425941.92448   -304547.61547                  21165342.0174
        32.2504         30.5004
 00  5  9 19  7 15.0010000  0  7G 4G 5G 6G10G17G24G30
  24797383.2474    2787079.18245   1992990.45945                  24797399.8334
         7.7504          7.2504
  20757566.2554    1242772.92248    920840.57847                  20757574.5794
        31.7504         30.7504
  23033002.7784    -893735.04446   -655037.62146                  23033013.0714
        19.2504         19.0004
  21433248.7004    -368440.90147   -266040.24247                  21433258.5714
        27.2504         28.0004
  24667912.8254   -1409719.54245  -1002015.61345                  24667930.8174
         9.2504          9.7504
  21815962.8254    2047259.23447   1517990.82946                  21815972.8494
        27.2504         25.2504
  21164100.8024    -432421.46048   -309596.59647                  21164108.8454
        32.0004         30.5004
 00  5  9 19  7 30.0010000  0  7G 4G 5G 6G10G17G24G30
  24809282.0134    2849610.89645   2041716.42745                  24809295.4584
         8.2504          7.5004
  20763521.9194    1274070.16448    945228.01147                  20763530.3604
        31.7504         30.7504
  23029347.2394    -912946.25347   -670007.36646                  23029357.4034
        20.0004         19.0004
  21432390.1614    -372952.35047   -269555.63347                  21432400.0324
        27.0004         27.7504
  24662202.8104   -1439727.94145  -1025398.61845                  24662220.9314
         9.2504          9.7504
  21824974.9194    2094617.30447   1554893.18546                  21824985.0484
        27.2504         25.5004
  21162895.5054    -438755.56448   -314532.25647                  21162903.6184
        32.0004         30.5004
 00  5  9 19  7 45.0010000  0  7G 4G 5G 6G10G17G24G30
  24821182.2944    2912145.15945   2090444.38045                  24821197.7554
         8.2504          8.2504
  20769505.3414    1305512.85848    969728.78847                  20769513.7244
        31.7504         30.7504
  23025696.0754    -932132.95147   -684957.99446                  23025706.1224
        20.2504         19.0004
  21431561.5284    -377306.95947   -272948.80347                  21431571.5284
        27.0004         27.7504
  24656502.4034   -1469679.48545  -1048737.37445                  24656519.8104
         9.5004         10.0004
  21833998.1534    2142035.26747   1591842.21446                  21834008.2714
        27.2504         25.5004
  21161717.3564    -444946.42048   -319356.29247                  21161725.3064
        32.0004         30.5004
 00  5  9 19  8  0.0010000  0  7G 4G 5G 6G10G17G24G30
  24833083.2244    2974685.08545   2139176.75345                  24833097.3374
         9.0004          8.2504
  20775516.8564    1337104.17148    994345.36847                  20775525.1814
        31.7504         30.5004
  23022049.9424    -951291.79747   -699886.92046                  23022060.4814
        20.0004         19.0004
  21430763.4354    -381501.25347   -276217.04447                  21430773.3414
        27.0004         27.2504
  24650814.7394   -1499570.76345  -1072029.13645                  24650832.4504
         9.5004         10.0004
  21843033.3804    2189516.18147   1628840.29846                  21843043.5214
        27.0004         25.5004
  21160567.3104    -450990.43248   -324065.89747                  21160575.2824
        32.2504         30.5004
 00  5  9 19  8 15.0010000  0  7G 4G 5G 6G10G17G24G30
  24844984.8884    3037228.23345   2187911.68845                  24845002.5284
         8.2504          8.0004
  20781556.5364    1368842.01648   1019076.15747                  20781565.1534
        31.2504         30.7504
  23018409.3804    -970424.74547   -714795.65646                  23018419.8374
        20.0004         19.5004
  21429995.2714    -385536.99047   -279361.72147                  21430005.1184
        27.0004         27.7504
  24645138.0524   -1529403.70745  -1095275.42345                  24645154.5794
         9.7504         10.0004
  21852080.3884    2237057.69747   1665885.62046                  21852090.5754
        27.5004         25.5004
  21159444.6614    -456889.56248   -328662.59147                  21159452.7284
        32.0004         30.5004
 00  5  9 19  8 30.0010000  0  7G 4G 5G 6G10G17G24G30
  24856886.0914    3099771.57645   2236646.76045                  24856903.7204
         9.0004          8.2504
  20787623.0914    1400723.14448   1043918.55847                  20787631.6734
        31.2504         30.5004
  23014772.5054    -989534.88247   -729686.64346                  23014782.8334
        20.0004         19.0004
  21429257.0054    -389417.16047   -282385.21047                  21429266.9354
        27.7504         27.5004
  24639471.1774   -1559181.37145  -1118478.68945                  24639487.8684
         9.5004         10.2504
  21861138.1464    2284656.41047   1702975.48546                  21861148.3214
        27.2504         25.5004
  21158349.2314    -462646.73348   -333148.69847                  21158357.2744
        31.7504         30.5004
 00  5  9 19  8 45.0010000  0  7G 4G 5G 6G10G17G24G30
  24868788.2164    3162315.12845   2285381.92545                  24868807.7084
         8.2504          8.0004
  20793717.2244    1432747.80948   1068872.81747                  20793725.8174
        31.5004         30.7504
  23011140.7634   -1008621.76847   -744559.50146                  23011151.3134
        20.0004         19.2504
  21428548.3024    -393141.14747   -285286.98247                  21428558.2314
        27.5004         27.7504
  24633815.1384   -1588903.24045  -1141638.45245                  24633832.4744
         9.5004         10.2504
  21870206.9194    2332312.43047   1740110.01347                  21870217.0014
        27.7504         25.7504
  21157280.7784    -468261.30448   -337523.67547                  21157288.7864
        31.5004         30.2504
 00  5  9 19  9  0.0010000  0  7G 4G 5G 6G10G17G24G30
  24880689.4974    3224859.48445   2334117.78745                  24880705.3104
         9.0004          8.2504
  20799838.8494    1464916.56148   1093939.35547                  20799847.3604
        31.0004         30.5004
  23007512.9424   -1027684.60247   -759413.61146                  23007523.3764
        20.0004         19.5004
  21427869.4664    -396708.09247   -288066.39047                  21427879.1144
        27.5004         27.7504
  24628169.6464   -1618568.49945  -1164754.09845                  24628186.5014
         9.5004         10.5004
  21879286.5914    2380026.28447   1777289.60247                  21879296.6144
        27.7504         25.7504
  21156239.7394    -473732.28048   -341786.77047                  21156247.7474
        31.7504         30.5004
 00  5  9 19  9 15.0010000  0  7G 4G 5G 6G10G17G24G30
  24892591.9354    3287404.48145   2382854.13745                  24892607.0094
         9.2504          9.0004
  20805987.7394    1497229.36448   1119118.13347                  20805996.4154
        30.7504         30.5004
  23003889.8644   -1046723.40146   -774248.99646                  23003900.3924
        19.7504         19.5004
  21427220.5674    -400117.90847   -290723.36047                  21427230.2744
        27.5004         27.5004
  24622535.2474   -1648177.08045  -1187825.60945                  24622552.9704
         9.2504          9.7504
  21888377.2314    2427797.72347   1814514.06747                  21888387.5364
        27.7504         25.7504
  21155225.9424    -479059.59148   -345937.91147                  21155233.9744
        32.0004         30.5004
 00  5  9 19  9 30.0010000  0  7G 4G 5G 6G10G17G24G30
  24904494.2554    3349951.13845   2431591.76645                  24904510.7474
         9.0004          8.7504
  20812164.2634    1529687.22148   1144409.94047                  20812172.9154
        30.7504         30.5004
  23000271.6614   -1065736.89746   -789064.66846                  23000282.0134
        19.7504         19.0004
  21426602.0054    -403369.20548   -293256.81447                  21426611.7594
        28.0004         28.0004
  24616911.7474   -1677727.86545  -1210852.04245                  24616929.1884
         9.2504         10.0004
  21897478.9424    2475627.42348   1851783.92347                  21897489.1774
        28.2504         25.7504
  21154239.7634    -484241.83948   -349976.01647                  21154247.7824
        32.2504         30.5004
 00  5  9 19  9 45.0010000  0  7G 4G 5G 6G10G17G24G30
  24916395.2244    3412491.29145   2480324.33445                  24916412.6184
         9.0004          9.0004
  20818366.9504    1562282.17748   1169808.57947                  20818375.5914
        30.7504         30.5004
  22996656.9744   -1084732.82947   -803866.66346                  22996667.2674
        20.0004         19.0004
  21426011.8414    -406469.66048   -295672.72147                  21426021.5014
        28.0004         28.0004
  24611298.0754   -1707228.44045  -1233839.39145                  24611314.4034
         9.2504         10.0004
  21906590.2714    2523507.44348   1889092.99147                  21906600.5284
        28.0004         26.0004
  21153279.6774    -489286.61748   -353907.00547                  21153287.6264
        32.2504         30.5004
 00  5  9 19 10  0.0010000  0  7G 4G 5G 6G10G17G24G30
  24928295.7554    3475031.82945   2529057.17945                  24928312.0484
         8.7504          8.2504
  20824596.8254    1595021.05348   1195319.36347                  20824605.4894
        30.5004         30.2504
  22993046.6064   -1103704.21047   -818649.51346                  22993056.9704
        20.0004         19.0004
  21425451.9424    -409412.16048   -297965.55247                  21425461.4854
        28.5004         28.0004
  24605694.6144   -1736671.74345  -1256782.10345                  24605710.9664
         9.2504         10.5004
  21915712.4034    2571444.51248   1926446.51047                  21915722.4504
        28.2504         26.0004
  21152347.2944    -494186.72848   -357725.26247                  21152355.3024
        32.0004         30.2504
 00  5  9 19 10 15.0010000  0  7G 4G 5G 6G10G17G24G30
  24940197.4194    3537572.59345   2577790.25845                  24940213.8764
         9.2504          8.0004
  20830854.3334    1627903.91448   1220942.34347                  20830862.9744
        30.5004         30.5004
  22989441.3104   -1122650.92046   -833413.15446                  22989451.6734
        19.5004         19.2504
  21424922.2634    -412196.46348   -300135.10947                  21424931.9354
        28.5004         28.2504
  24600102.9194   -1766057.55645  -1279680.00245                  24600120.5714
         8.7504         10.0004
  21924845.2554    2619438.42548   1963844.32647                  21924855.4894
        28.2504         26.0004
  21151442.2944    -498941.93048   -361430.61147                  21151450.1614
        32.2504         30.5004
 00  5  9 19 10 30.0010000  0  7G 4G 5G 6G10G17G24G30
  24952098.5214    3600112.65445   2626522.70045                  24952115.0244
         9.0004          8.5004
  20837138.9194    1660929.78148   1246676.75247                  20837147.5954
        30.5004         30.2504
  22985839.9504   -1141573.77646   -848158.20246                  22985850.3724
        19.0004         19.2504
  21424422.2864    -414823.21348   -302181.90347                  21424431.7714
        28.5004         28.2504
  24594521.4274   -1795386.71845  -1302533.77945                  24594538.5634
         9.5004          9.7504
  21933988.9504    2667488.15248   2001285.63147                  21933999.1964
        28.0004         26.0004
  21150564.8494    -503553.00148   -365023.64747                  21150572.7284
        32.2504         30.5004
 00  5  9 19 10 45.0010000  0  7G 4G 5G 6G10G17G24G30
  24963998.4664    3662650.70545   2675253.66145                  24964014.2434
         8.5004          7.5004
  20843450.4034    1694097.36248   1272521.59147                  20843459.2084
        30.2504         30.5004
  22982243.5604   -1160473.84946   -862885.48846                  22982254.3104
        19.7504         19.2504
  21423952.2394    -417293.33848   -304106.64847                  21423961.7824
        28.5004         28.2504
  24588950.6924   -1824660.21045  -1325344.12845                  24588967.7244
         9.7504         10.2504
  21943142.8724    2715592.22548   2038769.28147                  21943152.9784
        28.2504         26.2504
  21149714.8334    -508020.77348   -368505.02047                  21149722.6654
        32.2504         30.5004
 00  5  9 19 11  0.0010000  0  7G 4G 5G 6G10G17G24G30
  24975899.6064    3725187.84445   2723983.92145                  24975916.1464
         9.0004          8.0004
  20849789.2394    1727408.00448   1298477.90547                  20849797.9384
        30.2504         30.5004
  22978651.5754   -1179349.60746   -877593.84746                  22978662.1494
        19.2504         19.0004
  21423512.3494    -419605.23048   -305908.09847                  21423521.7864
        28.5004         28.2504
  24583392.0364   -1853876.57545  -1348110.03645                  24583409.3254
         9.5004         10.7504
  21952307.4194    2763751.78348   2076296.17547                  21952317.8064
        28.2504         26.0004
  21148892.0604    -512343.57948   -371873.42847                  21148899.9974
        32.2504         30.5004
 00  5  9 19 11 15.0010000  0  7G 4G 5G 6G10G17G24G30
  24987800.1614    3787726.77445   2772715.49445                  24987817.3564
         7.7504          7.5004
  20856155.9034    1760864.31548   1324547.72647                  20856164.6034
        30.2504         30.2504
  22975064.8494   -1198198.21647   -892281.04146                  22975075.2474
        20.0004         19.2504
  21423102.9274    -421756.02748   -307584.02047                  21423112.3064
        28.5004         28.2504
  24577842.9194   -1883033.01845  -1370829.19345                  24577861.7434
         9.0004         10.2504
  21961482.8414    2811969.38748   2113868.28947                  21961493.4154
        28.0004         26.2504
  21148097.6694    -516518.52948   -375126.63247                  21148105.4784
        32.0004         30.5004
 00  5  9 19 11 30.0010000  0  7G 4G 5G 6G10G17G24G30
  24999700.2554    3850264.75045   2821446.37045                  24999716.1384
         8.2504          7.7504
  20862549.6384    1794463.58448   1350728.94247                  20862558.3964
        30.2504         30.2504
  22971482.7394   -1217022.20246   -906949.04746                  22971493.0324
        19.7504         19.5004
  21422723.7164    -423748.00748   -309136.18647                  21422733.1534
        28.5004         28.5004
  24572306.2634   -1912131.86045  -1393503.48045                  24572323.5634
         9.2504         10.2504
  21970668.9424    2860242.19148   2151483.42247                  21970679.3174
        28.2504         26.0004
  21147330.9814    -520547.97848   -378266.45547                  21147338.8254
        32.2504         30.5004
 00  5  9 19 11 45.0010000  0  6G 5G 6G10G17G24G30
  20868970.8104    1828206.92248   1377022.42347                  20868979.4974
        30.5004         30.2504
  22967905.5994   -1235820.31446   -921596.90046                  22967915.8804
        18.7504         19.0004
  21422375.2314    -425579.90148   -310563.61347                  21422384.9154
        28.5004         28.2504
  24566779.3494   -1941171.90145  -1416131.96445                  24566796.5444
        10.0004         10.0004
  21979865.5994    2908571.19548   2189142.34247                  21979875.8104
        28.0004         26.0004
  21146592.2084    -524430.51548   -381291.80247                  21146600.0054
        31.7504         30.2504
 00  5  9 19 12  0.0010000  0  6G 5G 6G10G17G24G30
  20875419.0754    1862092.83648   1403427.00047                  20875427.7634
        30.5004         30.2504
  22964333.2004   -1254593.89146   -936225.62846                  22964343.5054
        19.5004         19.2504
  21422056.7864    -427252.86248   -311867.19147                  21422066.4354
        28.5004         28.5004
  24561263.8564   -1970154.50145  -1438715.71145                  24561280.5244
         9.7504         10.5004
  21989072.6924    2956954.69548   2226843.72847                  21989083.1034
        28.0004         26.0004
  21145880.8174    -528167.41648   -384203.66447                  21145888.8254
        32.5004         30.7504
 00  5  9 19 12 15.0010000  0  6G 5G 6G10G17G24G30
  20881893.4354    1896115.44548   1429938.09347                  20881902.2044
        30.5004         30.5004
  22960764.2864   -1273348.69846   -950839.72746                  22960774.9784
        19.7504         19.2504
  21421767.5674    -428772.60948   -313051.38747                  21421777.1574
        28.5004         28.5004
  24555759.0754   -1999085.31545  -1461259.06645                  24555776.4234
         9.5004         10.2504
  21998289.1534    3005386.56548   2264582.81047                  21998299.6104
        28.0004         26.0004
  21145196.5054    -531764.14848   -387006.30547                  21145204.4314
        31.2504         30.7504
 00  5  9 19 12 30.0010000  0  6G 5G 6G10G17G24G30
  20888394.1464    1930277.55648   1456557.88647                  20888402.9274
        30.2504         30.2504
  22957199.2084   -1292081.76147   -965436.89546                  22957209.7244
        20.0004         19.2504
  21421508.2474    -430136.05348   -314113.79647                  21421517.9784
        28.5004         28.5004
  24550263.7634   -2027961.26545  -1483759.67945                  24550280.9934
        10.0004         10.5004
  22007515.2314    3053869.51247   2302361.68847                  22007525.7474
        27.5004         25.7504
  21144539.1614    -535217.62948   -389697.33147                  21144547.0404
        32.0004         30.5004
 00  5  9 19 12 45.0010000  0  6G 5G 6G10G17G24G30
  20894922.2634    1964581.95348   1483288.55847                  20894931.0094
        30.0004         30.2504
  22953639.3644   -1310790.02146   -980014.73146                  22953649.7394
        19.7504         19.2504
  21421278.8644    -431340.14448   -315052.02247                  21421288.6184
        28.5004         28.7504
  24544779.8964   -2056779.39545  -1506215.24745                  24544796.5994
         9.7504         10.5004
  22016751.3174    3102406.35247   2340182.56347                  22016761.9504
        27.7504         25.7504
  21143910.1924    -538524.70248   -392274.25847                  21143918.0364
        31.7504         30.7504
 00  5  9 19 13  0.0010000  0  6G 5G 6G10G17G24G30
  20901477.2554    1999029.06648   1510130.43847                  20901486.0714
        30.2504         30.5004
  22950084.2864   -1329472.80647   -994572.69646                  22950094.7554
        20.2504         19.2504
  21421080.3334    -432384.17048   -315865.52847                  21421090.1104
        28.5004         28.7504
  24539306.6464   -2085538.99645  -1528625.18145                  24539323.2084
         9.7504         10.5004
  22025998.0284    3150997.35047   2378045.64547                  22026008.7904
        27.7504         25.7504
  21143308.7004    -541684.71148   -394736.59547                  21143316.5324
        32.0004         30.7504
 00  5  9 19 13 15.0010000  0  6G 5G 6G10G17G24G30
  20908059.5674    2033619.52548   1537084.01347                  20908068.2784
        30.2504         30.2504
  22946533.6224   -1348129.19546  -1009110.12446                  22946544.2204
        19.5004         19.2504
  21420912.3884    -433267.08348   -316553.49147                  21420922.2354
        28.5004         28.7504
  24533845.1144   -2114239.14545  -1550988.81045                  24533861.8644
        10.2504         11.0004
  22035255.0914    3199642.99547   2415951.30347                  22035265.5834
        27.7504         25.7504
  21142735.5214    -544696.54948   -397083.47447                  21142743.5524
        30.7504         30.7504
 00  5  9 19 13 30.0010000  0  6G 5G 6G10G17G24G30
  20914669.0214    2068352.04348   1564148.27847                  20914677.6614
        30.5004         30.2504
  22942988.3804   -1366760.32846  -1023627.86246                  22942998.5444
        19.7504         19.5004
  21420774.6464    -433989.93448   -317116.73647                  21420784.5994
        28.2504         28.7504
  24528394.5604   -2142880.88945  -1573306.92545                  24528412.6814
         9.2504         10.5004
  22044522.1144    3248341.89847   2453898.45646                  22044532.7474
        27.5004         25.5004
  21142190.4424    -547561.20748   -399315.67447                  21142198.4034
        31.5004         30.7504
 00  5  9 19 13 45.0010000  0  6G 5G 6G10G17G24G30
  20921305.0674    2103223.61948   1591320.90647                  20921313.6384
        30.2504         30.0004
  22939447.2004   -1385368.94447  -1038128.05346                  22939457.4584
        20.2504         19.5004
  21420666.9424    -434555.37848   -317557.32247                  21420676.9314
        28.5004         29.0004
  24522955.0674   -2171466.99945  -1595581.69045                  24522972.7904
        10.2504         10.5004
  22053798.9194    3297090.94747   2491884.68547                  22053809.3994
        27.2504         25.7504
  21141672.8254    -550281.31748   -401435.23147                  21141680.8334
        30.5004         31.0004
 00  5  9 19 14  0.0010000  0  6G 5G 6G10G17G24G30
  20927967.6144    2138236.26548   1618603.45447                  20927976.2904
        30.5004         30.0004
  22935910.8024   -1403952.94747  -1052609.06946                  22935920.8494
        20.5004         19.5004
  21420589.7394    -434961.12848   -317873.47547                  21420599.7284
        28.5004         29.0004
  24517526.3024   -2199995.29545  -1617811.41445                  24517543.9314
        10.2504         10.7504
  22063085.1854    3345892.13347   2529911.54046                  22063095.4314
        27.5004         25.5004
  21141183.2394    -552854.61048   -403440.39247                  21141191.1304
        31.5004         31.2504
 00  5  9 19 14 15.0010000  0  6G 5G 6G10G17G24G30
  20934656.6534    2173387.86548   1645994.27947                  20934665.2004
        30.0004         30.0004
  22932378.5994   -1422514.20847  -1067072.35946                  22932388.9154
        20.2504         20.2504
  21420542.8724    -435208.99048   -318066.60047                  21420552.7784
        28.7504         29.0004
  24512107.7164   -2228467.58345  -1639997.48645                  24512124.9704
         9.7504         10.7504
  22072381.5754    3394743.06647   2567977.16646                  22072391.8924
        27.2504         25.2504
  21140721.0674    -555282.91548   -405332.57747                  21140728.9234
        29.7504         31.2504
 00  5  9 19 14 30.0010000  0  6G 5G 6G10G17G24G30
  20941372.4424    2208678.63648   1673493.54947                  20941381.1884
        30.0004         30.0004
  22928850.9114   -1441052.34747  -1081517.63246                  22928861.1814
        20.5004         20.0004
  21420525.8254    -435298.41348   -318136.26347                  21420535.6734
        29.2504         29.2504
  24506700.6774   -2256883.53445  -1662139.65545                  24506718.0364
        10.0004         10.7504
  22081686.9114    3443644.00947   2606081.74946                  22081697.5214
        27.0004         25.2504
  21140286.6854    -557565.63648   -407111.31947                  21140294.6104
        32.5004         31.2504
 00  5  9 19 14 45.0010000  0  6G 5G 6G10G17G24G30
  20948114.3024    2244107.42448   1701100.36647                  20948123.0364
        30.0004         30.0004
  22925327.4894   -1459568.29447  -1095945.60946                  22925338.0404
        20.7504         19.7504
  21420538.9194    -435230.35548   -318083.21547                  21420548.5564
        29.5004         29.5004
  24501303.1774   -2285244.07345  -1684238.67945                  24501320.0444
        10.0004         10.7504
  22091001.5214    3492593.53247   2644224.19646                  22091012.0714
        27.7504         25.0004
  21139879.8644    -559703.66148   -408777.30647                  21139888.0014
        32.2504         31.5004
 00  5  9 19 15  0.0010000  0  6G 5G 6G10G17G24G30
  20954882.7714    2279675.44048   1728815.66847                  20954891.3884
        30.2504         30.0004
  22921808.7084   -1478060.56547  -1110355.14846                  22921818.8844
        20.5004         20.0004
  21420581.8104    -435003.32748   -317906.29547                  21420591.5404
        29.7504         29.5004
  24495917.3414   -2313547.76245  -1706293.35745                  24495934.7714
        10.0004         11.0004
  22100326.0444    3541592.70947   2682405.33146                  22100336.5484
        27.2504         25.0004
  21139500.7864    -561695.57548   -410329.44447                  21139508.8294
        30.5004         31.5004
 00  5  9 19 15 15.0010000  0  6G 5G 6G10G17G24G30
  20961678.0834    2315385.05948   1756641.31347                  20961686.6534
        30.0004         29.7504
  22918294.7784   -1496526.66647  -1124744.28946                  22918305.1304
        20.5004         20.0004
  21420655.8174    -434614.66448   -317603.41947                  21420665.4544
        29.7504         29.5004
  24490542.2244   -2341792.07045  -1728301.78845                  24490558.5994
        10.0004         11.0004
  22109660.3724    3590643.97747   2720627.05346                  22109670.9234
        27.0004         25.0004
  21139150.0604    -563538.64448   -411765.59947                  21139157.9154
        29.7504         31.5004
 00  5  9 19 15 30.0010000  0  6G 5G 6G10G17G24G30
  20968499.6384    2351232.33748   1784574.22547                  20968508.3134
        30.2504         29.7504
  22914784.9504   -1514970.27147  -1139115.89546                  22914794.9154
        20.7504         20.0004
  21420759.8494    -434068.09148   -317177.50547                  21420769.4504
        29.5004         29.7504
  24485178.6694   -2369980.69145  -1750266.82945                  24485196.0054
        10.5004         11.2504
  22119003.7004    3639743.17747   2758886.12546                  22119014.2394
        27.0004         24.7504
  21138826.9894    -565236.41247   -413088.52947                  21138834.8334
        23.2504         31.7504
 00  5  9 19 15 45.0010000  0  6G 5G 6G10G17G24G30
  20975347.9744    2387221.10448   1812617.38247                  20975356.6964
        29.7504         29.5004
  22911280.1464   -1533387.41147  -1153466.88346                  22911290.5324
        20.5004         20.2504
  21420894.6384    -433359.48448   -316625.32747                  21420904.2514
        29.5004         29.5004
  24479825.7474   -2398109.57645  -1772185.30745                  24479841.6424
        11.0004         11.7504
  22128356.6464    3688893.93347   2797185.37546                  22128367.1854
        27.0004         24.7504
  21138532.4354    -566784.70847   -414294.99347                  21138540.2084
        23.7504         31.7504
 00  5  9 19 16  0.0010000  0  6G 5G 6G10G17G24G30
  20982222.9114    2423348.24048   1840768.36747                  20982231.6924
        29.7504         29.7504
  22907779.9664   -1551780.82547  -1167799.37946                  22907790.3064
        20.7504         20.2504
  21421059.7944    -432491.58348   -315949.02247                  21421069.2904
        29.7504         29.5004
  24474483.5054   -2426181.45945  -1794059.39145                  24474500.0794
        10.2504         11.0004
  22137719.0444    3738093.32647   2835522.52046                  22137729.6184
        26.7504         24.5004
  21138265.6534    -568186.20847   -415387.06847                  21138273.4504
        23.2504         31.5004
 00  5  9 19 16 15.0010000  0  6G 5G 6G10G17G24G30
  20989124.1384    2459615.08148   1869028.21247                  20989132.5914
        30.0004         29.5004
  22904284.6614   -1570149.08547  -1182112.27746                  22904294.7904
        20.5004         20.0004
  21421255.5604    -431462.78748   -315147.34947                  21421265.1964
        29.5004         29.5004
  24469152.5914   -2454194.83645  -1815887.86345                  24469168.5564
        10.5004         11.0004
  22147090.6774    3787342.38347   2873898.36646                  22147101.2984
        26.5004         24.7504
  21138027.2474    -569439.33147   -416363.52547                  21138034.9504
        21.2504         31.7504
 00  5  9 19 16 30.0010000  0  6G 5G 6G10G17G24G30
  20996051.8334    2496019.14148   1897394.97647                  20996060.3684
        29.7504         29.5004
  22900793.4584   -1588494.55147  -1196407.40446                  22900803.6574
        20.7504         20.2504
  21421481.6304    -430275.33448   -314222.04547                  21421491.1734
        29.7504         29.7504
  24463832.4424   -2482152.02745  -1837672.58245                  24463848.4194
        10.7504         11.5004
  22156471.5754    3836638.50647   2912310.88946                  22156481.9504
        26.7504         24.7504
  21137816.5914    -570546.33747   -417226.13147                  21137824.3994
        24.2504         31.7504
 00  5  9 19 16 45.0010000  0  6G 5G 6G10G17G24G30
  21003005.4194    2532561.90248   1925869.82447                  21003013.8724
        29.5004         29.5004
  22897307.2004   -1606815.41847  -1210683.37546                  22897317.2714
        21.0004         20.0004
  21421737.9664    -428927.41248   -313171.70047                  21421747.6964
        29.5004         29.5004
  24458523.2394   -2510051.22745  -1859412.09745                  24458539.6034
        11.0004         11.5004
  22165861.5674    3885983.10847   2950761.18546                  22165872.2354
        26.5004         24.2504
  21137634.0754    -571505.49347   -417973.52247                  21137641.7674
        22.5004         31.7504
 00  5  9 19 17  0.0010000  0  6G 5G 6G10G17G24G30
  21009985.6614    2569241.94548   1954451.64247                  21009994.3374
        29.5004         29.5004
  22893825.1224   -1625112.84547  -1224941.07846                  22893835.3214
        21.2504         20.5004
  21422024.9034    -427420.13748   -311997.18947                  21422034.5284
        29.2504         29.2504
  24453225.2164   -2537893.63145  -1881107.38445                  24453241.2284
        11.0004         11.5004
  22175260.3884    3935374.69047   2989248.09046                  22175270.9384
        26.7504         24.2504
  21137479.8334    -572317.83047   -418606.51247                  21137487.6884
        20.5004         31.7504
 00  5  9 19 17 15.0010000  0  6G 5G 6G10G17G24G30
  21016992.4744    2606063.80548   1983143.96647                  21017001.2084
        29.5004         29.5004
  22890348.6384   -1643382.15547  -1239176.87446                  22890359.1774
        21.0004         20.5004
  21422342.7784    -425748.81248   -310694.84547                  21422352.4854
        29.0004         29.2504
  24447938.7244   -2565674.55145  -1902754.75045                  24447955.8604
        10.5004         11.5004
  22184669.0054    3984817.58647   3027774.97646                  22184679.4384
        26.7504         24.0004
  21137353.9424    -572978.53447   -419121.34847                  21137361.7744
        22.2504         31.7504
 00  5  9 19 17 30.0010000  0  6G 5G 6G10G17G24G30
  21024025.3104    2643021.21548   2011941.91547                  21024034.1144
        29.5004         29.5004
  22886876.4274   -1661629.26447  -1253395.37146                  22886886.7084
        21.2504         20.2504
  21422690.9424    -423919.35448   -309269.28047                  21422700.6494
        28.5004         28.7504
  24442662.3254   -2593399.94445  -1924358.83545                  24442679.3684
        10.5004         11.2504
  22194086.4504    4034305.64347   3066337.04946                  22194097.0954
        26.7504         24.0004
  21137255.7244    -573493.38147   -419522.53247                  21137263.5324
        26.5004         31.5004
 00  5  9 19 17 45.0010000  0  6G 5G 6G10G17G24G30
  21031084.2314    2680115.45948   2040846.48547                  21031093.1884
        29.2504         29.5004
  22883408.3254   -1679852.75547  -1267595.45646                  22883418.3374
        21.5004         20.2504
  21423069.3024    -421930.28148   -307719.34247                  21423079.2204
        28.5004         29.2504
  24437397.3494   -2621068.39845  -1945918.56045                  24437413.2674
        10.5004         11.5004
  22203512.4584    4083839.90647   3104935.12946                  22203522.9624
        26.5004         23.7504
  21137185.9744    -573860.95147   -419808.95447                  21137193.8294
        25.0004         31.5004
 00  5  9 19 18  0.0010000  0  6G 5G 6G10G17G24G30
  21038168.6064    2717343.75048   2069855.51047                  21038177.5404
        29.5004         29.7504
  22879944.6064   -1698055.20747  -1281779.15346                  22879954.4784
        22.0004         20.7504
  21423477.6924    -419784.15048   -306047.01947                  21423487.4464
        28.5004         29.0004
  24432142.4114   -2648682.38245  -1967435.87246                  24432158.9624
        10.7504         12.0004
  22212946.9354    4133417.40747   3143566.89846                  22212957.7204
        26.5004         24.0004
  21137143.4894    -574083.69548   -419982.52347                  21137151.4504
        29.5004         31.2504
 00  5  9 19 18 15.0010000  0  6G 5G 6G10G17G24G30
  21045278.3964    2754706.42648   2098969.25147                  21045287.2944
        29.5004         29.7504
  22876484.9664   -1716235.98947  -1295945.95846                  22876495.3764
        21.2504         20.7504
  21423916.0914    -417480.25748   -304251.76447                  21423926.0444
        28.5004         29.0004
  24426897.8964   -2676241.27945  -1988910.23245                  24426914.0484
        11.0004         11.7504
  22222389.6854    4183038.58847   3182232.70246                  22222400.2004
        26.5004         23.7504
  21137128.7314    -574160.92848   -420042.70247                  21137136.5524
        32.5004         31.0004
 00  5  9 19 18 30.0010000  0  6G 5G 6G10G17G24G30
  21052414.3884    2792205.74448   2128189.46847                  21052423.1344
        29.5004         29.2504
  22873030.0674   -1734392.72047  -1310094.02146                  22873040.3374
        21.7504         20.7504
  21424385.0284    -415016.07348   -302331.60647                  21424394.9464
        28.5004         29.0004
  24421664.8724   -2703742.66845  -2010339.79245                  24421681.4234
        11.0004         11.2504
  22231840.9114    4232705.53347   3220934.17046                  22231851.2864
        26.7504         23.7504
  21137142.2784    -574090.06448   -419987.48247                  21137150.1574
        32.0004         31.0004
 00  5  9 19 18 45.0010000  0  6G 5G 6G10G17G24G30
  21059575.8804    2829840.23448   2157515.01647                  21059584.6494
        30.0004         29.5004
  22869578.9974   -1752526.52547  -1324224.22646                  22869589.1494
        21.7504         20.7504
  21424884.4744    -412392.70748   -300287.41047                  21424894.2864
        28.5004         29.0004
  24416441.7084   -2731187.67545  -2031725.43645                  24416457.9894
        10.7504         11.7504
  22241300.5524    4282416.67347   3259670.07346                  22241310.7744
        26.7504         23.7504
  21137183.4274    -573872.17648   -419817.70047                  21137191.4584
        32.5004         30.7504
 00  5  9 19 19  0.0010000  0  6G 5G 6G10G17G24G30
  21066763.3174    2867609.49848   2186945.57347                  21066771.9584
        30.2504         29.7504
  22866132.4974   -1770637.57247  -1338336.69846                  22866142.5094
        21.7504         20.7504
  21425413.8494    -409610.33848   -298119.32147                  21425423.7084
        29.0004         29.2504
  24411230.1384   -2758576.56745  -2053067.32345                  24411246.6064
        10.7504         11.5004
  22250768.7314    4332171.57747   3298440.07146                  22250779.0714
        26.5004         23.5004
  21137253.0994    -573507.34648   -419533.42947                  21137260.9544
        30.5004         31.0004
 00  5  9 19 19 15.0010000  0  6G 5G 6G10G17G24G30
  21073976.9584    2905516.75548   2216483.66347                  21073985.5874
        30.2504         30.0004
  22862691.0754   -1788722.37647  -1352428.71546                  22862701.0404
        21.7504         21.0004
  21425974.0604    -406665.47848   -295824.61347                  21425983.7904
        29.0004         29.5004
  24406028.9504   -2785905.84545  -2074362.77446                  24406045.3024
        10.7504         12.0004
  22260245.8644    4381973.43947   3337246.67046                  22260256.2164
        26.7504         23.5004
  21137351.0994    -572992.00048   -419131.85547                  21137359.0134
        32.5004         31.2504
 00  5  9 19 19 30.0010000  0  6G 5G 6G10G17G24G30
  21081215.3884    2943555.87848   2246124.50147                  21081224.1814
        30.2504         30.0004
  22859253.3334   -1806786.87147  -1366504.92546                  22859263.4504
        21.5004         21.0004
  21426564.4114    -403564.00648   -293407.87147                  21426574.1884
        29.0004         29.2504
  24400838.9974   -2813181.41145  -2095616.38845                  24400855.8064
        11.0004         11.5004
  22269730.4354    4431816.13447   3376085.08546                  22269740.6924
        26.7504         23.5004
  21137476.6854    -572331.99448   -418617.56747                  21137484.6694
        32.2504         30.7504
 00  5  9 19 19 45.0010000  0  6G 5G 6G10G17G24G30
  21088480.0524    2981730.56548   2275870.98447                  21088488.8924
        30.0004         29.7504
  22855820.4354   -1824827.00347  -1380562.12946                  22855830.5174
        20.7504         20.5004
  21427184.9424    -400301.98248   -290866.01947                  21427194.6734
        29.7504         29.5004
  24395659.4664   -2840399.31145  -2116825.06245                  24395676.9074
        10.5004         11.5004
  22279223.8334    4481703.11047   3414958.00646                  22279234.2554
        26.7504         23.2504
  21137630.4744    -571523.29948   -417987.41747                  21137638.5524
        32.2504         30.7504
 00  5  9 19 20  0.0010000  0  6G 5G 6G10G17G24G30
  21095770.1144    3020040.48748   2305722.83047                  21095778.9784
        30.0004         29.7504
  22852392.0604   -1842842.84747  -1394600.42046                  22852402.0834
        21.0004         20.7504
  21427836.4274    -396879.42148   -288199.07747                  21427846.0754
        29.5004         29.5004
  24390490.9974   -2867559.62345  -2137988.83645                  24390507.2904
        10.5004         11.2504
  22288725.4034    4531634.05047   3453865.17846                  22288735.6144
        27.0004         23.7504
  21137812.7784    -570566.01048   -417241.47647                  21137820.7864
        32.5004         30.7504
 00  5  9 19 20 15.0010000  0  6G 5G 6G10G17G24G30
  21103086.1144    3058486.26148   2335680.54247                  21103094.8494
        30.0004         30.0004
  22848968.7004   -1860833.65047  -1408619.19646                  22848978.6654
        21.5004         21.0004
  21428518.5364    -393295.31948   -285406.25747                  21428528.1614
        29.7504         29.5004
  24385333.7714   -2894661.48345  -2159107.09645                  24385349.4314
        10.7504         11.5004
  22298235.3334    4581609.40547   3492806.96846                  22298245.5794
        26.7504         23.5004
  21138023.4424    -569459.16048   -416378.99847                  21138031.4154
        32.0004         31.0004
 00  5  9 19 20 30.0010000  0  6G 5G 6G10G17G24G30
  21110427.9894    3097067.43848   2365743.76347                  21110436.7824
        30.2504         30.0004
  22845549.9194   -1878799.60447  -1422618.60846                  22845559.6264
        21.0004         20.5004
  21429231.2314    -389549.91248   -282487.74647                  21429241.0094
        29.7504         29.5004
  24380186.9664   -2921705.12645  -2180179.98045                  24380204.4314
        11.0004         11.7504
  22307753.8494    4631628.62447   3531782.92746                  22307764.2594
        26.7504         23.7504
  21138262.3964    -568202.92348   -415400.11347                  21138270.2864
        31.7504         31.0004
 00  5  9 19 20 45.0010000  0  6G 5G 6G10G17G24G30
  21117795.0754    3135782.27448   2395911.13347                  21117803.7864
        29.7504         30.0004
  22842135.5604   -1896742.28247  -1436599.88346                  22842145.5954
        21.0004         20.7504
  21429974.2554    -385644.79148   -279444.78847                  21429983.9384
        30.0004         29.5004
  24375051.0674   -2948692.13345  -2201208.74145                  24375067.7944
        10.5004         11.7504
  22317280.2784    4681689.97947   3570791.72146                  22317290.6534
        26.7504         23.5004
  21138529.6224    -566798.62548   -414305.85547                  21138537.5134
        28.7504         31.0004
 00  5  9 19 21  0.0010000  0  6G 5G 6G10G17G24G30
  21125188.2244    3174632.79648   2426184.23747                  21125197.1814
        30.0004         30.2504
  22838726.0444   -1914659.39847  -1450561.23446                  22838736.0564
        21.0004         20.7504
  21430748.1694    -381577.48648   -276275.44847                  21430757.7004
        30.0004         29.5004
  24369927.4034   -2975620.22345  -2222191.57746                  24369943.7904
        10.5004         12.0004
  22326814.9424    4731795.20047   3609834.70746                  22326825.4704
        26.2504         23.5004
  21138825.6064    -565244.02948   -413094.48347                  21138833.3214
        29.2504         31.2504
 00  5  9 19 21 15.0010000  0  6G 5G 6G10G17G24G30
  21132606.6694    3213617.50248   2456561.89647                  21132615.5444
        30.2504         30.2504
  22835320.9504   -1932552.10747  -1464503.58146                  22835330.9624
        21.0004         20.5004
  21431552.8644    -377349.25648   -272980.71547                  21431562.4664
        29.5004         29.2504
  24364814.0054   -3002490.52545  -2243129.40945                  24364829.7824
        11.5004         11.7504
  22336357.7634    4781943.01547   3648910.86346                  22336368.5364
        26.2504         23.2504
  21139149.7864    -563540.15447   -411766.79447                  21139157.5834
        26.5004         31.2504
 00  5  9 19 21 30.0010000  0  6G 5G 6G10G17G24G30
  21140050.8644    3252735.39948   2487043.33647                  21140059.7984
        30.2504         30.2504
  22831920.5054   -1950421.13847  -1478427.46446                  22831930.3884
        21.2504         20.5004
  21432387.9504    -372960.96848   -269561.26247                  21432397.5754
        29.5004         29.2504
  24359711.9424   -3029303.80745  -2264022.79646                  24359728.2354
        10.7504         12.0004
  22345908.4894    4832132.27947   3688019.32746                  22345919.1344
        26.7504         23.5004
  21139502.3884    -561687.76347   -410323.37347                  21139510.2084
        27.5004         31.2504
 00  5  9 19 21 45.0010000  0  6G 5G 6G10G17G24G30
  21147519.9354    3291986.53248   2517628.60047                  21147528.9854
        30.2504         30.5004
  22828524.6224   -1968266.25847  -1492332.72546                  22828534.6344
        20.7504         20.5004
  21433253.5284    -368412.15148   -266016.72147                  21433263.0484
        29.5004         29.2504
  24354619.7554   -3056059.76845  -2284871.50745                  24354636.5054
        11.0004         11.5004
  22355467.2244    4882362.98147   3727160.08446                  22355477.9854
        26.2504         23.5004
  21139883.1924    -559686.46548   -408763.92747                  21139890.8494
        28.7504         31.2504
 00  5  9 19 22  0.0010000  0  6G 5G 6G10G17G24G30
  21155014.9974    3331373.10248   2548319.40147                  21155023.9544
        30.0004         30.2504
  22825134.0674   -1986084.96347  -1506217.39846                  22825144.0214
        21.0004         21.0004
  21434150.0524    -363700.36148   -262345.18847                  21434159.6424
        29.2504         29.0004
  24349539.8804   -3082755.89345  -2305673.60145                  24349555.6574
        10.5004         11.7504
  22365034.2394    4932637.15747   3766334.70946                  22365044.8254
        26.5004         23.5004
  21140292.8724    -557533.71147   -407086.45847                  21140300.6104
        26.7504         31.2504
 00  5  9 19 22 15.0010000  0  6G 5G 6G10G17G24G30
  21162535.1614    3370890.93248   2579112.48147                  21162544.2244
        30.0004         30.2504
  22821747.3494   -2003881.21647  -1520084.58446                  22821757.2674
        21.0004         20.5004
  21435076.9114    -358829.54448   -258549.74047                  21435086.5014
        29.5004         29.0004
  24344470.0214   -3109396.25545  -2326432.23145                  24344487.2044
        10.0004         11.7504
  22374608.5524    4982950.69747   3805540.01346                  22374618.8924
        26.5004         23.2504
  21140730.5284    -555233.44348   -405294.04647                  21140738.1034
        29.2504         31.2504
 00  5  9 19 22 30.0010000  0  6G 5G 6G10G17G24G30
  21170079.7554    3410538.09248   2610006.33747                  21170088.7714
        30.0004         30.2504
  22818364.7244   -2021656.62647  -1533935.52346                  22818374.8414
        21.0004         21.0004
  21436033.8964    -353801.39948   -254631.69547                  21436043.3104
        29.0004         29.0004
  24339411.5994   -3135982.46445  -2347148.68845                  24339427.8104
        11.2504         11.5004
  22384190.0524    5033301.57947   3844774.41346                  22384200.6614
        26.2504         23.2504
  21141195.9584    -552787.15748   -403387.85047                  21141203.7204
        30.0004         31.0004
 00  5  9 19 22 45.0010000  0  6G 5G 6G10G17G24G30
  21177649.2714    3450316.63248   2641002.56547                  21177658.2634
        29.5004         30.2504
  22814986.8174   -2039408.91347  -1547768.45046                  22814996.8534
        21.5004         21.0004
  21437020.9744    -348613.63348   -250589.27847                  21437030.4934
        29.5004         29.0004
  24334362.5994   -3162512.23845  -2367821.15546                  24334378.9624
        10.5004         12.0004
  22393778.9504    5083691.76447   3884039.43446                  22393789.4194
        26.2504         23.2504
  21141689.8414    -550192.62748   -401366.14647                  21141697.6494
        32.5004         31.2504
 00  5  9 19 23  0.0010000  0  6G 5G 6G10G17G24G30
  21185244.0604    3490227.96648   2672102.27647                  21185253.0404
        30.0004         30.2504
  22811613.3104   -2057136.41347  -1561582.05846                  22811622.9934
        21.2504         21.0004
  21438038.9274    -343264.50548   -246421.12147                  21438048.2824
        29.5004         29.0004
  24329325.1694   -3188983.90345  -2388448.32445                  24329341.2634
        10.7504         11.7504
  22403375.4114    5134122.64947   3923336.17146                  22403386.0914
        26.2504         23.2504
  21142212.1064    -547448.07148   -399227.53147                  21142219.9974
        32.2504         30.7504
 00  5  9 19 23 15.0010000  0  6G 5G 6G10G17G24G30
  21192864.0754    3530270.84948   2703304.48447                  21192873.0914
        29.7504         30.0004
  22808244.3334   -2074840.08247  -1575377.10146                  22808254.0054
        21.2504         20.7504
  21439087.5054    -337755.05648   -242128.03647                  21439097.0134
        29.5004         29.2504
  24324298.3174   -3215398.45245  -2409031.02245                  24324314.1184
        10.7504         11.7504
  22412979.9744    5184592.85747   3962663.55046                  22412990.7004
        26.2504         23.7504
  21142762.4504    -544554.40148   -396972.72647                  21142770.5174
        32.2504         31.0004
 00  5  9 19 23 30.0010000  0  6G 5G 6G10G17G24G30
  21200508.9974    3570444.33948   2734608.46947                  21200518.1424
        29.7504         30.2504
  22804880.0834   -2092520.63747  -1589154.11946                  22804890.2004
        21.2504         21.2504
  21440166.1534    -332085.88148   -237710.49047                  21440175.6034
        29.7504         29.5004
  24319282.3254   -3241756.69745  -2429569.83045                  24319298.9114
        10.5004         11.7504
  22422591.3804    5235101.44447   4002020.83146                  22422602.3644
        26.2504         23.5004
  21143341.5604    -541512.22348   -394602.20047                  21143349.5214
        32.2504         30.7504
 00  5  9 19 23 45.0010000  0  6G 5G 6G10G17G24G30
  21208177.9034    3610745.94248   2766012.28347                  21208187.0014
        29.7504         30.2504
  22801519.3964   -2110180.24447  -1602914.82846                  22801529.4424
        21.7504         21.0004
  21441274.9424    -326259.11948   -233170.14847                  21441284.5324
        29.5004         29.5004
  24314277.0674   -3268060.72545  -2450066.35645                  24314293.8764
        10.7504         11.5004
  22432209.7164    5285645.82847   4041406.01146                  22432220.4544
        26.0004         23.2504
  21143948.2554    -538323.83848   -392117.74647                  21143956.2634
        32.0004         30.7504
 00  5  9 19 24  0.0010000  0  6G 5G 6G10G17G24G30
  21215872.2314    3651178.73148   2797518.31647                  21215881.4114
        29.7504         30.2504
  22798163.3174   -2127815.58147  -1616656.62446                  22798173.0134
        21.7504         21.2504
  21442414.2474    -320271.61348   -228504.55347                  21442423.7314
        29.5004         29.2504
  24309282.0994   -3294307.32145  -2470518.18346                  24309298.2984
        10.5004         12.0004
  22441835.5134    5336228.97647   4080821.39646                  22441846.0994
        26.0004         23.2504
  21144583.4274    -534985.63048   -389516.54847                  21144591.3884
        32.0004         30.5004
 00  5  9 19 24 15.0010000  0  6G 5G 6G10G17G24G30
  21223591.5214    3691744.41748   2829127.90347                  21223600.6064
        30.0004         30.2504
  22794812.5524   -2145424.68947  -1630377.98546                  22794822.3534
        21.5004         21.2504
  21443584.6304    -314121.31548   -223712.10947                  21443594.0794
        29.7504         29.7504
  24304298.8334   -3320494.48345  -2490923.65445                  24304315.7354
        10.5004         11.7504
  22451468.7314    5386852.67847   4120268.38046                  22451479.4934
        25.5004         23.2504
  21145247.5914    -531495.77448   -386797.18547                  21145255.6344
        32.2504         30.7504
 00  5  9 19 24 30.0010000  0  6G 5G 6G10G17G24G30
  21231336.3884    3732443.29348   2860841.27947                  21231345.4504
        29.7504         30.2504
  22791466.7944   -2163006.98247  -1644078.43846                  22791476.7004
        21.7504         21.2504
  21444786.2864    -307807.57548   -218792.30647                  21444795.7824
        29.5004         29.7504
  24299326.8884   -3346621.63445  -2511282.38846                  24299343.4854
        10.7504         12.0004
  22461110.0054    5437517.17447   4159747.15246                  22461120.7784
        25.7504         23.0004
  21145940.6464    -527853.47548   -383959.03447                  21145948.6774
        32.0004         30.7504
 00  5  9 19 24 45.0010000  0  6G 5G 6G10G17G24G30
  21239106.2314    3773273.78548   2892657.21747                  21239115.2944
        29.7504         30.0004
  22788125.7004   -2180563.68947  -1657758.95946                  22788135.6304
        21.7504         21.5004
  21446018.4664    -301331.72448   -213746.17947                  21446027.9154
        29.7504         29.5004
  24294366.3174   -3372690.01945  -2531595.30446                  24294382.7634
        10.7504         12.2504
  22470758.7554    5488220.76047   4199256.38746                  22470769.5994
        25.7504         23.2504
  21146662.5364    -524060.04348   -381003.11847                  21146670.4744
        32.2504         30.7504
 00  5  9 19 25  0.0010000  0  6G 5G 6G10G17G24G30
  21246900.8884    3814235.26648   2924575.21747                  21246909.8564
        29.5004         30.0004
  22784789.5524   -2198095.19547  -1671419.84346                  22784799.5404
        22.0004         21.5004
  21447281.4114    -294694.15248   -208574.04147                  21447290.8374
        29.7504         29.7504
  24289416.6694   -3398699.98345  -2551862.73646                  24289432.4114
        10.7504         12.0004
  22480414.6144    5538962.89847   4238795.66946                  22480425.4934
        25.7504         23.5004
  21147412.9664    -520115.82748   -377929.70947                  21147420.9744
        32.0004         30.7504
 00  5  9 19 25 15.0010000  0  6G 5G 6G10G17G24G30
  21254719.6224    3855323.00848   2956591.60447                  21254728.8374
        29.5004         29.7504
  22781457.3024   -2215605.94647  -1685064.56546                  22781467.2434
        21.5004         21.5004
  21448574.3724    -287899.41848   -203279.43747                  21448583.9504
        29.7504         29.7504
  24284477.2864   -3424656.09345  -2572088.16646                  24284492.8534
        10.7504         12.2504
  22490076.8024    5589738.76147   4278361.21846                  22490087.8564
        25.5004         23.2504
  21148191.5834    -516025.25948   -374742.25947                  21148199.4974
        32.0004         30.7504
 00  5  9 19 25 30.0010000  0  6G 5G 6G10G17G24G30
  21262562.8104    3896538.41548   2988707.46547                  21262572.0244
        29.0004         29.7504
  22778129.3964   -2233094.22147  -1698691.76746                  22778139.1964
        22.0004         21.7504
  21449897.6064    -280945.83648   -197861.05447                  21449907.1144
        29.2504         29.7504
  24279548.3024   -3450556.60845  -2592270.28046                  24279564.6534
        11.0004         12.2504
  22499745.8024    5640549.69647   4317954.10046                  22499756.5634
        26.0004         22.7504
  21148998.1614    -511786.50948   -371439.34047                  21149006.0754
        32.2504         30.7504
 00  5  9 19 25 45.0010000  0  6G 5G 6G10G17G24G30
  21270430.0054    3937881.17048   3020922.56447                  21270439.1144
        29.0004         29.5004
  22774805.8024   -2250560.15547  -1712301.55546                  22774815.3684
        22.2504         21.7504
  21451251.1854    -273833.42448   -192318.90747                  21451260.7984
        29.5004         29.7504
  24274630.5054   -3476401.67645  -2612409.19246                  24274647.1264
        10.7504         12.0004
  22509421.6694    5691395.34447   4357574.03546                  22509432.4194
        25.5004         23.0004
  21149832.8414    -507399.67348   -368021.03147                  21149840.8254
        32.2504         30.5004
 00  5  9 19 26  0.0010000  0  6G 5G 6G10G17G24G30
  21278321.2394    3979349.78048   3053235.72947                  21278330.1034
        29.0004         29.7504
  22771486.0284   -2268004.89447  -1725894.83246                  22771496.0174
        22.0004         21.7504
  21452634.5604    -266563.34248   -186653.89647                  21452644.3024
        29.2504         29.7504
  24269722.4424   -3502192.54845  -2632505.88546                  24269738.8534
        11.2504         12.0004
  22519103.7634    5742274.13747   4397219.79146                  22519114.4424
        25.5004         22.7504
  21150695.6384    -502866.09048   -364488.37847                  21150703.5994
        32.0004         30.7504
 00  5  9 19 26 15.0010000  0  6G 5G 6G10G17G24G30
  21286237.6064    4020950.46548   3085651.80647                  21286246.7864
        29.2504         29.7504
  22768171.6534   -2285421.95047  -1739466.53446                  22768181.5484
        22.2504         21.7504
  21454049.1694    -259129.10548   -180860.98147                  21454058.8414
        29.2504         29.7504
  24264826.1464   -3527922.76445  -2652555.31446                  24264842.4974
        10.7504         12.0004
  22528793.1064    5793192.29047   4436896.21546                  22528804.2084
        25.5004         23.0004
  21151587.5914    -498178.99948   -360836.10247                  21151595.6104
        32.2504         30.7504
 00  5  9 19 26 30.0010000  0  6G 5G 6G10G17G24G30
  21294178.7634    4062681.64748   3118169.57647                  21294187.7204
        28.7504         29.7504
  22764862.4974   -2302812.60847  -1753017.67246                  22764872.5914
        22.7504         22.2504
  21455494.8644    -251532.10948   -174941.23347                  21455504.4424
        29.5004         29.7504
  24259940.8174   -3553593.58145  -2672558.43146                  24259957.3924
        11.5004         12.5004
  22538489.5444    5844148.27447   4476602.12646                  22538500.5524
        24.7504         22.7504
  21152508.5674    -493339.71548   -357065.23747                  21152516.5754
        32.2504         30.7504
 00  5  9 19 26 45.0010000  0  6G 5G 6G10G17G24G30
  21302144.9114    4104542.84648   3150788.65847                  21302153.8804
        29.0004         29.5004
  22761558.1464   -2320177.18647  -1766548.48546                  22761568.0754
        22.5004         22.2504
  21456971.5364    -243772.57848   -168894.83447                  21456980.9384
        29.5004         29.2504
  24255067.5754   -3579205.29845  -2692515.50946                  24255082.9784
        11.7504         12.2504
  22548193.5444    5895141.42947   4516336.99846                  22548204.5994
        24.2504         22.2504
  21153458.4744    -488348.34648   -353175.86547                  21153466.4704
        31.7504         31.0004
 00  5  9 19 27  0.0010000  0  6G 5G 6G10G17G24G30
  21310135.3024    4146533.27248   3183508.43447                  21310144.4234
        29.0004         29.5004
  22758258.6224   -2337516.12347  -1780059.31646                  22758268.5634
        22.5004         22.2504
  21458478.9354    -235851.06448   -162722.21447                  21458488.6184
        29.2504         29.7504
  24250204.7944   -3604758.41645  -2712426.93646                  24250220.4314
        11.5004         12.5004
  22557903.9744    5946171.05247   4556100.28446                  22557915.0634
        24.5004         22.5004
  21154436.8804    -483205.53348   -349168.47947                  21154444.9354
        32.0004         30.7504
 00  5  9 19 27 15.0010000  0  6G 5G 6G10G17G24G30
  21318150.2714    4188651.39848   3216327.71547                  21318159.4974
        28.7504         29.5004
  22754963.5134   -2354830.51247  -1793551.01846                  22754973.4544
        23.0004         22.5004
  21460016.8334    -227768.70248   -156424.25747                  21460026.3994
        29.5004         29.7504
  24245352.6854   -3630254.11045  -2732293.58946                  24245367.8994
        11.7504         12.7504
  22567621.0364    5997235.56747   4595890.76346                  22567632.1034
        24.2504         22.2504
  21155444.2084    -477912.32848   -345043.91247                  21155452.2744
        32.2504         30.7504
 00  5  9 19 27 30.0010000  0  6G 5G 6G10G17G24G30
  21326189.3254    4230897.41948   3249246.65247                  21326198.5404
        28.7504         29.5004
  22751673.3644   -2372119.94047  -1807023.26946                  22751683.2944
        23.2504         22.2504
  21461585.6534    -219525.20148   -150000.73947                  21461595.2784
        29.2504         29.5004
  24240512.2634   -3655691.94745  -2752115.17846                  24240527.6184
        11.7504         13.0004
  22577345.0754    6048335.15247   4635708.56746                  22577356.2004
        24.2504         22.0004
  21156480.2634    -472468.23648   -340801.76747                  21156488.3174
        31.7504         30.7504
 00  5  9 19 27 45.0010000  0  6G 5G 6G10G17G24G30
  21334252.4584    4273268.77048   3282263.25347                  21334261.6734
        28.7504         29.5004
  22748387.8494   -2389386.71447  -1820477.87046                  22748397.9664
        23.0004         22.7504
  21463184.4034    -211122.82148   -143453.41747                  21463194.0404
        29.2504         29.7504
  24235682.0054   -3681074.16746  -2771893.44846                  24235697.5244
        12.5004         13.2504
  22587075.5054    6099467.17147   4675551.64446                  22587086.7944
        24.2504         22.0004
  21157544.4194    -466875.52548   -336443.81647                  21157552.5094
        32.0004         30.7504
 00  5  9 19 28  0.0010000  0  6G 5G 6G10G17G24G30
  21342339.3024    4315765.92148   3315377.87847                  21342348.6344
        28.7504         29.5004
  22745106.4424   -2406630.12947  -1833914.26946                  22745116.4664
        23.2504         22.5004
  21464813.9354    -202560.95548   -136781.81747                  21464823.6064
        29.5004         29.5004
  24230862.9034   -3706400.27945  -2791627.96146                  24230878.9854
        11.7504         12.5004
  22596811.6924    6150631.99047   4715420.27446                  22596822.9234
        24.2504         22.0004
  21158637.0754    -461133.51948   -331969.53247                  21158645.2824
        31.7504         30.7504
 00  5  9 19 28 15.0010000  0  6G 5G 6G10G17G24G30
  21350450.6384    4358390.75048   3348591.99147                  21350459.8644
        28.7504         29.5004
  22741829.8964   -2423847.90547  -1847330.68946                  22741839.8254
        23.7504         22.7504
  21466473.7244    -193837.22148   -129984.08747                  21466483.2314
        29.2504         29.5004
  24226054.3494   -3731667.92646  -2811316.93146                  24226069.2354
        12.5004         13.0004
  22606554.5284    6201831.61547   4755316.02746                  22606565.4194
        23.7504         21.5004
  21159758.6224    -455239.92148   -327377.12547                  21159766.7944
        31.7504         30.5004
 00  5  9 19 28 30.0010000  0  6G 5G 6G10G17G24G30
  21358585.8334    4401141.70248   3381904.38147                  21358595.1654
        28.2504         29.5004
  22738558.3564   -2441041.36847  -1860728.16546                  22738568.2514
        23.5004         22.7504
  21468164.4504    -184953.03548   -123061.33247                  21468174.0524
        29.5004         29.5004
  24221256.8254   -3756878.45146  -2830961.40946                  24221271.4314
        12.5004         12.5004
  22616303.9274    6253064.39147   4795237.62746                  22616314.9584
        23.7504         21.5004
  21160908.7944    -449196.00948   -322667.58647                  21160916.8724
        31.7504         30.5004
 00  5  9 19 28 45.0010000  0  6G 5G 6G10G17G24G30
  21366745.5214    4444020.67848   3415316.53347                  21366754.8644
        28.7504         29.7504
  22735291.3804   -2458208.19647  -1874104.88946                  22735301.4744
        23.5004         22.7504
  21469885.8254    -175906.34848   -116011.95047                  21469895.3564
        29.5004         29.5004
  24216470.5054   -3782029.64646  -2850559.62946                  24216485.6144
        12.5004         12.7504
  22626059.8884    6304332.22047   4835186.53446                  22626071.3294
        23.7504         21.7504
  21162087.9664    -442999.58648   -317839.21247                  21162096.0564
        31.7504         30.5004
 00  5  9 19 29  0.0010000  0  6G 5G 6G10G17G24G30
  21374929.4584    4487027.61348   3448828.38947                  21374938.8024
        28.5004         29.7504
  22732029.6384   -2475348.17747  -1887460.69746                  22732039.4854
        23.5004         22.7504
  21471638.3964    -166696.80848   -108835.66847                  21471648.2084
        29.5004         29.5004
  24211696.0834   -3807121.28746  -2870111.44446                  24211710.8414
        12.7504         12.7504
  22635822.5604    6355635.07747   4875162.73146                  22635833.7554
        23.5004         21.5004
  21163296.2554    -436650.26548   -312891.69747                  21163304.2984
        32.0004         30.2504
 00  5  9 19 29 15.0010000  0  6G 5G 6G10G17G24G30
  21383137.4664    4530161.72048   3482439.34147                  21383146.8334
        28.5004         29.2504
  22728772.9504   -2492461.84647  -1900795.99646                  22728782.7634
        23.5004         22.7504
  21473421.6464    -157324.98748   -101532.93947                  21473431.3534
        29.0004         29.5004
  24206931.5994   -3832153.99146  -2889617.34546                  24206946.4854
        12.5004         13.0004
  22645591.7244    6406972.09747   4915165.54746                  22645602.9894
        23.2504         21.5004
  21164533.2784    -430148.58548   -307825.45847                  21164541.4384
        31.7504         30.5004
 00  5  9 19 29 30.0010000  0  6G 5G 6G10G17G24G30
  21391370.0364    4573423.61148   3516149.86447                  21391379.3804
        28.7504         29.5004
  22725521.5524   -2509548.15947  -1914109.98046                  22725531.2944
        23.2504         23.0004
  21475236.1924    -147790.04448    -94103.10047                  21475245.8294
        29.2504         29.5004
  24202179.8564   -3857126.79246  -2909076.57846                  24202194.0524
        12.7504         13.0004
  22655367.5754    6458343.94347   4955195.50846                  22655379.1104
        23.5004         21.2504
  21165799.8884    -423493.61548   -302639.77447                  21165807.9664
        32.0004         30.5004
 00  5  9 19 29 45.0010000  0  6G 5G 6G10G17G24G30
  21399626.2394    4616809.64748   3549957.12447                  21399635.4784
        28.7504         29.5004
  22722274.8644   -2526610.51947  -1927405.30846                  22722284.5834
        23.2504         22.7504
  21477080.9744    -138095.27848    -86548.72447                  21477090.6224
        29.0004         29.5004
  24197438.1384   -3882043.11346  -2928491.79046                  24197453.2244
        12.7504         13.7504
  22665149.1384    6509746.92347   4995249.72846                  22665160.5324
        23.2504         21.0004
  21167094.7084    -416688.74348   -297337.28447                  21167102.6224
        32.0004         30.5004
 00  5  9 19 30  0.0010000  0  6G 5G 6G10G17G24G30
  21407905.5284    4660317.83048   3583859.56447                  21407914.8134
        28.7504         29.5004
  22719032.1144   -2543650.63447  -1940683.29246                  22719042.0094
        23.2504         23.0004
  21478955.8884    -128242.51548    -78871.23547                  21478965.4784
        29.0004         29.5004
  24192707.2554   -3906904.63246  -2947864.28146                  24192722.2354
        13.0004         13.2504
  22674936.3564    6561179.07947   5035326.68046                  22674947.6464
        23.2504         21.0004
  21168417.8724    -409735.72748   -291919.35647                  21168425.9274
        32.0004         30.2504
 00  5  9 19 30 15.0010000  0  6G 5G 6G10G17G24G30
  21416208.9974    4703951.73548   3617859.96647                  21416218.3174
        28.5004         29.5004
  22715794.4584   -2560664.66447  -1953940.95546                  22715804.5524
        23.5004         23.2504
  21480861.5754    -118227.96248    -71067.67347                  21480871.2004
        28.7504         29.5004
  24187987.3644   -3931707.52646  -2967191.12646                  24188002.9074
        12.5004         13.2504
  22684729.9894    6612643.94247   5075429.12146                  22684741.4544
        23.2504         21.0004
  21169769.8804    -402630.52648   -286382.84447                  21169777.9114
        32.0004         30.5004
 00  5  9 19 30 30.0010000  0  6G 5G 6G10G17G24G30
  21424536.1854    4747710.97348   3651958.03247                  21424545.6224
        28.2504         29.2504
  22712561.8174   -2577652.61747  -1967178.29146                  22712571.8884
        23.7504         23.2504
  21482798.0214    -108051.76748    -63138.16147                  21482807.6924
        28.7504         29.5004
  24183278.5134   -3956451.92446  -2986472.34846                  24183294.9234
        13.5004         13.7504
  22694529.4424    6664141.08547   5115556.71546                  22694540.7674
        23.2504         21.0004
  21171151.0054    -395373.32248   -280727.88647                  21171158.9664
        32.2504         30.5004
 00  5  9 19 30 45.0020000  0  6G 5G 6G10G17G24G30
  21432886.8934    4791594.63948   3686153.05547                  21432896.4474
        28.0004         29.0004
  22709332.9944   -2594619.14547  -1980398.94046                  22709343.0414
        23.5004         23.2504
  21484764.7754     -97716.71848    -55084.86647                  21484774.3774
        29.5004         30.0004
  24178579.9324   -3981142.98946  -3005712.05646                  24178594.5494
        14.0004         13.7504
  22704335.2364    6715670.03047   5155709.09046                  22704346.4904
        23.2504         20.7504
  21172560.1744    -387967.13548   -274956.83847                  21172568.0534
        32.2504         30.5004
 00  5  9 19 31  0.0020000  0  6G 5G 6G10G17G24G30
  21441260.1824    4835596.73347   3720440.35947                  21441269.6194
        27.7504         29.0004
  22706109.2214   -2611561.81147  -1993600.98846                  22706119.1274
        23.7504         23.0004
  21486761.3694     -87224.19148    -46908.86147                  21486771.0534
        29.0004         29.7504
  24173892.4084   -4005777.36346  -3024907.56846                  24173907.6464
        12.7504         13.5004
  22714145.6504    6767223.87947   5195880.87146                  22714156.8224
        23.0004         20.7504
  21173997.8144    -380412.67148   -269070.25147                  21174005.7994
        32.2504         30.7504
 00  5  9 19 31 15.0020000  0  6G 5G 6G10G17G24G30
  21449656.9244    4879721.76947   3754823.46547                  21449666.3614
        27.7504         28.7504
  22702889.4244   -2628479.83247  -2006783.83746                  22702899.3654
        23.5004         23.0004
  21488788.5884     -76571.61348    -38608.14047                  21488798.4594
        29.5004         29.7504
  24169215.1044   -4030354.79346  -3044058.70046                  24169230.8344
        13.5004         14.0004
  22723961.7524    6818807.67247   5236075.98546                  22723973.0534
        22.7504         20.5004
  21175464.0644    -372707.64348   -263066.34347                  21175471.9324
        32.0004         31.0004
 00  5  9 19 31 30.0020000  0  6G 5G 6G10G17G24G30
  21458078.2604    4923975.17947   3789306.60047                  21458087.5804
        27.2504         28.5004
  22699675.7604   -2645367.48647  -2019943.02546                  22699685.6784
        23.5004         23.2504
  21490847.2364     -65753.31348    -30178.28847                  21490857.0024
        29.5004         30.2504
  24164549.9084   -4054869.55446  -3063161.01946                  24164564.4674
        13.5004         13.7504
  22733784.4714    6870426.80147   5276298.62646                  22733795.6664
        23.0004         20.7504
  21176960.1434    -364846.31948   -256940.64147                  21176967.9984
        32.2504         31.0004
 00  5  9 19 31 45.0020000  0  6G 5G 6G10G17G24G30
  21466522.1044    4968348.92347   3823883.50447                  21466531.5884
        27.0004         28.5004
  22696466.5494   -2662232.51947  -2033084.58246                  22696476.4674
        23.5004         23.2504
  21492935.9084     -54777.06248    -21625.36447                  21492945.6274
        29.5004         30.2504
  24159895.5024   -4079329.45846  -3082220.58046                  24159910.6464
        13.2504         13.7504
  22743612.6114    6922073.15347   5316542.48946                  22743623.9004
        22.7504         20.7504
  21178484.5024    -356836.38048   -250699.14047                  21178492.3814
        32.2504         31.0004
 00  5  9 19 32  0.0020000  0  6G 5G 6G10G17G24G30
  21474989.3774    5012844.92947   3858555.67347                  21474998.9084
        27.0004         28.2504
  22693262.0414   -2679072.59447  -2046206.69546                  22693272.0534
        23.7504         23.2504
  21495055.1354     -43640.78948    -12947.74747                  21495065.0064
        29.7504         30.2504
  24155251.7294   -4103732.22446  -3101235.61446                  24155267.2714
        14.0004         13.7504
  22753446.1584    6973748.80447   5356809.17246                  22753457.2364
        23.2504         21.0004
  21180037.3694    -348675.57348   -244340.07247                  21180045.4594
        32.5004         31.2504
 00  5  9 19 32 15.0020000  0  6G 5G 6G10G17G24G30
  21483479.4474    5057460.47747   3893320.99447                  21483489.1074
        26.7504         28.0004
  22690061.6744   -2695890.21747  -2059311.31646                  22690071.4634
        23.5004         23.0004
  21497204.3854     -32346.97148     -4147.36647                  21497214.0334
        29.7504         30.2504
  24150618.3074   -4128080.40646  -3120208.12746                  24150633.1584
        13.7504         13.7504
  22763284.5884    7025450.77147   5397096.37246                  22763295.8894
        23.0004         21.0004
  21181618.5024    -340366.36048   -237865.36847                  21181626.6394
        32.2504         31.2504
 00  5  9 19 32 30.0020000  0  6G 5G 6G10G17G24G30
  21491992.7444    5102198.25247   3928181.55447                  21492002.5104
        26.7504         28.0004
  22686866.2684   -2712682.35847  -2072396.06846                  22686876.1394
        23.7504         23.2504
  21499383.8304     -20892.53348      4778.18047                  21499393.4674
        30.0004         30.0004
  24145995.7834   -4152371.01346  -3139135.77346                  24146010.7054
        13.2504         14.2504
  22773128.9164    7077181.98147   5437406.35746                  22773140.2874
        23.5004         20.7504
  21183228.5884    -331905.70548   -231272.65547                  21183236.7954
        32.2504         31.0004
 00  5  9 19 32 45.0020000  0  6G 5G 6G10G17G24G30
  21500529.5104    5147058.62147   3963137.63947                  21500539.1354
        26.7504         28.0004
  22683675.8854   -2729448.20747  -2085460.34246                  22683685.7094
        23.5004         23.0004
  21501594.3694      -9276.83548     13829.37247                  21501604.0294
        29.7504         30.0004
  24141384.7364   -4176603.30846  -3158017.97646                  24141399.5414
        13.7504         14.5004
  22782978.7524    7128942.75947   5477739.37546                  22782989.9824
        23.2504         20.7504
  21184867.4474    -323292.88648   -224561.37747                  21184875.5494
        32.2504         31.2504
 00  5  9 19 33  0.0020000  0  6G 5G 6G10G17G24G30
  21509089.1274    5192040.23647   3998188.20247                  21509098.6004
        26.7504         27.7504
  22680490.1744   -2746188.83747  -2098504.96746                  22680500.1504
        23.5004         23.5004
  21503835.2134       2498.93948     23005.30247                  21503844.8504
        29.7504         30.2504
  24136783.9324   -4200778.42746  -3176855.63946                  24136799.2754
        13.2504         13.7504
  22792833.7294    7180731.83247   5518094.44646                  22792845.0414
        23.0004         20.7504
  21186535.2294    -314528.95648   -217732.35247                  21186543.4364
        32.5004         31.0004
 00  5  9 19 33 15.0020000  0  6G 5G 6G10G17G24G30
  21517671.9864    5237142.52747   4033332.80347                  21517681.4474
        27.2504         28.0004
  22677309.1354   -2762904.43647  -2111530.07246                  22677319.0064
        23.5004         23.2504
  21506106.4004      14434.46248     32305.71947                  21506116.1194
        29.0004         30.0004
  24132194.5184   -4224896.66246  -3195648.97746                  24132209.0184
        13.7504         14.2504
  22802694.4634    7232548.64747   5558471.13746                  22802705.8934
        23.0004         20.7504
  21188231.6194    -305614.13548   -210785.74247                  21188239.6044
        32.2504         31.0004
 00  5  9 19 33 30.0020000  0  6G 5G 6G10G17G24G30
  21526277.2914    5282362.89647   4068569.40647                  21526286.7994
        27.0004         28.0004
  22674132.6664   -2779597.26947  -2124537.45346                  22674142.5964
        23.5004         23.2504
  21508407.7364      26527.45548     41728.83747                  21508417.5374
        29.5004         29.7504
  24127615.1044   -4248960.33546  -3214399.78846                  24127630.3184
        12.7504         14.5004
  22812559.6114    7284390.49047   5598867.32546                  22812570.8424
        23.2504         20.7504
  21189956.3614    -296550.83748   -203723.44247                  21189964.3464
        32.5004         31.0004
 00  5  9 19 33 45.0020000  0  6G 5G 6G10G17G24G30
  21534905.3224    5327703.80347   4103899.93547                  21534914.8424
        26.7504         27.7504
  22670960.7834   -2796264.53347  -2137524.91146                  22670970.5614
        23.5004         23.5004
  21510739.3224      38780.62948     51276.76647                  21510749.1824
        29.0004         29.7504
  24123046.7834   -4272966.68946  -3233105.93546                  24123061.4124
        14.2504         14.2504
  22822430.0414    7336260.00247   5639285.07446                  22822441.4004
        23.5004         20.5004
  21191709.6664    -287336.26748   -196543.26747                  21191717.6624
        32.5004         31.0004
 00  5  9 19 34  0.0020000  0  6G 5G 6G10G17G24G30
  21543556.6894    5373165.43347   4139324.53747                  21543566.1274
        26.7504         28.0004
  22667794.1274   -2812905.75147  -2150492.06446                  22667803.8114
        23.7504         23.2504
  21513101.4244      51194.16448     60949.65547                  21513111.0144
        29.5004         29.7504
  24118489.6894   -4296915.31246  -3251767.10946                  24118503.9794
        13.0004         14.0004
  22832305.8464    7388157.10347   5679724.32646                  22832316.9824
        23.2504         20.5004
  21193492.2444    -277970.00848   -189244.89247                  21193500.2754
        32.7504         31.2504
 00  5  9 19 34 15.0020000  0  6G 5G 6G10G17G24G30
  21552230.9164    5418749.24247   4174844.34747                  21552240.4474
        26.7504         27.7504
  22664632.8074   -2829519.14347  -2163437.53946                  22664642.4324
        24.5004         23.2504
  21515494.6824      63769.60548     70748.69947                  21515504.4004
        29.0004         29.7504
  24113943.2214   -4320804.55746  -3270381.99946                  24113958.1434
        13.5004         14.5004
  22842187.1824    7440083.52147   5720186.41446                  22842198.8814
        23.0004         20.5004
  21195303.6744    -268450.25548   -181826.90847                  21195311.7644
        32.5004         31.0004
 00  5  9 19 34 30.0020000  0  6G 5G 6G10G17G24G30
  21560928.1584    5464453.25247   4210457.80647                  21560937.7254
        27.2504         28.0004
  22661476.2754   -2846106.29847  -2176362.56246                  22661486.2644
        24.2504         23.2504
  21517918.1824      76505.53048     80672.80247                  21517927.8774
        29.0004         30.0004
  24109408.2834   -4344636.01946  -3288951.86846                  24109422.8774
        14.0004         14.5004
  22852073.4864    7492037.09147   5760669.65646                  22852085.0104
        23.2504         20.7504
  21197144.0724    -258778.68048   -174290.62847                  21197152.1274
        32.5004         31.2504
 00  5  9 19 34 45.0020000  0  6G 5G 6G10G17G24G30
  21569648.1824    5510278.58247   4246165.81447                  21569657.5724
        27.0004         27.7504
  22658325.1114   -2862665.76047  -2189266.01146                  22658334.8074
        24.2504         23.2504
  21520372.4794      89403.52248     90723.18547                  21520381.9514
        29.7504         29.7504
  24104884.7214   -4368408.22546  -3307475.56746                  24104899.4554
        13.7504         14.0004
  22861965.6194    7544019.27147   5801175.20046                  22861976.9674
        23.2504         20.7504
  21199013.5884    -248953.73048   -166634.83347                  21199021.6544
        32.5004         31.2504
 00  5  9 19 35  0.0020000  0  6G 5G 6G10G17G24G30
  21578391.6824    5556225.28847   4281968.39247                  21578401.2834
        26.7504         27.7504
  22655179.2444   -2879197.11847  -2202147.56246                  22655189.0804
        24.5004         23.2504
  21522857.8694     102463.63248    100899.89847                  21522867.3304
        29.2504         29.7504
  24100371.9084   -4392120.98146  -3325952.94646                  24100386.4324
        13.2504         14.2504
  22871862.8854    7596029.94247   5841702.93646                  22871874.2214
        23.0004         20.5004
  21200912.7364    -238975.17448   -158859.34747                  21200920.8504
        32.5004         31.0004
 00  5  9 19 35 15.0020000  0  6G 5G 6G10G17G24G30
  21587158.2364    5602293.76247   4317865.85647                  21587167.7564
        26.7504         27.7504
  22652038.9634   -2895699.72547  -2215006.71146                  22652048.4944
        24.5004         23.2504
  21525374.2524     115686.51048    111203.44247                  21525383.8654
        29.5004         30.0004
  24095870.9474   -4415773.52846  -3344383.39646                  24095885.9634
        13.5004         14.5004
  22881765.6194    7648069.47947   5882253.16546                  22881777.2014
        23.5004         21.0004
  21202841.0644    -228842.25248   -150963.57547                  21202849.1074
        32.5004         31.0004
 00  5  9 19 35 30.0020000  0  6G 5G 6G10G17G24G30
  21595946.0644    5648472.86247   4353849.52147                  21595955.5844
        26.7504         27.5004
  22648901.8774   -2912184.40047  -2227851.89146                  22648911.3614
        24.0004         23.5004
  21527919.0574     129061.17548    121625.26447                  21527928.6004
        29.5004         29.7504
  24091379.5254   -4439376.69546  -3362775.38346                  24091393.5684
        14.2504         14.5004
  22891672.0644    7700126.86447   5922817.30346                  22891683.5884
        23.2504         20.7504
  21204796.5024    -218565.88748   -142956.02747                  21204804.5924
        32.5004         31.0004
 00  5  9 19 35 45.0020000  0  6G 5G 6G10G17G24G30
  21604756.2994    5694770.54147   4389925.58247                  21604765.7014
        27.0004         27.7504
  22645770.0574   -2928642.78347  -2240676.57446                  22645779.8934
        24.7504         23.7504
  21530494.7914     142595.92648    132171.82547                  21530504.4164
        29.2504         30.0004
  24086898.7524   -4462922.30246  -3381122.51446                  24086914.0964
        13.2504         14.0004
  22901583.2214    7752210.01147   5963401.51646                  22901594.8734
        22.7504         20.7504
  21206780.8614    -208137.69448   -134830.17747                  21206788.8694
        32.5004         31.2504
 00  5  9 19 36  0.0020000  0  6G 5G 6G10G17G24G30
  21613588.6974    5741185.05447   4426092.68747                  21613598.0644
        27.0004         27.5004
  22642642.9634   -2945076.22947  -2253481.83946                  22642652.4004
        24.2504         23.5004
  21533100.3854     156289.21948    142841.92747                  21533110.1394
        29.5004         30.0004
  24082428.8464   -4486411.81846  -3399425.91746                  24082443.3224
        14.2504         14.5004
  22911498.9794    7804317.12447   6004004.39946                  22911510.5844
        23.0004         20.7504
  21208793.9634    -197559.24048   -126587.23647                  21208801.9474
        32.5004         31.0004
 00  5  9 19 36 15.0020000  0  6G 5G 6G10G17G24G30
  21622443.2214    5787716.26947   4462350.72847                  21622452.6004
        27.0004         27.5004
  22639520.5104   -2961484.57447  -2266267.53446                  22639529.7714
        24.2504         23.7504
  21535736.4394     170141.13048    153635.62847                  21535746.2404
        29.5004         30.0004
  24077969.5574   -4509844.96946  -3417685.44746                  24077983.9514
        13.5004         14.2504
  22921419.1974    7856448.19347   6044625.95646                  22921430.7094
        22.7504         20.5004
  21210835.5184    -186830.33848   -118227.06847                  21210843.5724
        32.5004         31.0004
 00  5  9 19 36 30.0020000  0  6G 5G 6G10G17G24G30
  21631320.1044    5834364.96647   4498700.31547                  21631329.6584
        27.0004         27.5004
  22636402.8144   -2977866.66747  -2279032.77646                  22636412.3814
        24.7504         23.7504
  21538402.7134     184152.66548    164553.71247                  21538412.4904
        29.5004         30.0004
  24073521.4244   -4533220.80146  -3435900.27046                  24073536.6624
        13.5004         14.7504
  22931344.0804    7908604.13847   6085266.89946                  22931355.5454
        23.0004         20.2504
  21212905.9864    -175949.96948   -109748.87347                  21212914.0764
        32.2504         31.0004
 00  5  9 19 36 45.0020000  0  6G 5G 6G10G17G24G30
  21640219.8074    5881132.03147   4535142.13447                  21640229.2914
        27.0004         27.5004
  22633290.9554   -2994221.19147  -2291776.53246                  22633300.5804
        25.0004         23.7504
  21541099.6504     198324.92048    175597.02847                  21541109.2754
        29.5004         30.0004
  24069084.1044   -4556538.11346  -3454069.51146                  24069098.3344
        14.2504         14.5004
  22941274.0884    7960785.68247   6125927.77646                  22941285.5294
        23.0004         20.5004
  21215005.5804    -164916.82948   -101151.63547                  21215013.5884
        32.5004         31.2504
 00  5  9 19 37  0.0020000  0  6G 5G 6G10G17G24G30
  21649141.0964    5928014.02647   4571673.50847                  21649150.4864
        27.0004         27.5004
  22630183.3544   -3010551.19947  -2304501.19346                  22630193.0024
        25.0004         23.7504
  21543826.5334     212654.71648    186763.11047                  21543836.4514
        29.5004         30.0004
  24064657.3694   -4579800.03646  -3472195.59546                  24064672.4084
        13.5004         14.5004
  22951207.9474    8012989.62647   6166606.11246                  22951219.6004
        22.7504         20.5004
  21217133.7054    -153734.03848    -92437.78747                  21217141.7834
        32.2504         31.0004
 00  5  9 19 37 15.0020000  0  6G 5G 6G10G17G24G30
  21658084.7054    5975012.59347   4608295.72147                  21658094.0964
        27.0004         27.5004
  22627080.6824   -3026854.89247  -2317205.34646                  22627090.3304
        25.0004         24.2504
  21546583.6664     227143.84248    198053.34147                  21546593.5144
        29.2504         30.0004
  24060241.6504   -4603004.73146  -3490277.08346                  24060256.6894
        13.7504         14.7504
  22961146.6974    8065217.55047   6207303.13846                  22961158.7364
        22.7504         20.2504
  21219290.4164    -142399.64148    -83605.80047                  21219298.4004
        32.2504         31.0004
 00  5  9 19 37 30.0020000  0  6G 5G 6G10G17G24G30
  21667051.0104    6022130.70247   4645011.08447                  21667060.5414
        27.0004         27.5004
  22623983.9634   -3043128.95347  -2329886.40646                  22623993.6584
        25.0004         23.5004
  21549371.9324     241795.57548    209470.28247                  21549381.6864
        29.0004         30.0004
  24055837.4004   -4626148.96846  -3508311.44546                  24055852.4284
        13.5004         14.7504
  22971090.5024    8117472.35147   6248021.10546                  22971102.1434
        22.7504         20.2504
  21221476.8074    -130910.48648    -74653.22747                  21221484.8734
        32.5004         31.0004
 00  5  9 19 37 45.0020000  0  6G 5G 6G10G17G24G30
  21676039.3774    6069363.87447   4681816.10547                  21676048.8734
        27.0004         27.5004
  22620891.9794   -3059377.41047  -2342547.52146                  22620901.5214
        25.0004         24.0004
  21552189.9084     256605.51548    221010.49547                  21552199.6624
        29.5004         30.0004
  24051443.9004   -4649236.85946  -3526301.92346                  24051457.4634
        14.5004         14.7504
  22981038.6434    8169749.62447   6288756.58346                  22981050.0964
        22.2504         20.0004
  21223691.7134    -119270.81848    -65583.37347                  21223699.7794
        32.5004         31.2504
 00  5  9 19 38  0.0020000  0  6G 5G 6G10G17G24G30
  21685048.8074    6116709.38147   4718708.65847                  21685058.1394
        27.0004         27.2504
  22617804.4004   -3075602.62147  -2355190.52046                  22617813.8614
        25.2504         24.0004
  21555037.9394     271571.36548    232672.20047                  21555047.5184
        29.7504         30.0004
  24047060.4164   -4672270.79446  -3544250.35246                  24047075.0454
        13.2504         15.0004
  22990990.5334    8222046.76047   6329507.53146                  22991002.3384
        22.0004         20.2504
  21225935.0184    -107482.91648    -56398.01047                  21225943.0494
        32.2504         31.0004
 00  5  9 19 38 15.0020000  0  6G 5G 6G10G17G24G30
  21694080.9864    6164173.94247   4755693.98647                  21694090.2954
        27.2504         27.2504
  22614722.5024   -3091797.59347  -2367809.96446                  22614731.9284
        25.0004         24.2504
  21557916.9084     286700.10848    244460.83347                  21557926.4164
        29.7504         30.0004
  24042688.5574   -4695243.75346  -3562151.27246                  24042702.7054
        15.0004         14.5004
  23000947.4554    8274370.45547   6370279.18246                  23000958.9084
        22.0004         19.5004
  21228207.6744     -95539.82448    -47091.71747                  21228215.8114
        32.2504         31.0004
 00  5  9 19 38 30.0020000  0  6G 5G 6G10G17G24G30
  21703135.3544    6211754.05847   4792769.35247                  21703144.7094
        27.0004         27.5004
  22611645.9794   -3107965.36047  -2380408.20146                  22611655.1824
        24.7504         24.0004
  21560826.1114     301988.37948    256373.77947                  21560835.6894
        29.7504         30.0004
  24038327.9634   -4718159.03346  -3580007.24646                  24038342.6504
        13.2504         14.7504
  23010908.6744    8326717.33247   6411068.89346                  23010920.2094
        22.2504         19.7504
  21230509.3934     -83444.68748    -37666.94947                  21230517.5764
        32.2504         31.0004
 00  5  9 19 38 45.0020000  0  6G 5G 6G10G17G24G30
  21712210.8224    6259445.73047   4829931.64447                  21712220.4124
        27.0004         27.5004
  22608573.9004   -3124109.53947  -2392988.06046                  22608583.3264
        24.7504         24.2504
  21563765.1354     317432.37648    268408.06447                  21563774.7254
        29.5004         30.0004
  24033978.0024   -4741020.27846  -3597821.10446                  24033991.7754
        15.0004         15.0004
  23020873.7054    8379083.45547   6451873.60546                  23020885.6624
        22.0004         19.5004
  21232839.1584     -71201.23648    -28126.61447                  21232847.2364
        32.5004         31.0004
 00  5  9 19 39  0.0020000  0  6G 5G 6G10G17G24G30
  21721308.4394    6307254.04647   4867184.82647                  21721318.0414
        27.0004         27.2504
  22605507.1114   -3140224.75247  -2405545.35546                  22605516.6314
        25.0004         24.5004
  21566734.5184     333037.31948    280567.76247                  21566744.3074
        29.7504         30.2504
  24029638.9474   -4763822.09746  -3615588.68046                  24029653.1664
        14.0004         15.0004
  23030843.0414    8431473.80247   6492697.19046                  23030855.1154
        22.2504         19.7504
  21235198.2604     -58804.17348    -18466.57647                  21235206.2684
        32.2504         30.7504
 00  5  9 19 39 15.0020000  0  6G 5G 6G10G17G24G30
  21730427.5024    6355174.02447   4904525.02147                  21730437.2094
        27.0004         27.2504
  22602445.3224   -3156315.53547  -2418083.61046                  22602454.5374
        24.7504         24.2504
  21569733.7364     348798.55848    292849.24747                  21569743.6194
        29.7504         30.2504
  24025309.8934   -4786569.16246  -3633313.56546                  24025323.8544
        15.0004         15.2504
  23040816.4944    8483883.70047   6533535.99846                  23040828.3224
        22.5004         19.7504
  21237585.6584     -46258.05748     -8690.39847                  21237593.7604
        32.5004         30.7504
 00  5  9 19 39 30.0020000  0  6G 5G 6G10G17G24G30
  21739568.4944    6403210.14447   4941955.71347                  21739578.0964
        27.0004         27.5004
  22599388.9394   -3172377.05947  -2430599.05946                  22599398.5414
        24.7504         24.5004
  21572763.7684     364720.90848    305256.27647                  21572773.4284
        29.5004         30.2504
  24020992.1664   -4809256.78446  -3650992.16146                  24021006.6434
        13.7504         15.0004
  23050794.4554    8536317.44247   6574393.40646                  23050806.4944
        22.2504         19.5004
  21240002.4244     -33558.12048      1205.64247                  21240010.3614
        32.2504         30.7504
 00  5  9 19 39 45.0020000  0  6G 5G 6G10G17G24G30
  21748731.7134    6451365.51847   4979479.32947                  21748741.4324
        26.7504         27.5004
  22596338.5724   -3188405.85747  -2443089.01846                  22596348.0104
        25.0004         24.2504
  21575824.9794     380807.61548    317791.37147                  21575834.7564
        29.7504         30.2504
  24016687.3854   -4831881.55646  -3668621.77146                  24016701.1234
        15.0004         15.0004
  23060777.6044    8588778.24647   6615271.89146                  23060789.4554
        22.0004         19.5004
  21242449.0574     -20701.00748     11224.15747                  21242457.1464
        32.5004         30.7504
 00  5  9 19 40  0.0020000  0  6G 5G 6G10G17G24G30
  21757916.7754    6499631.53247   5017089.16147                  21757926.4714
        26.7504         27.2504
  22593293.1504   -3204410.20247  -2455559.91846                  22593302.6464
        25.2504         24.2504
  21578915.7364     397050.27348    330447.98947                  21578925.3854
        29.7504         30.0004
  24012392.1894   -4854451.84946  -3686208.91746                  24012406.1154
        14.7504         15.0004
  23070763.9864    8641257.51247   6656164.75946                  23070775.8614
        21.7504         19.5004
  21244924.0494      -7694.92348     21358.75547                  21244932.3264
        32.2504         30.7504
 00  5  9 19 40 15.0020000  0  6G 5G 6G10G17G24G30
  21767122.9394    6548010.15447   5054786.73447                  21767132.6934
        26.5004         27.2504
  22590252.5804   -3220387.73647  -2468009.92346                  22590262.0764
        25.5004         24.5004
  21582036.6504     413451.13548    343227.88347                  21582046.2754
        29.5004         30.0004
  24008107.7444   -4876965.37146  -3703751.86246                  24008121.2954
        14.5004         15.5004
  23080754.4164    8693757.44947   6697073.73646                  23080765.8224
        21.7504         19.2504
  21247427.7294       5462.06348     31610.93947                  21247435.8774
        32.0004         30.7504
 00  5  9 19 40 30.0020000  0  6G 5G 6G10G17G24G30
  21776350.6504    6596502.33847   5092572.79747                  21776360.2994
        26.5004         27.2504
  22587217.4714   -3236337.08547  -2480437.96946                  22587227.0494
        25.2504         24.5004
  21585187.9794     430011.26148    356131.87347                  21585197.6044
        29.7504         29.7504
  24003834.6974   -4899420.93746  -3721249.61346                  24003848.9514
        15.5004         15.2504
  23090749.0414    8746278.88347   6737999.46546                  23090760.7174
        21.7504         19.2504
  21249960.2834      18771.39048     41981.83047                  21249968.2914
        32.2504         30.7504
 00  5  9 19 40 45.0020000  0  6G 5G 6G10G17G24G30
  21785599.7524    6645105.80747   5130445.58347                  21785609.3544
        26.5004         27.2504
  22584187.3694   -3252260.11047  -2492845.50646                  22584197.0884
        25.2504         24.5004
  21588369.2604     446728.68348    369158.43447                  21588378.8264
        29.5004         30.0004
  23999571.9324   -4921820.39246  -3738703.65646                  23999585.9284
        14.2504         15.5004
  23100747.3384    8798819.63847   6778940.25046                  23100759.0254
        21.7504         19.2504
  21252521.7834      32231.15548     52469.94247                  21252529.7794
        31.7504         30.7504
 00  5  9 19 41  0.0020000  0  6G 5G 6G10G17G24G30
  21794869.7294    6693820.07747   5168404.70047                  21794879.2484
        26.7504         27.2504
  22581162.4554   -3268156.94547  -2505232.62546                  22581172.0334
        25.0004         24.5004
  21591580.2994     463603.09548    382307.32947                  21591589.8654
        29.7504         30.0004
  23995320.3694   -4944163.92846  -3756114.11346                  23995334.1664
        15.5004         15.5004
  23110749.1274    8851379.40547   6819895.84846                  23110760.9794
        21.7504         19.5004
  21255111.6354      45841.18648     63075.14847                  21255119.5614
        32.0004         30.7504
 00  5  9 19 41 15.0020000  0  6G 5G 6G10G17G24G30
  21804161.1194    6742646.05447   5206450.86547                  21804170.7684
        26.5004         27.2504
  22578142.3074   -3284026.40847  -2517598.41546                  22578151.7914
        25.2504         24.5004
  21594821.5494     480635.59748    395579.39947                  21594831.1394
        29.5004         30.0004
  23991079.2914   -4966450.38846  -3773480.12446                  23991092.9824
        15.0004         15.5004
  23120754.5414    8903959.07147   6860866.95346                  23120766.5574
        21.5004         19.0004
  21257730.4474      59602.53348     73798.26247                  21257738.4084
        31.7504         30.7504
 00  5  9 19 41 30.0020000  0  6G 5G 6G10G17G24G30
  21813473.0964    6791581.03647   5244581.96547                  21813482.8854
        26.5004         27.0004
  22575127.3614   -3299870.85547  -2529944.72446                  22575136.8344
        24.7504         24.5004
  21598092.2754     497823.58748    408972.64047                  21598101.8424
        29.7504         30.0004
  23986848.3304   -4988682.25146  -3790803.56346                  23986862.7014
        15.5004         16.0004
  23130763.7134    8956555.86047   6901851.39846                  23130775.4474
        21.5004         19.0004
  21260377.3694      73512.80748     84637.42147                  21260385.5184
        32.2504         30.7504
 00  5  9 19 41 45.0020000  0  6G 5G 6G10G17G24G30
  21822806.5884    6840629.01847   5282801.12347                  21822816.4124
        26.2504         27.2504
  22572117.6114   -3315685.73447  -2542267.98146                  22572127.3654
        25.2504         24.5004
  21601393.3934     515171.50948    422490.49447                  21601403.0064
        29.5004         30.0004
  23982628.9944   -5010855.13646  -3808081.06446                  23982642.3574
        15.0004         15.7504
  23140776.6744    9009174.03247   6942852.50846                  23140788.6894
        21.5004         19.0004
  21263053.6824      87576.30748     95595.98147                  21263061.5964
        31.7504         30.7504
 00  5  9 19 42  0.0020000  0  6G 5G 6G10G17G24G30
  21832161.0334    6889785.99247   5321105.20747                  21832170.8814
        26.5004         27.2504
  22569113.3144   -3331474.77647  -2554571.11046                  22569123.1504
        25.2504         24.7504
  21604724.3774     532675.44748    436129.92547                  21604733.9204
        29.5004         30.0004
  23978420.3614   -5032972.92146  -3825315.61746                  23978435.0374
        15.2504         15.7504
  23150792.6974    9061809.53647   6983867.12846                  23150804.8774
        21.5004         18.7504
  21265758.2604     101789.25448    106670.99247                  21265766.2214
        32.2504         30.7504
 00  5  9 19 42 15.0020000  0  6G 5G 6G10G17G24G30
  21841537.1194    6939057.38147   5359498.44547                  21841546.9554
        26.2504         27.0004
  22566114.7994   -3347232.13147  -2566849.54746                  22566124.6004
        25.2504         25.0004
  21608086.0644     550341.12548    449895.38547                  21608095.6784
        29.7504         30.0004
  23974222.7604   -5055029.66546  -3842502.62346                  23974236.2054
        15.2504         15.5004
  23160813.3144    9114467.85147   7024899.52246                  23160824.8504
        21.2504         19.0004
  21268492.4634     116157.49748    117867.01247                  21268500.5184
        32.2504         30.5004
 00  5  9 19 42 30.0020000  0  6G 5G 6G10G17G24G30
  21850934.1824    6988439.26047   5397977.77647                  21850944.0294
        26.0004         27.0004
  22563121.4164   -3362961.24547  -2579105.98046                  22563130.9824
        25.0004         25.0004
  21611477.6744     568164.72548    463783.89847                  21611487.3934
        29.5004         30.0004
  23970036.7214   -5077029.05846  -3859644.93046                  23970051.2444
        15.2504         16.0004
  23170837.5494    9167145.18747   7065946.72146                  23170849.4364
        21.2504         19.0004
  21271255.5574     130677.31948    129181.14447                  21271263.6234
        32.2504         30.5004
 00  5  9 19 42 45.0020000  0  6G 5G 6G10G17G24G30
  21860351.9324    7037931.04647   5436542.75247                  21860361.7324
        26.0004         27.0004
  22560133.7684   -3378662.34747  -2591340.57446                  22560143.5214
        25.7504         25.0004
  21614899.6194     586145.98348    477795.26947                  21614909.2794
        29.7504         30.2504
  23965860.7214   -5098971.31646  -3876742.70946                  23965874.0614
        15.7504         15.7504
  23180865.1744    9219840.94447   7107008.28846                  23180877.5184
        21.2504         18.5004
  21274047.3144     145348.48448    140613.20947                  21274055.3934
        32.5004         30.5004
 00  5  9 19 43  0.0020000  0  6G 5G 6G10G17G24G30
  21869792.1824    7087538.88647   5475198.16147                  21869802.2404
        26.0004         27.0004
  22557152.3144   -3394328.98047  -2603548.31346                  22557161.9284
        25.5004         25.0004
  21618352.3694     604291.20348    491934.39647                  21618362.1934
        29.5004         30.0004
  23961697.7444   -5120850.08546  -3893791.02846                  23961711.8694
        15.0004         15.7504
  23190897.9474    9272561.49347   7148089.17146                  23190909.8464
        21.2504         18.5004
  21276869.1824     160177.39848    152168.19247                  21276877.1784
        32.2504         30.7504
 00  5  9 19 43 15.0020000  0  6G 5G 6G10G17G24G30
  21879252.2214    7137251.18347   5513934.95747                  21879262.0454
        26.0004         26.7504
  22554175.5414   -3409972.25147  -2615737.84946                  22554185.2834
        25.0004         25.0004
  21621834.3384     622589.03548    506192.44347                  21621844.1624
        29.5004         30.0004
  23957544.2444   -5142676.59646  -3910798.63546                  23957557.7254
        15.7504         16.2504
  23200932.6434    9325295.27347   7189180.36546                  23200944.5414
        21.0004         18.7504
  21279718.9794     175152.83148    163837.34547                  21279726.9394
        32.5004         30.7504
 00  5  9 19 43 30.0020000  0  6G 5G 6G10G17G24G30
  21888732.2524    7187068.00147   5552753.20347                  21888742.2404
        25.7504         26.5004
  22551203.2754   -3425591.81447  -2627908.91146                  22551212.8544
        25.2504         25.0004
  21625345.4164     641039.67348    520569.56047                  21625355.1584
        29.5004         30.0004
  23953400.3934   -5164450.62646  -3927765.34646                  23953414.2014
        14.7504         15.7504
  23210970.1044    9378042.34447   7230281.90946                  23210981.9434
        20.7504         18.7504
  21282596.7364     190274.96448    175620.81247                  21282604.7684
        32.2504         30.7504
 00  5  9 19 43 45.0020000  0  6G 5G 6G10G17G24G30
  21898233.5644    7236998.80547   5591660.27047                  21898243.4824
        25.5004         26.7504
  22548237.4004   -3441177.75247  -2640053.76646                  22548247.0964
        25.2504         25.2504
  21628887.3224     659652.71848    535073.22447                  21628897.1354
        29.2504         30.0004
  23949268.7524   -5186162.26646  -3944683.42546                  23949282.0924
        16.2504         16.2504
  23221011.9864    9430812.23747   7271401.23946                  23221023.9554
        20.7504         18.5004
  21285504.0184     205553.60248    187526.23047                  21285511.9324
        31.7504         30.7504
 00  5  9 19 44  0.0020000  0  6G 5G 6G10G17G24G30
  21907756.2994    7287040.23647   5630653.53847                  21907766.1584
        25.5004         26.7504
  22545277.2914   -3456733.00747  -2652174.71846                  22545286.7754
        25.2504         25.2504
  21632459.7134     678425.10848    549701.05747                  21632469.3964
        29.2504         29.7504
  23945148.6824   -5207814.63646  -3961555.33846                  23945162.7954
        14.5004         16.0004
  23231057.6894    9483601.69647   7312535.82746                  23231069.6824
        21.0004         18.5004
  21288440.6044     220985.71648    199551.23847                  21288448.6004
        32.2504         31.0004
 00  5  9 19 44 15.0020000  0  6G 5G 6G10G17G24G30
  21917299.5644    7337190.28847   5669731.45047                  21917309.5764
        25.5004         26.7504
  22542322.7754   -3472259.28947  -2664273.08646                  22542332.3074
        25.7504         25.5004
  21636061.8224     697355.01448    564451.63447                  21636071.5184
        29.5004         30.0004
  23941039.0024   -5229409.50846  -3978382.42646                  23941052.7054
        16.2504         16.2504
  23241106.3694    9536408.72747   7353684.09946                  23241118.8074
        20.5004         18.5004
  21291406.2054     236569.49048    211694.42647                  21291414.1544
        32.2504         30.7504
 00  5  9 19 44 30.0020000  0  6G 5G 6G10G17G24G30
  21926863.5254    7387450.22247   5708894.97847                  21926873.7364
        25.5004         26.7504
  22539373.7834   -3487754.79347  -2676347.47447                  22539383.2094
        26.0004         25.7504
  21639694.2834     716443.98648    579326.15247                  21639703.9204
        29.5004         30.0004
  23936940.7914   -5250945.23746  -3995163.44846                  23936954.6234
        14.5004         16.0004
  23251158.9164    9589234.75647   7394847.17746                  23251171.0614
        20.7504         18.7504
  21294400.8694     252306.52348    223957.03347                  21294408.8544
        32.2504         30.7504
 00  5  9 19 44 45.0020000  0  6G 5G 6G10G17G24G30
  21936448.2294    7437816.66447   5748141.50147                  21936458.3114
        25.5004         26.5004
  22536430.5024   -3503222.54947  -2688400.23846                  22536440.0454
        26.0004         25.5004
  21643356.5104     735688.84448    594322.14247                  21643366.1004
        29.5004         30.0004
  23932853.2834   -5272424.93046  -4011900.79846                  23932866.7054
        16.0004         16.5004
  23261214.4864    9642076.43047   7436022.44646                  23261226.2794
        21.0004         18.5004
  21297424.1354     268193.60048    236336.56347                  21297432.2254
        32.2504         30.7504
 00  5  9 19 45  0.0020000  0  6G 5G 6G10G17G24G30
  21946053.4244    7488292.76847   5787473.47147                  21946063.4944
        25.5004         26.5004
  22533493.1664   -3518659.01047  -2700428.62746                  22533502.6624
        25.2504         25.5004
  21647049.1114     755092.91848    609442.19447                  21647058.8304
        29.5004         30.0004
  23928777.2834   -5293845.10646  -4028591.77546                  23928791.4084
        15.2504         16.0004
  23271273.5184    9694937.12647   7477212.53646                  23271285.7214
        20.5004         18.5004
  21300476.6584     284234.36248    248835.84047                  21300484.7484
        32.0004         30.7504
 00  5  9 19 45 15.0020000  0  6G 5G 6G10G17G24G30
  21955679.0574    7538875.23247   5826888.32147                  21955689.0214
        25.5004         26.2504
  22530561.0494   -3534067.08247  -2712434.88046                  22530570.3574
        25.7504         25.5004
  21650771.1194     774653.02748    624683.83147                  21650780.8504
        29.5004         30.0004
  23924711.5334   -5315208.79446  -4045238.74146                  23924724.7564
        15.5004         16.2504
  23281335.7444    9747813.44047   7518414.79146                  23281347.7484
        20.5004         18.2504
  21303557.7364     300425.67648    261452.43447                  21303565.7444
        32.5004         30.7504
 00  5  9 19 45 30.0020000  0  6G 5G 6G10G17G24G30
  21965324.9714    7589564.92547   5866386.72247                  21965335.1934
        25.5004         26.5004
  22527634.4714   -3549445.49547  -2724418.02447                  22527643.7794
        26.2504         25.7504
  21654523.3934     794370.34348    640047.97047                  21654533.0064
        29.5004         30.0004
  23920657.5254   -5336514.87646  -4061840.79346                  23920671.9434
        15.5004         16.2504
  23291400.9164    9800706.46547   7559630.07246                  23291412.9084
        21.2504         18.5004
  21306667.6974     316768.71348    274187.25247                  21306675.7874
        32.5004         30.7504
 00  5  9 19 45 45.0020000  0  6G 5G 6G10G17G24G30
  21974992.0574    7640364.25347   5905970.56247                  21975002.3614
        25.7504         26.2504
  22524714.4714   -3564791.43547  -2736375.87047                  22524723.7684
        26.5004         25.7504
  21658305.7684     814247.49748    655536.65947                  21658315.4864
        29.7504         30.0004
  23916614.3144   -5357760.51446  -4078395.77746                  23916627.5724
        15.0004         16.0004
  23301469.8774    9853618.62447   7600860.26046                  23301482.2684
        20.7504         18.5004
  21309807.0724     333266.16448    287042.39547                  21309815.1974
        32.5004         30.7504
 00  5  9 19 46  0.0020000  0  6G 5G 6G10G17G24G30
  21984679.6114    7691273.50647   5945640.04847                  21984689.8934
        25.5004         26.2504
  22521800.4944   -3580104.20847  -2748307.87347                  22521810.0724
        26.5004         25.7504
  21662118.8774     834285.04248    671150.32547                  21662128.6074
        29.5004         30.0004
  23912582.8224   -5378945.26246  -4094903.29546                  23912596.6434
        15.5004         16.2504
  23311542.3074    9906550.31047   7642105.65546                  23311554.8504
        20.2504         18.5004
  21312975.9394     349918.53648    300018.24847                  21312983.9714
        32.2504         30.7504
 00  5  9 19 46 15.0020000  0  6G 5G 6G10G17G24G30
  21994387.2994    7742287.74847   5985391.34747                  21994397.3464
        25.5004         26.5004
  22518892.0414   -3595388.33447  -2760217.54846                  22518901.6194
        26.5004         25.5004
  21665961.2994     854478.15148    686885.20847                  21665970.9714
        29.7504         29.7504
  23908562.2524   -5400073.65146  -4111366.91446                  23908576.6464
        15.2504         16.2504
  23321617.6194    9959496.78247   7683362.58246                  23321630.0214
        20.2504         18.5004
  21316173.4084     366721.22948    313111.24047                  21316181.4514
        32.5004         30.7504
 00  5  9 19 46 30.0020000  0  6G 5G 6G10G17G24G30
  22004115.8074    7793411.09047   6025227.66047                  22004125.9244
        25.5004         26.5004
  22515989.8774   -3610639.39047  -2772101.45947                  22515999.3384
        26.5004         26.0004
  21669834.4634     874831.02648    702744.59047                  21669844.1354
        29.7504         30.0004
  23904553.1354   -5421141.41946  -4127783.26846                  23904567.1074
        16.2504         16.5004
  23331697.0024   10012462.14447   7724634.22446                  23331709.0534
        20.2504         18.2504
  21319400.3144     383678.59848    326324.75747                  21319408.3224
        32.5004         31.0004
 00  5  9 19 46 45.0020000  0  6G 5G 6G10G17G24G30
  22013865.1434    7844643.56047   6065149.00047                  22013875.2364
        25.5004         26.5004
  22513094.0104   -3625856.86047  -2783959.20147                  22513103.6114
        26.5004         26.0004
  21673737.9004     895343.91648    718728.65347                  21673747.6314
        29.2504         30.2504
  23900555.7054   -5442148.07846  -4144152.05546                  23900569.5614
        14.7504         16.5004
  23341779.2684   10065446.43847   7765920.63246                  23341791.4244
        20.2504         18.0004
  21322656.5724     400790.84148    339658.95147                  21322664.6044
        32.5004         30.7504
 00  5  9 19 47  0.0020000  0  6G 5G 6G10G17G24G30
  22023634.5024    7895981.50347   6105152.53447                  22023644.6194
        25.2504         26.5004
  22510203.7524   -3641043.92347  -2795793.24747                  22510213.3424
        27.0004         25.7504
  21677671.2914     916013.45448    734834.77847                  21677681.0334
        29.5004         30.0004
  23896569.0184   -5463097.07846  -4160475.86146                  23896583.2714
        16.2504         16.5004
  23351864.7684   10118446.10047   7807219.00046                  23351877.4754
        20.2504         18.2504
  21325941.8384     418054.73148    353111.31447                  21325949.9754
        32.5004         30.7504
 00  5  9 19 47 15.0020000  0  6G 5G 6G10G17G24G30
  22033424.1434    7947426.11147   6145239.18247                  22033434.2954
        25.5004         26.5004
  22507319.9714   -3656199.01647  -2807602.38147                  22507329.3964
        27.0004         26.0004
  21681634.5884     936840.96148    751064.00047                  21681644.3544
        29.5004         30.0004
  23892593.7294   -5483986.82946  -4176753.54446                  23892607.1864
        14.7504         16.5004
  23361953.6824   10171462.53947   7848530.44746                  23361965.7214
        20.2504         18.0004
  21329256.2994     435471.65948    366682.93047                  21329264.5294
        32.5004         31.0004
 00  5  9 19 47 30.0020000  0  6G 5G 6G10G17G24G30
  22043233.8304    7998976.32047   6185408.11447                  22043243.9714
        25.5004         26.0004
  22504441.8464   -3671322.74547  -2819387.08647                  22504451.2014
        27.0004         26.0004
  21685627.9084     957825.74248    767415.77047                  21685637.6274
        29.7504         30.0004
  23888629.5884   -5504818.03746  -4192985.56746                  23888643.1504
        16.5004         16.5004
  23372045.1664   10224494.78347   7889854.21446                  23372057.3694
        20.0004         18.0004
  21332599.4634     453040.87848    380373.20847                  21332607.6824
        32.5004         31.0004
 00  5  9 19 47 45.0020000  0  6G 5G 6G10G17G24G30
  22053063.8694    8050632.24347   6225659.42047                  22053074.0684
        25.2504         26.2504
  22501570.1114   -3686414.67047  -2831146.99847                  22501579.4554
        27.2504         26.0004
  21689651.0884     978968.02048    783890.26147                  21689660.7834
        29.7504         29.7504
  23884677.1194   -5525590.28146  -4209171.69246                  23884690.4944
        15.0004         16.2504
  23382140.4324   10277543.04447   7931190.45146                  23382153.0924
        20.0004         17.7504
  21335971.9864     470762.78848    394182.46947                  21335980.0064
        32.5004         30.7504
 00  5  9 19 48  0.0020000  0  6G 5G 6G10G17G24G30
  22062912.9004    8102391.64447   6265991.36847                  22062923.0414
        25.2504         26.2504
  22498703.7684   -3701476.56047  -2842883.50747                  22498713.1464
        27.0004         25.7504
  21693703.8694    1000265.64448    800485.80947                  21693713.4944
        29.7504         30.0004
  23880734.8854   -5546305.53746  -4225313.35946                  23880748.7644
        17.0004         17.0004
  23392238.0724   10330605.13547   7972537.46446                  23392250.9434
        20.5004         17.7504
  21339373.0574     488635.27748    408109.06647                  21339381.1464
        32.5004         30.7504
 00  5  9 19 48 15.0020000  0  6G 5G 6G10G17G24G30
  22072782.5254    8154255.55647   6306404.74447                  22072792.6894
        25.5004         26.2504
  22495843.6584   -3716506.97747  -2854595.49747                  22495853.0374
        26.5004         26.0004
  21697786.7214    1021719.83048    817203.35247                  21697796.3934
        29.5004         30.0004
  23876803.9634   -5566962.52246  -4241409.66746                  23876817.5374
        15.0004         16.7504
  23402338.1824   10383682.15147   8013896.11246                  23402350.8074
        20.0004         18.0004
  21342802.9004     506659.87948    422154.19247                  21342811.0724
        32.5004         31.0004
 00  5  9 19 48 30.0020000  0  6G 5G 6G10G17G24G30
  22082672.0574    8206223.76847   6346899.39547                  22082682.3384
        25.2504         26.2504
  22492989.7054   -3731505.64547  -2866282.74347                  22492999.0024
        27.0004         25.7504
  21701898.9554    1043330.69648    834042.98347                  21701908.6624
        29.5004         30.0004
  23872884.2524   -5587561.02846  -4257460.37946                  23872897.7094
        16.2504         17.0004
  23412441.1974   10436774.12147   8055266.41046                  23412453.3074
        20.0004         17.7504
  21346261.8694     524836.50048    436317.77447                  21346269.8304
        32.5004         31.0004
 00  5  9 19 48 45.0020000  0  6G 5G 6G10G17G24G30
  22092581.0964    8258297.24847   6387476.07047                  22092591.4004
        25.2504         26.2504
  22490141.6664   -3746471.27447  -2877944.24847                  22490150.9514
        27.2504         25.7504
  21706041.3544    1065099.37148    851005.58047                  21706051.0724
        29.7504         30.2504
  23868975.7444   -5608099.92846  -4273464.65646                  23868990.0104
        15.2504         16.7504
  23422547.3464   10489881.92047   8096649.04646                  23422559.9244
        20.2504         18.0004
  21349750.0804     543166.35948    450600.76547                  21349758.1234
        32.5004         31.0004
 00  5  9 19 49  0.0020000  0  6G 5G 6G10G17G24G30
  22102511.6044    8310481.30547   6428138.91147                  22102521.7914
        25.2504         26.0004
  22487301.0024   -3761398.15347  -2889575.55747                  22487310.1824
        27.2504         25.7504
  21710214.9244    1087031.32748    868095.40447                  21710224.6194
        29.7504         30.0004
  23865079.3614   -5628573.54746  -4289418.05146                  23865092.7134
        16.0004         16.7504
  23432657.6434   10543011.05847   8138048.31046                  23432670.1744
        20.2504         18.0004
  21353268.2754     561655.02948    465007.50147                  21353276.4714
        32.2504         31.0004
 00  5  9 19 49 15.0020000  0  6G 5G 6G10G17G24G30
  22112460.5334    8362763.43047   6468878.16447                  22112470.6624
        25.0004         26.0004
  22484465.8144   -3776298.28147  -2901186.02347                  22484474.9594
        27.0004         25.7504
  21714417.1664    1109114.24948    885302.86747                  21714426.7684
        29.7504         30.0004
  23861193.6664   -5648994.12546  -4305330.13646                  23861207.7214
        15.5004         17.0004
  23442769.3614   10596149.17846   8179454.56546                  23442781.9754
        19.7504         18.0004
  21356814.4164     580290.30548    479528.47447                  21356822.6824
        32.2504         30.7504
 00  5  9 19 49 30.0020000  0  6G 5G 6G10G17G24G30
  22122430.1744    8415154.44847   6509702.27247                  22122440.4674
        25.0004         26.0004
  22481637.4164   -3791160.40147  -2912766.87347                  22481646.7714
        27.2504         25.7504
  21718650.3224    1131359.13348    902636.53247                  21718660.0184
        29.7504         30.0004
  23857319.5804   -5669350.45546  -4321192.15346                  23857333.2954
        16.5004         16.7504
  23452885.1824   10649307.18546   8220876.33246                  23452897.7604
        19.7504         18.0004
  21360390.5884     599083.32048    494172.36747                  21360398.7834
        32.2504         31.0004
 00  5  9 19 49 45.0020000  0  6G 5G 6G10G17G24G30
  22132420.1584    8467651.87247   6550609.29047                  22132430.4284
        25.0004         26.0004
  22478816.0334   -3805986.64047  -2924319.76047                  22478825.2254
        27.2504         25.7504
  21722913.6974    1153763.74348    920094.66247                  21722923.4284
        29.7504         29.7504
  23853457.8774   -5689644.80546  -4337005.86646                  23853471.0644
        16.2504         17.0004
  23463004.2294   10702482.62747   8262311.67446                  23463016.6784
        20.2504         18.0004
  21363996.4244     618031.88348    508937.46147                  21364004.6544
        32.2504         31.0004
 00  5  9 19 50  0.0020000  0  6G 5G 6G10G17G24G30
  22142430.0884    8520253.90447   6591597.81947                  22142440.2294
        25.0004         25.7504
  22476001.3074   -3820778.34647  -2935845.74747                  22476010.4634
        27.5004         26.0004
  21727207.2444    1176326.45748    937675.98747                  21727216.9284
        29.7504         29.7504
  23849607.6434   -5709878.58746  -4352772.40046                  23849621.4284
        15.0004         17.0004
  23473126.0024   10755673.99747   8303759.42846                  23473138.6154
        20.0004         18.0004
  21367631.4944     637134.34648    523822.47947                  21367639.7954
        32.5004         31.0004
 00  5  9 19 50 15.0020000  0  6G 5G 6G10G17G24G30
  22152460.4554    8572962.19447   6632669.15347                  22152470.6894
        25.0004         25.7504
  22473193.4714   -3835533.42547  -2947343.18547                  22473202.7444
        27.7504         25.7504
  21731531.1194    1199048.99648    955381.85047                  21731540.6274
        30.2504         29.7504
  23845768.9714   -5730049.84146  -4368490.18946                  23845782.5684
        17.2504         17.2504
  23483251.4164   10808882.93646   8345220.87546                  23483263.9824
        19.5004         17.7504
  21371296.2914     656392.75948    538829.01747                  21371304.4164
        32.5004         30.7504
 00  5  9 19 50 30.0020000  0  6G 5G 6G10G17G24G30
  22162510.5254    8625775.19847   6673822.07047                  22162520.7834
        25.0004         25.7504
  22470392.4244   -3850253.01847  -2958812.97347                  22470401.4984
        27.2504         26.0004
  21735885.4324    1221929.99148    973211.18947                  21735895.0804
        29.7504         30.0004
  23841942.1664   -5750159.95846  -4384160.35346                  23841955.8574
        16.5004         17.5004
  23493380.0494   10862107.96646   8386694.85746                  23493392.7684
        19.7504         17.7504
  21374990.4944     675805.71748    553955.97547                  21374998.5494
        32.2504         31.0004
 00  5  9 19 50 45.0020000  0  6G 5G 6G10G17G24G30
  22172580.2994    8678693.09147   6715056.72746                  22172590.4984
        25.0004         25.5004
  22467598.1664   -3864936.47047  -2970254.60247                  22467607.1354
        27.0004         25.7504
  21740269.6974    1244969.90248    991164.35047                  21740279.3574
        30.0004         30.0004
  23838127.0574   -5770208.38846  -4399782.45546                  23838140.8184
        16.7504         17.5004
  23503511.3694   10915349.40847   8428181.62846                  23503523.9004
        20.2504         18.0004
  21378714.0804     695373.72348    569203.75547                  21378722.2994
        32.5004         31.0004
 00  5  9 19 51  0.0020000  0  6G 5G 6G10G17G24G30
  22182670.4944    8731717.20647   6756374.14946                  22182680.8344
        25.2504         25.2504
  22464811.1744   -3879581.96847  -2981666.65547                  22464820.3304
        27.0004         26.0004
  21744684.6114    1268170.26148   1009242.54347                  21744694.4364
        30.0004         29.7504
  23834324.0494   -5790193.51046  -4415355.21446                  23834337.3544
        17.5004         17.2504
  23513646.2134   10968608.80046   8469682.39246                  23513659.0374
        19.5004         17.7504
  21382467.6584     715098.24448    584573.49247                  21382475.8544
        32.5004         31.0004
 00  5  9 19 51 15.0020000  0  6G 5G 6G10G17G24G30
  22192780.1114    8784843.64447   6797771.30846                  22192790.2054
        25.0004         25.2504
  22462031.0334   -3894192.99347  -2993051.84847                  22462040.0494
        26.7504         25.7504
  21749129.2294    1291527.29348   1027442.81847                  21749138.9714
        30.0004         29.7504
  23830532.5334   -5810118.73246  -4430881.31146                  23830545.6744
        16.7504         17.5004
  23523783.9084   11021882.33246   8511194.16846                  23523796.8734
        19.5004         17.7504
  21386250.1824     734975.76148    600062.44747                  21386258.3424
        32.5004         31.2504
 00  5  9 19 51 30.0020000  0  6G 5G 6G10G17G24G30
  22202908.6824    8838069.62347   6839246.02946                  22202918.9044
        25.0004         25.0004
  22459256.5184   -3908771.87947  -3004411.99747                  22459265.7214
        27.0004         26.0004
  21753603.4004    1315038.47148   1045763.20247                  21753613.1314
        30.5004         30.0004
  23826751.7994   -5829986.62446  -4446362.73246                  23826764.8224
        16.7504         17.7504
  23533923.7054   11075167.35646   8552714.87446                  23533940.1394
        19.2504         16.7504
  21390061.5644     755003.65248    615668.57647                  21390069.8424
        32.5004         31.0004
 00  5  9 19 51 45.0020000  0  6G 5G 6G10G17G24G30
  22213057.1354    8891399.30947   6880801.55646                  22213067.3814
        25.0004         25.2504
  22456489.2994   -3923314.05747  -3015743.54647                  22456498.3734
        27.2504         26.0004
  21758107.4324    1338708.19948   1064207.13247                  21758116.9754
        30.2504         30.0004
  23822982.5884   -5849792.76946  -4461796.03946                  23822996.1744
        17.5004         17.7504
  23544066.9084   11128468.04746   8594247.82946                  23544080.4364
        19.7504         17.5004
  21393902.0964     775186.35148    631395.33047                  21393910.3144
        32.5004         31.0004
 00  5  9 19 52  0.0020000  0  6G 5G 6G10G17G24G30
  22223225.6974    8944834.21047   6922439.06946                  22223235.7564
        25.0004         25.2504
  22453729.5104   -3937817.64947  -3027045.02246                  22453738.4794
        26.7504         25.5004
  21762642.3464    1362538.16148   1082775.92347                  21762651.9244
        30.2504         30.0004
  23819225.5574   -5869535.35246  -4477179.80346                  23819238.7214
        17.0004         17.7504
  23554212.9864   11181786.14646   8635794.31946                  23554225.6354
        19.7504         17.2504
  21397772.4714     795525.66848    647244.12947                  21397780.5494
        32.2504         31.0004
 00  5  9 19 52 15.0020000  0  6G 5G 6G10G17G24G30
  22233413.4474    8998372.30847   6964157.00246                  22233423.5534
        25.2504         25.2504
  22450976.5024   -3952284.21247  -3038317.64747                  22450985.6354
        26.7504         25.7504
  21767206.9324    1386526.41948   1101468.05847                  21767216.7794
        30.0004         29.7504
  23815480.6504   -5889215.99746  -4492515.33046                  23815493.9084
        16.7504         17.7504
  23564362.2364   11235119.69046   8677352.85946                  23564374.9904
        19.5004         17.2504
  21401672.3934     816019.93048    663213.66147                  21401680.5064
        32.5004         31.2504
 00  5  9 19 52 30.0020000  0  6G 5G 6G10G17G24G30
  22243621.0334    9052013.43247   7005955.21246                  22243631.3854
        25.0004         25.2504
  22448230.6114   -3966713.47047  -3049561.20047                  22448239.6974
        27.0004         25.7504
  21771802.1044    1410673.02448   1120283.57947                  21771811.7294
        30.0004         30.0004
  23811746.8934   -5908834.60046  -4507802.48246                  23811760.1864
        18.2504         18.0004
  23574514.2294   11288468.62546   8718923.38746                  23574527.0064
        19.2504         17.2504
  21405601.8934     836669.04248    679303.86147                  21405610.0064
        32.5004         31.0004
 00  5  9 19 52 45.0020000  0  6G 5G 6G10G17G24G30
  22253847.4794    9105753.53747   7047830.54546                  22253857.9244
        25.0004         25.5004
  22445491.0964   -3981109.09647  -3060778.54947                  22445500.1934
        27.2504         25.7504
  21776426.4634    1434973.97848   1139219.37947                  21776436.1704
        30.0004         29.7504
  23808024.8464   -5928394.87946  -4523044.20946                  23808038.0454
        17.0004         18.0004
  23584668.2604   11341828.93646   8760502.77646                  23584680.9674
        19.5004         17.5004
  21409559.9864     857469.29548    695511.82847                  21409568.0414
        32.5004         31.0004
 00  5  9 19 53  0.0020000  0  6G 5G 6G10G17G24G30
  22264094.0104    9159597.54447   7089786.84846                  22264104.4554
        24.7504         25.2504
  22442759.2364   -3995465.63447  -3071965.43847                  22442768.4044
        27.0004         26.0004
  21781080.9714    1459434.47748   1158279.49347                  21781090.5844
        29.7504         29.7504
  23804315.0184   -5947891.58946  -4538236.39846                  23804328.4984
        17.7504         18.0004
  23594825.5724   11395205.82146   8802095.08546                  23594838.3614
        19.2504         17.2504
  21413547.9324     878425.85648    711841.59147                  21413556.1274
        32.2504         31.0004
 00  5  9 19 53 15.0020000  0  6G 5G 6G10G17G24G30
  22274358.6434    9213540.51247   7131820.25646                  22274369.2054
        24.7504         25.2504
  22440033.7524   -4009787.62047  -3083125.40647                  22440042.9794
        26.7504         26.0004
  21785765.1434    1484049.65148   1177460.13447                  21785774.7794
        30.0004         29.7504
  23800615.8544   -5967329.34646  -4553382.65446                  23800629.3344
        17.5004         18.0004
  23604984.8614   11448594.53946   8843696.60346                  23604997.8614
        19.0004         17.0004
  21417564.9244     899534.10648    728289.55547                  21417573.0844
        32.5004         31.0004
 00  5  9 19 53 30.0020000  0  6G 5G 6G10G17G24G30
  22284643.2684    9267584.83347   7173932.64246                  22284653.6074
        24.7504         25.0004
  22437315.4164   -4024072.20147  -3094256.22147                  22437324.4554
        26.7504         25.7504
  21790479.2834    1508822.03948   1196763.28347                  21790488.8964
        29.7504         29.5004
  23796928.3854   -5986705.55846  -4568480.94146                  23796941.6314
        17.5004         18.2504
  23615147.5184   11501997.41246   8885309.16646                  23615160.5534
        19.5004         17.2504
  21421610.9164     920796.64648    744857.74947                  21421619.2404
        32.5004         31.0004
 00  5  9 19 53 45.0020000  0  6G 5G 6G10G17G24G30
  22294947.0884    9321731.99947   7216125.16546                  22294957.4394
        24.5004         25.2504
  22434604.6584   -4038317.44747  -3105356.39447                  22434613.8034
        27.2504         26.0004
  21795223.6354    1533753.47348   1216190.36247                  21795233.4004
        29.7504         29.5004
  23793253.6824   -6006018.37146  -4583529.84146                  23793266.9164
        17.5004         18.2504
  23625312.6194   11555416.13546   8926934.05746                  23625325.7834
        18.7504         17.0004
  21425686.8934     942215.19348    761547.50147                  21425695.1114
        32.5004         31.0004
 00  5  9 19 54  0.0020000  0  6G 5G 6G10G17G24G30
  22305270.0724    9375979.41847   7258395.80846                  22305280.5644
        24.7504         25.2504
  22431900.7754   -4052525.59347  -3116427.65947                  22431909.9554
        27.2504         26.0004
  21799997.5184    1558841.42848   1235739.40347                  21800007.3894
        29.7504         29.5004
  23789589.9084   -6025270.16146  -4598531.17446                  23789603.0844
        17.0004         18.0004
  23635480.6044   11608848.21246   8968569.37246                  23635493.6624
        18.7504         16.7504
  21429791.7684     963787.31948    778356.92947                  21429799.9284
        32.5004         31.0004
 00  5  9 19 54 15.0020000  0  6G 5G 6G10G17G24G30
  22315612.7994    9430330.62547   7300747.32646                  22315623.0924
        24.7504         25.2504
  22429205.0184   -4066692.58747  -3127466.85347                  22429214.2564
        26.7504         26.2504
  21804802.2294    1584089.56648   1255413.26147                  21804811.9594
        29.7504         29.5004
  23785938.7214   -6044456.99046  -4613481.89546                  23785952.2014
        17.5004         18.2504
  23645651.7834   11662297.36746   9010217.99946                  23645664.4434
        18.7504         16.7504
  21433926.8384     985516.92848    795289.06847                  21433934.9754
        32.5004         31.2504
 00  5  9 19 54 30.0020000  0  6G 5G 6G10G17G24G30
  22325974.7994    9484782.20747   7343177.06246                  22325985.3144
        24.7504         25.0004
  22426516.4714   -4080821.32247  -3138476.22747                  22426525.6154
        26.7504         26.0004
  21809636.4864    1609494.74048   1275209.49147                  21809646.0884
        29.7504         29.5004
  23782299.5184   -6063581.89346  -4628384.37346                  23782312.7404
        17.5004         18.2504
  23655825.1664   11715760.40246   9051877.43246                  23655838.2714
        18.2504         16.7504
  21438091.2364    1007400.74048    812341.37247                  21438099.5144
        32.5004         31.0004
 00  5  9 19 54 45.0020000  0  6G 5G 6G10G17G24G30
  22336355.5804    9539333.40447   7385684.41846                  22336365.9084
        24.5004         25.0004
  22423835.0334   -4094912.03947  -3149455.99047                  22423844.1194
        27.0004         26.5004
  21814500.7754    1635056.47748   1295127.71647                  21814510.5294
        29.7504         29.2504
  23778672.0644   -6082645.27346  -4643238.89446                  23778685.2524
        17.7504         18.2504
  23666001.4634   11769236.66246   9093547.18046                  23666014.4164
        18.5004         16.7504
  21442285.0884    1029438.50948    829513.63447                  21442293.4244
        32.5004         31.0004
 00  5  9 19 55  0.0020000  0  6G 5G 6G10G17G24G30
  22346756.3144    9593988.79247   7428272.95946                  22346766.6664
        24.7504         24.7504
  22421161.8694   -4108959.82547  -3160402.29647                  22421171.0024
        27.0004         26.2504
  21819395.6824    1660779.45848   1315171.58747                  21819405.3894
        29.5004         29.2504
  23775056.6274   -6101642.32046  -4658041.73446                  23775070.1194
        18.0004         18.0004
  23676181.1664   11822730.75646   9135230.80846                  23676194.4714
        18.0004         16.2504
  21446508.7364    1051634.95348    846809.54447                  21446517.0254
        32.2504         31.0004
 00  5  9 19 55 15.0020000  0  6G 5G 6G10G17G24G30
  22357175.5104    9648741.92047   7470937.66046                  22357185.8504
        24.2504         24.7504
  22418495.6584   -4122970.75247  -3171319.88147                  22418504.9794
        26.7504         26.5004
  21824320.2754    1686657.23248   1335336.07047                  21824329.8894
        29.5004         29.2504
  23771453.2444   -6120579.16846  -4672797.67546                  23771466.1274
        17.7504         18.5004
  23686363.0574   11876236.44846   9176923.49746                  23686376.1864
        18.2504         16.5004
  21450761.5574    1073983.75248    864224.17247                  21450769.9164
        32.5004         31.0004
 00  5  9 19 55 30.0020000  0  6G 5G 6G10G17G24G30
  22367614.0334    9703596.80647   7513681.65746                  22367624.3964
        24.2504         24.7504
  22415837.1824   -4136940.21247  -3182205.15647                  22415846.5024
        26.7504         26.5004
  21829274.9084    1712694.06248   1355624.49847                  21829284.5924
        29.5004         29.5004
  23767861.7754   -6139451.49546  -4687503.32746                  23767875.4794
        18.2504         18.5004
  23696547.8544   11929758.03346   9218628.56246                  23696560.9364
        18.0004         16.5004
  21455044.3304    1096489.17148    881760.83847                  21455052.5144
        32.2504         31.0004
 00  5  9 19 55 45.0020000  0  6G 5G 6G10G17G24G30
  22378071.0104    9758548.38847   7556500.99846                  22378081.6074
        24.2504         24.7504
  22413185.8694   -4150872.83447  -3193061.72847                  22413194.9794
        27.0004         26.5004
  21834258.6584    1738885.02248   1376033.02647                  21834268.2604
        29.2504         29.2504
  23764281.7364   -6158264.06046  -4702162.42646                  23764295.0184
        17.5004         18.2504
  23706734.9864   11983290.34246   9260341.97646                  23706748.1044
        18.2504         16.2504
  21459355.7604    1119146.45648    899415.84647                  21459363.9084
        32.2504         31.0004
 00  5  9 19 56  0.0020000  0  6G 5G 6G10G17G24G30
  22388547.8544    9813603.80247   7599401.24846                  22388558.3464
        24.5004         24.7504
  22410543.0644   -4164760.97047  -3203883.62847                  22410552.3734
        27.2504         26.5004
  21839273.5024    1765237.56448   1396567.46147                  21839283.1274
        29.2504         29.2504
  23760714.7994   -6177009.29546  -4716769.04846                  23760727.7644
        18.5004         18.2504
  23716925.1044   12036840.76746   9302069.50546                  23716938.0574
        18.2504         16.5004
  21463697.6194    1141963.06648    917195.00147                  21463705.8854
        32.2504         30.7504
 00  5  9 19 56 15.0020000  0  6G 5G 6G10G17G24G30
  22399043.3384    9868757.88647   7642378.38346                  22399054.0414
        24.2504         24.7504
  22407907.8544   -4178609.40747  -3214674.59547                  22407917.1974
        27.0004         26.5004
  21844317.7364    1791746.61748   1417223.85547                  21844327.3734
        29.5004         29.0004
  23757159.4394   -6195692.16546  -4731327.07746                  23757172.8854
        17.7504         18.5004
  23727117.8384   12090404.23346   9343807.20146                  23727130.9204
        18.0004         16.2504
  21468068.7444    1164933.90648    935094.33347                  21468076.9394
        32.2504         30.7504
 00  5  9 19 56 30.0020000  0  6G 5G 6G10G17G24G30
  22409557.2834    9924009.21347   7685431.28846                  22409567.9864
        24.2504         24.5004
  22405279.9794   -4192419.05647  -3225435.34347                  22405289.2874
        27.2504         27.0004
  21849391.9394    1818410.94148   1438001.23547                  21849401.6704
        29.2504         29.0004
  23753615.8774   -6214313.79146  -4745837.38446                  23753628.6434
        18.2504         18.5004
  23737313.1744   12143979.52446   9385554.08646                  23737326.2794
        17.7504         16.0004
  21472469.2994    1188057.84548    953112.96447                  21472477.6114
        32.0004         31.0004
 00  5  9 19 56 45.0020000  0  6G 5G 6G10G17G24G30
  22420090.0964    9979358.89147   7728560.83546                  22420100.7754
        24.2504         24.7504
  22402659.9394   -4206188.36447  -3236164.65147                  22402669.2484
        27.5004         27.0004
  21854495.9084    1845231.72048   1458900.53547                  21854505.6274
        29.0004         28.7504
  23750083.9084   -6232872.83246  -4760298.91046                  23750096.8144
        17.5004         18.2504
  23747510.8304   12197567.85846   9427311.16646                  23747524.1704
        17.7504         16.2504
  21476898.9794    1211336.17748    971251.90047                  21476907.3144
        32.5004         31.0004
 00  5  9 19 57  0.0030000  0  6G 5G 6G10G17G24G30
  22430642.4994   10034811.20347   7771770.35846                  22430653.3084
        24.5004         24.5004
  22400047.0224   -4219917.18947  -3246862.41747                  22400056.1444
        27.2504         27.0004
  21859629.9294    1872211.74148   1479923.91747                  21859639.5774
        29.5004         29.0004
  23746564.2414   -6251369.44846  -4774711.81646                  23746577.1124
        17.7504         18.5004
  23757711.7964   12251173.46346   9469081.68446                  23757725.0304
        18.2504         16.2504
  21481358.5384    1234771.34448    989513.04747                  21481366.9794
        32.0004         31.0004
 00  5  9 19 57 15.0030000  0  6G 5G 6G10G17G24G30
  22441212.8194   10090359.14947   7815054.39646                  22441223.3354
        24.2504         24.5004
  22397442.9604   -4233602.79447  -3257526.50447                  22397452.1634
        27.2504         27.0004
  21864793.7804    1899347.78248   1501068.87447                  21864803.5224
        29.0004         29.0004
  23743056.7804   -6269800.57246  -4789073.66946                  23743069.6164
        18.0004         18.2504
  23767914.4054   12304789.96046   9510860.71046                  23767927.5344
        17.7504         16.0004
  21485847.4054    1258360.92048   1007894.51447                  21485855.7294
        32.0004         31.0004
 00  5  9 19 57 30.0030000  0  6G 5G 6G10G17G24G30
  22451801.5934   10146003.16447   7858413.29546                  22451812.4254
        24.5004         24.5004
  22394845.9994   -4247248.96148  -3268159.86247                  22394855.1674
        28.0004         27.0004
  21869987.1874    1926638.40948   1522334.28347                  21869996.8234
        29.5004         29.0004
  23739561.2334   -6288170.39446  -4803387.75846                  23739574.2924
        18.2504         18.5004
  23778119.4294   12358417.72346   9552648.50446                  23778132.3474
        17.7504         15.7504
  21490365.5384    1282103.33348   1026395.07547                  21490373.9214
        32.0004         31.0004
 00  5  9 19 57 45.0030000  0  6G 5G 6G10G17G24G30
  22462409.4764   10201747.50447   7901850.37146                  22462420.2264
        24.2504         24.5004
  22392257.8274   -4260851.07847  -3278758.89547                  22392267.1244
        27.7504         27.0004
  21875210.7024    1954088.09648   1543723.64447                  21875220.4564
        29.0004         29.0004
  23736077.7724   -6306474.32446  -4817650.50946                  23736090.9014
        17.5004         18.5004
  23788327.5774   12412060.93646   9594448.33346                  23788340.4134
        18.0004         16.0004
  21494913.5774    1306003.01648   1045018.18047                  21494921.9484
        32.0004         31.0004
 00  5  9 19 58  0.0030000  0  6G 5G 6G10G17G24G30
  22473035.3124   10257585.90647   7945360.73746                  22473045.8394
        24.0004         24.2504
  22389676.6874   -4274414.89247  -3289328.08547                  22389685.9014
        27.7504         27.2504
  21880463.2334    1981690.82448   1565232.25047                  21880472.8584
        29.0004         29.0004
  23732606.1474   -6324718.28346  -4831866.52846                  23732619.1944
        18.2504         18.5004
  23798537.5624   12465713.67446   9636255.59446                  23798550.6324
        18.0004         16.0004
  21499490.2884    1330054.04148   1063759.21547                  21499498.7764
        32.2504         31.0004
 00  5  9 19 58 15.0030000  0  6G 5G 6G10G17G24G30
  22483679.8354   10313523.27147   7988948.21646                  22483690.5034
        23.7504         24.2504
  22387103.7654   -4287935.01348  -3299863.22547                  22387112.9794
        28.0004         27.2504
  21885745.9134    2009451.68548   1586864.07947                  21885755.7374
        29.0004         29.0004
  23729146.9994   -6342897.03846  -4846031.73646                  23729160.2804
        17.5004         18.2504
  23808749.9604   12519380.93446   9678074.17746                  23808763.2184
        18.0004         16.0004
  21504096.8354    1354261.58248   1082622.21147                  21504105.3944
        32.2504         31.0004
 00  5  9 19 58 30.0030000  0  6G 5G 6G10G17G24G30
  22494343.0154   10369558.57347   8032612.01346                  22494353.7764
        23.7504         24.2504
  22384539.0304   -4301411.94448  -3310364.71147                  22384548.2574
        28.2504         27.2504
  21891058.7654    2037369.77148   1608618.42647                  21891068.6124
        28.7504         29.0004
  23725699.5544   -6361011.21446  -4860146.63046                  23725713.0224
        18.0004         18.5004
  23818965.2334   12573062.03046   9719903.51946                  23818978.7614
        17.2504         15.2504
  21508732.9524    1378624.72748   1101606.45047                  21508741.3824
        32.0004         31.0004
 00  5  9 19 58 45.0030000  0  6G 5G 6G10G17G24G30
  22505025.9914   10425697.88347   8076356.85746                  22505036.8704
        23.5004         24.5004
  22381983.9294   -4314839.20547  -3320827.50047                  22381993.0734
        27.7504         27.2504
  21896402.3904    2065451.19448   1630500.04447                  21896412.2374
        28.7504         29.0004
  23722266.2184   -6379054.56146  -4874206.32146                  23722279.4994
        18.0004         18.5004
  23829184.2494   12626762.98146   9761748.35846                  23829197.4724
        18.0004         15.7504
  21513399.8664    1403149.93348   1120716.98347                  21513408.3314
        32.0004         31.0004
 00  5  9 19 59  0.0030000  0  6G 5G 6G10G17G24G30
  22515727.1324   10481932.11447   8120175.65746                  22515738.0934
        23.5004         23.7504
  22379436.6554   -4328225.43948  -3331258.31347                  22379445.8354
        28.0004         27.5004
  21901775.4374    2093687.07448   1652502.02047                  21901785.2724
        29.0004         29.0004
  23718844.5694   -6397035.81046  -4888217.63446                  23718857.9094
        17.7504         18.5004
  23839405.7264   12680474.79846   9803601.64746                  23839418.9374
        18.0004         15.7504
  21518096.1084    1427828.19948   1139946.77347                  21518104.5154
        32.2504         31.0004
 00  5  9 19 59 15.0030000  0  6G 5G 6G10G17G24G30
  22526445.9764   10538259.83047   8164067.30846                  22526456.6324
        23.2504         24.2504
  22376897.0694   -4341571.53148  -3341657.84547                  22376906.4134
        28.2504         27.7504
  21907177.6794    2122076.14148   1674623.36347                  21907187.2804
        29.0004         28.7504
  23715434.2334   -6414956.07246  -4902181.42046                  23715446.8584
        18.2504         18.2504
  23849628.0934   12734196.33546   9845462.52546                  23849641.3624
        17.7504         16.0004
  21522821.2024    1452658.31648   1159294.89347                  21522829.4914
        32.2504         31.0004
 00  5  9 19 59 30.0030000  0  6G 5G 6G10G17G24G30
  22537184.0544   10594688.65047   8208037.73346                  22537194.9794
        23.2504         23.7504
  22374366.5074   -4354869.36948  -3352019.78347                  22374375.7104
        28.5004         27.7504
  21912610.8274    2150626.24448   1696870.18847                  21912620.5694
        29.0004         28.7504
  23712037.1474   -6432807.33446  -4916091.44946                  23712050.4524
        17.7504         18.5004
  23859854.6014   12787935.42146   9887337.05346                  23859868.2694
        17.5004         15.5004
  21527576.5304    1477648.28248   1178767.56947                  21527584.9484
        32.0004         31.2504
 00  5  9 19 59 45.0030000  0  6G 5G 6G10G17G24G30
  22547940.7804   10651215.59747   8252084.62446                  22547951.8584
        23.2504         23.7504
  22371844.6554   -4368121.52348  -3362346.12147                  22371853.7294
        28.2504         28.0004
  21918073.6634    2179334.44048   1719240.20247                  21918083.3124
        29.0004         29.0004
  23708652.9764   -6450592.35146  -4929949.84546                  23708666.4334
        17.7504         18.5004
  23870083.6634   12841689.12446   9929222.98546                  23870097.0624
        17.2504         15.7504
  21532361.8274    1502795.25548   1198362.58747                  21532370.1514
        32.0004         31.0004
 00  5  9 20  0  0.0030000  0  6G 5G 6G10G17G24G30
  22558716.2494   10707840.28147   8296207.67646                  22558727.3154
        23.0004         23.7504
  22369331.7024   -4381327.88348  -3372636.78147                  22369340.8124
        28.2504         27.5004
  21923566.6554    2208200.60648   1741733.30447                  21923576.4444
        29.0004         28.7504
  23705281.0464   -6468311.13246  -4943756.64046                  23705294.0344
        17.7504         18.5004
  23880315.2724   12895457.35146   9971120.22946                  23880328.4604
        17.7504         15.5004
  21537177.0934    1528099.07948   1218079.82847                  21537185.5114
        32.0004         31.0004
 00  5  9 20  0 15.0030000  0  6G 5G 6G10G17G24G30
  22569509.2574   10764558.59747   8340403.68246                  22569520.3584
        23.0004         23.7504
  22366826.6474   -4394492.08348  -3382894.57747                  22366835.8044
        28.5004         27.7504
  21929089.0464    2237220.66148   1764346.32947                  21929098.8124
        29.5004         29.0004
  23701921.0384   -6485967.50746  -4957514.80446                  23701933.7924
        18.2504         19.0004
  23890549.1554   12949235.98946  10013025.59946                  23890562.4834
        17.7504         15.5004
  21542021.3354    1553555.80348   1237916.21147                  21542029.8004
        32.2504         31.0004
 00  5  9 20  0 30.0030000  0  6G 5G 6G10G17G24G30
  22580321.1244   10821374.27447   8384675.56146                  22580332.1904
        23.0004         23.7504
  22364330.2494   -4407609.91748  -3393116.25147                  22364339.3234
        28.7504         28.0004
  21934641.3824    2266398.49348   1787082.28747                  21934651.1714
        29.0004         29.0004
  23698573.9444   -6503557.39446  -4971221.15846                  23698586.8274
        18.2504         18.7504
  23900785.7654   13003029.07146  10054942.20946                  23900799.0464
        17.7504         15.7504
  21546895.5384    1579169.51548   1257874.92147                  21546903.9444
        32.0004         31.0004
 00  5  9 20  0 45.0030000  0  6G 5G 6G10G17G24G30
  22591150.8664   10878285.51347   8429021.89246                  22591161.9214
        23.0004         23.7504
  22361842.4444   -4420682.73648  -3403302.85047                  22361851.5654
        28.5004         27.7504
  21940223.4604    2295732.51948   1809939.95947                  21940233.1794
        29.5004         29.0004
  23695238.9444   -6521082.39446  -4984876.94546                  23695251.8044
        18.2504         18.7504
  23911024.5934   13056834.84546  10096868.70846                  23911038.0154
        17.7504         15.5004
  21551799.1084    1604938.53648   1277954.65047                  21551807.4794
        32.0004         31.0004
 00  5  9 20  1  0.0030000  0  6G 5G 6G10G17G24G30
  22601998.9834   10935291.89847   8473442.37546                  22602009.9094
        22.7504         23.5004
  22359363.5154   -4433710.48248  -3413454.32147                  22359372.7414
        28.5004         28.0004
  21945835.0694    2325222.41048   1832919.08947                  21945844.8474
        29.0004         28.7504
  23691916.3044   -6538542.48846  -4998482.16246                  23691928.9994
        18.0004         18.5004
  23921266.2654   13110653.18546  10138805.02046                  23921279.4764
        17.7504         15.5004
  21556732.4054    1630862.68748   1298155.26447                  21556740.8824
        32.0004         31.2504
 00  5  9 20  1 15.0030000  0  6G 5G 6G10G17G24G30
  22612865.0774   10992393.23047   8517936.83346                  22612876.2024
        22.7504         23.7504
  22356893.0694   -4446692.84048  -3423570.43147                  22356902.1204
        28.7504         27.7504
  21951476.6634    2354868.14248   1856019.64347                  21951486.5224
        29.2504         28.7504
  23688606.0304   -6555937.57746  -5012036.72646                  23688618.9834
        17.7504         18.2504
  23931509.9834   13164484.00446  10180751.03546                  23931524.0624
        17.5004         15.7504
  21561695.2494    1656942.03048   1318476.80347                  21561703.6674
        32.2504         31.2504
 00  5  9 20  1 30.0030000  0  6G 5G 6G10G17G24G30
  22623750.4444   11049595.51647   8562509.96346                  22623761.6044
        23.0004         23.5004
  22354432.6014   -4459623.30048  -3433646.10447                  22354441.5814
        28.5004         28.0004
  21957148.7654    2384675.85548   1879246.42247                  21957158.4134
        29.2504         28.7504
  23685309.2104   -6573261.41746  -5025535.77646                  23685321.9524
        18.7504         18.7504
  23941757.2884   13218333.46246  10222711.58346                  23941770.4294
        17.7504         15.2504
  21566688.6634    1683182.85948   1338924.18147                  21566697.1754
        32.0004         31.0004
 00  5  9 20  1 45.0030000  0  6G 5G 6G10G17G24G30
  22634653.7264   11106892.84247   8607157.14846                  22634664.9914
        22.7504         23.5004
  22351980.7024   -4472507.29748  -3443685.56847                  22351989.8584
        28.5004         28.0004
  21962850.7334    2414639.79648   1902594.93347                  21962860.4174
        29.5004         28.7504
  23682025.1554   -6590519.49446  -5038983.58446                  23682037.9214
        18.5004         18.5004
  23952006.5934   13272195.90346  10264682.24246                  23952020.3904
        17.5004         15.2504
  21571711.7574    1709579.35548   1359492.85147                  21571720.2334
        32.2504         31.2504
 00  5  9 20  2  0.0030000  0  6G 5G 6G10G17G24G30
  22645574.9834   11164284.03847   8651877.46946                  22645586.0264
        22.7504         23.2504
  22349537.6244   -4485345.57348  -3453689.40847                  22349546.6984
        28.5004         28.0004
  21968582.2804    2444759.03448   1926064.45447                  21968592.0464
        29.2504         29.0004
  23678753.4444   -6607712.63746  -5052380.79246                  23678766.0224
        18.2504         18.7504
  23962258.7724   13326070.16746  10306662.11146                  23962271.9724
        17.2504         15.2504
  21576764.3744    1736130.54648   1380182.06247                  21576772.8864
        32.2504         31.2504
 00  5  9 20  2 15.0030000  0  6G 5G 6G10G17G24G30
  22656514.7414   11221771.78747   8696673.03646                  22656526.0194
        22.7504         23.2504
  22347103.8124   -4498134.93448  -3463655.13047                  22347113.0154
        28.7504         28.2504
  21974343.8514    2475036.23948   1949657.06847                  21974353.7694
        29.2504         29.0004
  23675494.8664   -6624837.88546  -5065725.09846                  23675507.5734
        18.2504         18.7504
  23972513.3744   13379959.28446  10348653.56146                  23972526.8084
        16.7504         15.7504
  21581846.8824    1762839.39148   1400994.12647                  21581855.3944
        32.0004         31.2504
 00  5  9 20  2 30.0030000  0  6G 5G 6G10G17G24G30
  22667472.7654   11279357.15747   8741544.66546                  22667483.9954
        22.7504         23.2504
  22344679.8044   -4510873.80448  -3473581.51047                  22344688.9254
        28.7504         28.0004
  21980135.8514    2505472.67348   1973373.75447                  21980145.6984
        29.0004         29.0004
  23672249.0624   -6641893.89546  -5079015.44346                  23672261.8744
        18.2504         18.7504
  23982771.4214   13433864.40046  10390657.46846                  23982785.4174
        16.7504         15.2504
  21586959.6014    1789707.24148   1421930.08847                  21586968.1594
        32.2504         31.2504
 00  5  9 20  2 45.0030000  0  6G 5G 6G10G17G24G30
  22678449.0464   11337037.25247   8786490.11046                  22678460.4874
        22.7504         23.0004
  22342264.6554   -4523564.65248  -3483470.46847                  22342273.6014
        28.7504         28.0004
  21985957.4604    2536065.58748   1997212.37247                  21985967.3544
        29.2504         28.7504
  23669016.1714   -6658883.25846  -5092253.86846                  23669028.9014
        18.5004         19.0004
  23993032.0694   13487782.74846  10432671.68246                  23993045.3744
        17.2504         15.2504
  21592102.1554    1816731.31048   1442987.77647                  21592110.6554
        32.2504         31.2504
 00  5  9 20  3  0.0030000  0  6G 5G 6G10G17G24G30
  22689442.9444   11394810.10147   8831507.82546                  22689454.1984
        22.5004         23.0004
  22339858.5624   -4536208.93248  -3493323.14347                  22339867.6244
        28.5004         28.0004
  21991808.2804    2566812.97548   2021171.35547                  21991818.1404
        29.2504         28.7504
  23665795.3044   -6675807.64046  -5105441.65746                  23665808.1634
        19.0004         19.0004
  24003294.5624   13541712.63246  10474694.89046                  24003308.2184
        17.7504         15.5004
  21597274.2414    1843909.92448   1464165.89247                  21597282.7884
        32.0004         31.2504
 00  5  9 20  3 15.0030000  0  6G 5G 6G10G17G24G30
  22700454.4054   11452676.37347   8876598.34146                  22700465.8944
        22.5004         23.2504
  22337461.4994   -4548805.47848  -3503138.61147                  22337470.5264
        28.7504         28.0004
  21997688.9054    2597715.86648   2045251.51647                  21997698.7064
        29.5004         28.7504
  23662587.4294   -6692665.98046  -5118577.97946                  23662600.0894
        19.2504         19.2504
  24013559.4214   13595654.81846  10516727.68946                  24013572.6444
        17.5004         15.0004
  21602475.5384    1871243.85148   1485465.03147                  21602483.9564
        32.0004         31.2504
 00  5  9 20  3 30.0030000  0  6G 5G 6G10G17G24G30
  22711484.8824   11510640.51147   8921765.11746                  22711496.4524
        22.2504         23.0004
  22335074.5154   -4561349.25948  -3512912.97947                  22335083.4604
        28.7504         28.2504
  22003600.1634    2628778.88048   2069456.44747                  22003609.9404
        29.2504         28.7504
  23659392.6324   -6709453.48946  -5131659.10446                  23659405.0464
        18.2504         19.2504
  24023827.2414   13649613.89746  10558773.64746                  24023840.6284
        16.7504         15.2504
  21607707.6474    1898737.66348   1506888.75547                  21607716.1244
        32.2504         31.2504
 00  5  9 20  3 45.0030000  0  6G 5G 6G10G17G24G30
  22722532.3664   11568695.55847   8967002.72546                  22722543.7264
        22.0004         22.7504
  22332696.3044   -4573846.79748  -3522651.30547                  22332705.3664
        28.5004         28.0004
  22009540.3744    2659995.12348   2093780.77647                  22009550.1634
        29.0004         29.0004
  23656210.3354   -6726176.78746  -5144690.20246                  23656222.9954
        18.7504         19.2504
  24034097.5304   13703583.27446  10600827.62346                  24034111.7844
        16.5004         15.0004
  21612968.6874    1926384.72448   1528431.89647                  21612977.1514
        32.0004         31.2504
 00  5  9 20  4  0.0030000  0  6G 5G 6G10G17G24G30
  22733597.5224   11626843.50547   9012312.72446                  22733609.1634
        22.0004         22.5004
  22330327.4604   -4586295.66148  -3532351.70847                  22330336.3124
        28.7504         27.7504
  22015510.3584    2691366.69448   2118226.13847                  22015520.2414
        28.7504         28.7504
  23653040.6554   -6742833.63746  -5157669.52346                  23653053.0934
        18.2504         19.0004
  24044369.7334   13757564.90646  10642891.16146                  24044383.4374
        16.5004         14.7504
  21618259.3514    1954187.47448   1550096.34547                  21618267.8974
        32.0004         31.2504
 00  5  9 20  4 15.0030000  0  6G 5G 6G10G17G24G30
  22744680.8974   11685085.48947   9057695.99946                  22744692.2454
        22.0004         22.7504
  22327968.1474   -4598694.19648  -3542012.88747                  22327977.0114
        28.7504         28.0004
  22021509.7414    2722894.82348   2142793.49247                  22021519.6244
        28.7504         28.7504
  23649883.7884   -6759422.55946  -5170595.90246                  23649896.5774
        19.2504         19.5004
  24054644.7724   13811560.18446  10684965.32746                  24054658.3124
        16.2504         14.7504
  21623579.9834    1982147.10248   1571883.04147                  21623588.6124
        32.0004         31.2504
 00  5  9 20  4 30.0030000  0  6G 5G 6G10G17G24G30
  22755781.7024   11743420.22947   9103151.55246                  22755793.0504
        22.2504         22.7504
  22325618.1874   -4611043.24448  -3551635.50947                  22325627.1324
        28.2504         27.7504
  22027538.9834    2754578.37548   2167481.95347                  22027548.6084
        29.0004         28.7504
  23646739.7024   -6775944.56446  -5183470.13646                  23646752.2694
        19.5004         19.7504
  24064922.6634   13865568.02546  10727049.27446                  24064936.1324
        16.5004         14.2504
  21628930.2724    2010262.38448   1593791.02447                  21628938.8314
        32.0004         31.5004
 00  5  9 20  4 45.0030000  0  6G 5G 6G10G17G24G30
  22766900.3744   11801848.94047   9148680.32446                  22766911.6514
        22.7504         23.0004
  22323277.9524   -4623341.09948  -3561218.23947                  22323286.9684
        28.5004         28.0004
  22033598.0304    2786418.67948   2192292.55747                  22033607.9484
        29.0004         28.7504
  23643608.6634   -6792398.07046  -5196291.01146                  23643621.0654
        18.7504         19.2504
  24075202.4914   13919589.79046  10769144.08746                  24075215.8904
        16.2504         14.5004
  21634310.1714    2038534.76248   1615821.41847                  21634318.7654
        32.2504         31.5004
 00  5  9 20  5  0.0030000  0  6G 5G 6G10G17G24G30
  22778036.6554   11860369.58547   9194280.73846                  22778047.9094
        22.2504         22.5004
  22320947.2184   -4635589.31448  -3570762.29447                  22320956.2574
        28.5004         28.0004
  22039686.4444    2818413.93648   2217223.90447                  22039696.3864
        28.7504         28.7504
  23640490.5154   -6808784.83246  -5209059.86146                  23640503.2694
        19.5004         20.0004
  24085485.0154   13973623.71246  10811248.36746                  24085498.9294
        16.7504         14.7504
  21639719.9054    2066962.49248   1637972.87147                  21639728.3704
        32.2504         31.5004
 00  5  9 20  5 15.0030000  0  6G 5G 6G10G17G24G30
  22789190.2724   11918982.63447   9239953.15746                  22789201.6204
        22.0004         22.7504
  22318625.9294   -4647786.86448  -3580266.86647                  22318634.9094
        28.5004         28.0004
  22045804.7574    2850564.74648   2242276.46147                  22045814.5464
        28.7504         28.7504
  23637384.9054   -6825103.96946  -5221776.01546                  23637397.4724
        19.2504         20.0004
  24095769.6324   14027670.39446  10853362.59846                  24095783.1014
        17.2504         14.7504
  21645159.1324    2095546.26448   1660245.91047                  21645167.7614
        32.2504         31.5004
 00  5  9 20  5 30.0030000  0  6G 5G 6G10G17G24G30
  22800361.5934   11977686.49947   9285696.33946                  22800373.0344
        22.2504         22.5004
  22316314.4764   -4659934.81448  -3589732.79147                  22316323.4684
        28.5004         28.0004
  22051952.2104    2882869.53848   2267449.00347                  22051962.1284
        28.7504         28.5004
  23634291.9524   -6841356.83646  -5234440.53046                  23634304.4014
        19.7504         20.0004
  24106056.7654   14081728.49246  10895485.73246                  24106070.8084
        16.2504         14.5004
  21650627.9604    2124284.61048   1682639.39347                  21650636.4484
        31.7504         31.5004
 00  5  9 20  5 45.0030000  0  6G 5G 6G10G17G24G30
  22811550.1404   12036483.67947   9331512.23046                  22811561.3354
        22.0004         22.5004
  22314012.8124   -4672030.19348  -3599157.75147                  22314021.8394
        28.2504         27.7504
  22058129.2964    2915331.09748   2292743.70247                  22058139.3194
        28.7504         28.5004
  23631212.2494   -6857540.51646  -5247051.13246                  23631224.9094
        19.5004         20.0004
  24116346.0854   14135800.63946  10937619.78846                  24116359.5894
        16.2504         14.2504
  21656126.3434    2153180.28948   1705155.47947                  21656135.0544
        32.2504         31.5004
 00  5  9 20  6  0.0030000  0  6G 5G 6G10G17G24G30
  22822755.9134   12095370.95647   9377398.33246                  22822767.4834
        22.2504         22.5004
  22311720.2264   -4684075.77048  -3608543.89747                  22311729.2414
        28.2504         27.7504
  22064335.9374    2947946.21148   2318158.05347                  22064345.8664
        28.5004         28.7504
  23628145.6164   -6873657.90647  -5259610.09146                  23628158.4174
        20.0004         20.0004
  24126638.0694   14189883.77746  10979762.41646                  24126651.9254
        16.5004         14.0004
  21661654.7104    2182230.36948   1727791.87747                  21661663.3394
        31.7504         31.5004
 00  5  9 20  6 15.0030000  0  6G 5G 6G10G17G24G30
  22833978.9764   12154346.89047   9423353.51146                  22833990.5344
        22.2504         22.2504
  22309437.4604   -4696072.45548  -3617891.96047                  22309446.4644
        28.5004         27.7504
  22070571.1714    2980713.60448   2343691.06247                  22070581.1944
        28.7504         28.5004
  23625090.5694   -6889710.16746  -5272118.29246                  23625103.2764
        19.2504         20.2504
  24136931.5694   14243976.68146  11021912.64746                  24136945.1084
        16.7504         13.7504
  21667211.8664    2211433.43948   1750547.48247                  21667220.5194
        32.2504         31.5004
 00  5  9 20  6 30.0030000  0  6G 5G 6G10G17G24G30
  22845218.5694   12213411.54747   9469377.82546                  22845230.0464
        22.2504         22.5004
  22307164.0774   -4708019.74448  -3627201.52247                  22307173.1164
        28.2504         27.7504
  22076835.5544    3013633.30948   2369342.75447                  22076845.5304
        28.5004         28.5004
  23622048.4054   -6905696.95347  -5284575.46746                  23622060.9724
        20.0004         20.0004
  24147227.0304   14298079.60546  11064070.70446                  24147240.7104
        16.5004         14.2504
  21672798.1794    2240789.74748   1773422.49747                  21672806.8544
        32.2504         31.7504
 00  5  9 20  6 45.0030000  0  6G 5G 6G10G17G24G30
  22856475.0074   12272564.42747   9515470.89246                  22856486.3784
        21.7504         22.2504
  22304900.0304   -4719917.56548  -3636472.53947                  22304908.9644
        28.5004         27.7504
  22083128.9834    3046705.14648   2395112.99047                  22083139.1124
        28.7504         28.5004
  23619018.5384   -6921618.49946  -5296981.80946                  23619031.1044
        19.7504         20.0004
  24157524.6014   14352192.26646  11106236.33246                  24157538.8544
        16.0004         14.2504
  21678413.6634    2270299.09048   1796416.75847                  21678422.2694
        32.0004         31.7504
 00  5  9 20  7  0.0030000  0  6G 5G 6G10G17G24G30
  22867748.6324   12331807.20047   9561633.99146                  22867760.1904
        21.7504         22.2504
  22302645.5854   -4731763.66248  -3645703.25047                  22302654.4834
        28.5004         27.7504
  22089451.7804    3079930.81948   2421003.09747                  22089461.8624
        28.5004         28.2504
  23616001.5934   -6937472.77547  -5309335.73046                  23616014.0304
        20.0004         20.2504
  24167824.1554   14406316.57346  11148411.01546                  24167837.7884
        16.0004         13.5004
  21684058.6474    2299963.40148   1819531.77547                  21684067.1714
        32.2504         31.5004
 00  5  9 20  7 15.0030000  0  6G 5G 6G10G17G24G30
  22879039.6944   12391140.36447   9607867.52846                  22879051.2764
        21.7504         22.0004
  22300401.4214   -4743557.13348  -3654892.95447                  22300410.4134
        28.2504         27.7504
  22095803.7414    3113311.01448   2447013.61047                  22095813.9054
        28.2504         28.5004
  23612997.3664   -6953258.98147  -5321636.61346                  23613009.9094
        20.0004         20.5004
  24178125.9834   14460453.22346  11190595.34746                  24178139.5224
        16.2504         13.7504
  21689733.1474    2329783.27948   1842768.01347                  21689741.8234
        32.2504         31.5004
 00  5  9 20  7 30.0030000  0  6G 5G 6G10G17G24G30
  22890346.9684   12450560.43947   9654168.79346                  22890358.5734
        22.0004         22.0004
  22298166.5774   -4755301.01848  -3664044.02447                  22298175.5114
        28.5004         27.7504
  22102184.4834    3146842.25648   2473141.82447                  22102194.5894
        28.2504         28.2504
  23610005.6874   -6968980.28646  -5333886.92946                  23610018.1364
        19.2504         20.2504
  24188429.4444   14514598.72246  11232786.57546                  24188443.7574
        16.0004         13.7504
  21695436.5854    2359755.41548   1866122.88947                  21695445.2614
        32.0004         31.5004
 00  5  9 20  7 45.0030000  0  6G 5G 6G10G17G24G30
  22901671.1324   12510068.44147   9700538.56846                  22901682.7494
        22.0004         22.0004
  22295941.6164   -4766993.66748  -3673155.16847                  22295950.4564
        28.5004         27.7504
  22108594.2414    3180525.90748   2499388.79347                  22108604.4404
        28.2504         28.2504
  23607026.8584   -6984635.28146  -5346085.55846                  23607039.4484
        19.7504         20.2504
  24198735.1244   14568754.52346  11274985.82146                  24198749.1084
        15.7504         14.0004
  21701169.6324    2389881.00748   1889597.34747                  21701178.3194
        32.0004         31.5004
 00  5  9 20  8  0.0030000  0  6G 5G 6G10G17G24G30
  22913011.8584   12569664.03347   9746976.60146                  22913023.5934
        22.0004         22.2504
  22293726.3274   -4778634.94548  -3682226.28747                  22293735.1904
        28.7504         28.0004
  22115033.1404    3214361.68348   2525754.30247                  22115043.1984
        28.2504         28.2504
  23604060.3824   -7000223.98146  -5358232.54846                  23604072.8434
        19.7504         20.7504
  24209042.5544   14622920.32146  11317192.85646                  24209056.8904
        15.7504         13.7504
  21706931.4054    2420159.98448   1913191.32147                  21706940.1164
        32.0004         31.5004
 00  5  9 20  8 15.0030000  0  6G 5G 6G10G17G24G30
  22924369.8194   12629351.27747   9793486.04846                  22924381.6474
        21.7504         22.0004
  22291521.7654   -4790220.30948  -3691253.83547                  22291530.6284
        28.7504         27.7504
  22121501.4524    3248353.65648   2552241.52847                  22121511.4174
        28.2504         28.2504
  23601107.4134   -7015741.99447  -5370324.44346                  23601119.9094
        20.0004         20.7504
  24219352.9994   14677100.57846  11359411.16146                  24219367.3584
        16.0004         13.5004
  21712723.1714    2450596.56648   1936908.10447                  21712731.8944
        32.0004         31.2504
 00  5  9 20  8 30.0030000  0  6G 5G 6G10G17G24G30
  22935744.2494   12689123.30647   9840061.55946                  22935755.8434
        21.7504         22.0004
  22289326.5154   -4801756.13148  -3700242.77547                  22289335.4254
        28.7504         27.7504
  22127998.5304    3282495.10848   2578845.22447                  22128008.6474
        28.2504         28.2504
  23598166.4764   -7031195.93346  -5382366.42146                  23598179.0544
        19.7504         20.7504
  24229664.2264   14731288.33546  11401635.29746                  24229678.4214
        15.7504         13.7504
  21718543.9524    2481184.09148   1960742.50947                  21718552.6284
        32.0004         31.2504
 00  5  9 20  8 45.0030000  0  6G 5G 6G10G17G24G30
  22947134.2964   12748978.86447   9886702.15646                  22947146.3124
        21.5004         21.7504
  22287140.5854   -4813243.09048  -3709193.64447                  22287149.4484
        28.5004         27.7504
  22134523.7264    3316784.98148   2605564.57547                  22134533.9374
        28.2504         28.2504
  23595237.4914   -7046586.62546  -5394359.10846                  23595250.0114
        19.7504         20.5004
  24239977.1554   14785482.83146  11443864.70646                  24239992.0424
        15.2504         13.2504
  21724392.9684    2511921.56348   1984693.74947                  21724401.5854
        32.0004         31.5004
 00  5  9 20  9  0.0030000  0  6G 5G 6G10G17G24G30
  22958541.7264   12808924.43947   9933412.89646                  22958553.7064
        21.2504         21.7504
  22284965.2884   -4824674.21148  -3718101.00047                  22284974.1404
        28.7504         28.0004
  22141078.3664    3351229.81948   2632404.67747                  22141088.6244
        28.5004         28.2504
  23592322.1714   -7061907.29947  -5406297.24146                  23592334.6674
        20.0004         20.7504
  24250292.8584   14839690.54446  11486104.41446                  24250306.1984
        15.5004         13.5004
  21730272.1084    2542815.54848   2008766.95047                  21730280.8194
        32.0004         31.2504
 00  5  9 20  9 15.0030000  0  6G 5G 6G10G17G24G30
  22969965.1404   12868954.28547   9980189.30446                  22969976.9334
        21.2504         21.7504
  22282799.7184   -4836054.76948  -3726968.96447                  22282808.7104
        29.0004         27.7504
  22147661.5464    3385824.01448   2659361.16347                  22147671.6514
        28.2504         28.2504
  23589418.8584   -7077163.46846  -5418185.10446                  23589431.1204
        19.7504         20.7504
  24260609.7494   14893905.96546  11528350.11946                  24260624.1204
        15.2504         13.5004
  21736179.7184    2573860.57548   2032957.84847                  21736188.3704
        32.2504         31.5004
 00  5  9 20  9 30.0030000  0  6G 5G 6G10G17G24G30
  22981404.6714   12929070.39347  10027032.92646                  22981416.7454
        21.5004         21.5004
  22280644.2024   -4847382.23148  -3735795.54647                  22280653.2654
        28.7504         28.0004
  22154273.2884    3420569.58948   2686435.60947                  22154283.3474
        28.5004         28.2504
  23586528.2414   -7092352.69247  -5430020.81146                  23586540.3864
        20.0004         20.7504
  24270928.4214   14948131.44546  11570603.64646                  24270942.7334
        15.0004         13.0004
  21742116.5464    2605058.84848   2057268.15747                  21742125.2454
        32.2504         31.5004
 00  5  9 20  9 45.0030000  0  6G 5G 6G10G17G24G30
  22992861.7654   12989276.52347  10073946.69446                  22992873.5344
        21.5004         21.7504
  22278499.3824   -4858652.42448  -3744577.50447                  22278508.3154
        28.7504         28.2504
  22160914.7024    3455470.37048   2713630.99247                  22160924.7964
        28.2504         28.2504
  23583651.6714   -7107471.01646  -5441801.27146                  23583663.9794
        19.5004         20.5004
  24281249.8824   15002370.80746  11612868.01046                  24281263.9834
        15.2504         13.2504
  21748083.4374    2636414.10548   2081700.78947                  21748092.1014
        32.0004         31.5004
 00  5  9 20 10  0.0030000  0  6G 5G 6G10G17G24G30
  23004335.2964   13049571.68747  10120929.84146                  23004347.5344
        21.0004         21.5004
  22276365.5624   -4869865.78648  -3753315.18047                  22276374.4014
        29.0004         28.0004
  22167585.6014    3490525.58748   2740946.72247                  22167595.7294
        28.2504         28.2504
  23580787.8434   -7122519.12546  -5453527.01546                  23580800.3514
        19.7504         20.7504
  24291573.8124   15056623.17946  11655142.49146                  24291587.8904
        15.2504         13.2504
  21754079.8274    2667925.55248   2106255.12747                  21754088.5264
        32.2504         31.5004
 00  5  9 20 10 15.0030000  0  6G 5G 6G10G17G24G30
  23015825.7574   13109951.97047  10167979.30746                  23015837.8904
        21.2504         21.5004
  22274241.8194   -4881025.68448  -3762011.19647                  22274250.4134
        28.7504         28.2504
  22174285.0464    3525731.37748   2768379.77447                  22174295.2454
        28.5004         28.5004
  23577937.1164   -7137500.52647  -5465200.78746                  23577949.2964
        20.0004         20.5004
  24301899.6404   15110884.97646  11697424.33246                  24301913.1324
        15.7504         13.7504
  21760105.3744    2699589.56648   2130928.35047                  21760114.0384
        32.2504         31.5004
 00  5  9 20 10 30.0030000  0  6G 5G 6G10G17G24G30
  23027332.1404   13170418.25747  10215095.79546                  23027343.9214
        21.2504         21.5004
  22272128.6404   -4892130.70648  -3770664.45247                  22272137.5154
        29.0004         28.2504
  22181013.3514    3561088.78648   2795930.97647                  22181023.6674
        28.5004         28.2504
  23575099.0384   -7152413.96946  -5476821.60346                  23575111.5694
        19.7504         20.7504
  24312227.0774   15165157.38746  11739714.44446                  24312240.8514
        15.0004         13.5004
  21766160.0304    2731407.28448   2155721.34347                  21766168.7764
        32.5004         31.5004
 00  5  9 20 10 45.0030000  0  6G 5G 6G10G17G24G30
  23038855.8194   13230974.57947  10262282.44146                  23038867.6474
        21.2504         21.5004
  22270026.6474   -4903176.32248  -3779271.42147                  22270035.6404
        28.5004         28.0004
  22187771.2334    3596601.96848   2823603.55747                  22187781.3974
        28.2504         28.2504
  23572274.5854   -7167255.05847  -5488386.04146                  23572286.5654
        20.0004         20.5004
  24322558.1164   15219444.50946  11782016.00046                  24322571.8434
        14.5004         13.5004
  21772244.8434    2763382.91048   2180637.38347                  21772253.5654
        32.2504         31.5004
 00  5  9 20 11  0.0030000  0  6G 5G 6G10G17G24G30
  23050395.4604   13291615.45547  10309534.97946                  23050407.3824
        21.0004         21.5004
  22267935.3744   -4914167.53548  -3787835.99847                  22267944.3904
        29.2504         28.5004
  22194557.9134    3632265.50448   2851393.30047                  22194568.2534
        28.2504         28.5004
  23569463.2724   -7182029.19146  -5499898.30446                  23569475.4874
        19.5004         20.7504
  24332890.3664   15273741.08846  11824324.93446                  24332904.5154
        15.0004         13.2504
  21778358.6014    2795510.95948   2205672.18947                  21778367.3944
        32.2504         31.5004
 00  5  9 20 11 15.0030000  0  6G 5G 6G10G17G24G30
  23061951.1794   13352340.09247  10356852.78446                  23061963.2294
        21.0004         21.2504
  22265853.9374   -4925104.62348  -3796358.39547                  22265862.9874
        29.0004         28.5004
  22201372.7494    3668078.67548   2879299.63947                  22201383.0194
        28.5004         28.2504
  23566664.3904   -7196736.74146  -5511358.69046                  23566676.6044
        19.7504         20.5004
  24343224.5224   15328046.51446  11866640.76146                  24343239.4794
        15.2504         13.5004
  21784501.2804    2827790.88248   2230825.34047                  21784510.1794
        32.2504         31.5004
 00  5  9 20 11 30.0030000  0  6G 5G 6G10G17G24G30
  23073522.7184   13413149.68247  10404236.78146                  23073535.0154
        20.7504         21.5004
  22263783.3904   -4935985.80048  -3804837.23147                  22263792.3824
        28.7504         28.5004
  22208216.6794    3704042.82948   2907323.63247                  22208227.0074
        28.5004         28.2504
  23563878.5074   -7211376.13046  -5522765.95346                  23563891.1324
        19.7504         20.7504
  24353560.6474   15382362.20246  11908964.58946                  24353574.3974
        15.7504         13.5004
  21790673.2024    2860224.16648   2256097.99547                  21790682.0774
        32.2504         31.5004
 00  5  9 20 11 45.0030000  0  6G 5G 6G10G17G24G30
  23085110.8194   13474046.15747  10451688.47946                  23085122.6834
        21.0004         21.0004
  22261723.7804   -4946808.74448  -3813270.69047                  22261732.8434
        29.0004         28.5004
  22215089.5774    3740159.93048   2935466.79947                  22215099.8004
        28.5004         28.7504
  23561106.2414   -7225945.26246  -5534118.47846                  23561118.7494
        19.5004         20.7504
  24363898.3434   15436690.35246  11951298.13946                  24363912.1874
        15.0004         13.2504
  21796874.5464    2892812.71848   2281491.63947                  21796883.4094
        32.0004         31.5004
 00  5  9 20 12  0.0030000  0  6G 5G 6G10G17G24G30
  23096715.4374   13535028.16247  10499206.82546                  23096727.4874
        20.5004         21.0004
  22259675.1944   -4957574.27048  -3821659.41247                  22259684.1634
        29.2504         28.5004
  22221991.4214    3776428.85348   2963728.27047                  22222001.5154
        28.5004         28.5004
  23558346.8974   -7240445.06446  -5545416.97346                  23558359.3704
        19.7504         20.7504
  24374239.2024   15491029.62146  11993640.31946                  24374253.7494
        14.7504         13.2504
  21803105.2334    2925555.42748   2307005.39947                  21803114.0734
        32.0004         31.5004
 00  5  9 20 12 15.0030000  0  6G 5G 6G10G17G24G30
  23108335.3274   13596090.88147  10546788.06046                  23108347.6944
        20.2504         20.7504
  22257636.5774   -4968286.59148  -3830006.67247                  22257645.5344
        29.5004         28.5004
  22228921.1554    3812844.90548   2992104.39347                  22228931.4724
        28.5004         28.7504
  23555600.0074   -7254880.01446  -5556664.95046                  23555612.5974
        19.7504         20.7504
  24384581.0304   15545375.62846  12035987.78846                  24384594.9564
        15.0004         13.2504
  21809364.5544    2958447.76148   2332635.75347                  21809373.3474
        32.0004         31.5004
 00  5  9 20 12 30.0030000  0  6G 5G 6G10G17G24G30
  23119971.6324   13657238.30047  10594435.30846                  23119983.8124
        20.2504         20.7504
  22255609.2024   -4978941.10748  -3838308.88647                  22255618.1014
        29.0004         28.5004
  22235879.6164    3849412.17348   3020598.34747                  22235890.0384
        28.7504         28.5004
  23552866.3974   -7269245.73747  -5567858.97646                  23552878.6594
        20.0004         21.0004
  24394925.1404   15599732.60246  12078343.77946                  24394939.3234
        15.7504         14.0004
  21815653.0774    2991493.93348   2358385.98047                  21815661.8944
        32.2504         31.7504
 00  5  9 20 12 45.0030000  0  6G 5G 6G10G17G24G30
  23131622.7654   13718466.51147  10642145.50046                  23131634.9094
        20.5004         21.0004
  22253591.9834   -4989541.27448  -3846568.75247                  22253600.9874
        29.5004         28.5004
  22242866.5544    3886126.87048   3049207.17747                  22242876.7654
        28.7504         28.7504
  23550145.0464   -7283545.83446  -5579001.86446                  23550157.5304
        19.5004         20.7504
  24405270.3434   15654096.77646  12120705.37746                  24405284.7614
        15.5004         13.7504
  21821970.1554    3024690.16748   2384253.14047                  21821978.9374
        32.2504         31.5004
 00  5  9 20 13  0.0030000  0  6G 5G 6G10G17G24G30
  23143290.0154   13779777.66647  10689920.32646                  23143302.5114
        20.5004         20.7504
  22251585.8354   -5000084.49748  -3854784.24947                  22251594.8624
        29.0004         29.0004
  22249881.2804    3922991.16148   3077932.57347                  22249891.3274
        28.7504         28.7504
  23547436.7334   -7297777.85647  -5590091.71446                  23547449.4764
        20.0004         20.7504
  24415617.3044   15708470.50046  12163074.42546                  24415631.7694
        15.7504         13.7504
  21828316.2964    3058038.63648   2410238.92247                  21828325.1594
        32.2504         31.5004
 00  5  9 20 13 15.0030000  0  6G 5G 6G10G17G24G30
  23154973.3274   13841172.01047  10737759.96946                  23154985.6834
        20.2504         20.7504
  22249590.4294   -5010569.99148  -3862954.76047                  22249599.4914
        29.5004         28.5004
  22256924.7884    3960005.39148   3106774.80847                  22256935.0344
        28.7504         28.7504
  23544741.6474   -7311941.25747  -5601128.09346                  23544753.9444
        20.5004         20.7504
  24425966.1794   15762854.29946  12205451.32146                  24425980.9014
        15.5004         14.0004
  21834691.2334    3091539.83148   2436343.71147                  21834700.0384
        32.2504         31.2504
 00  5  9 20 13 30.0030000  0  6G 5G 6G10G17G24G30
  23166672.4834   13902651.33847  10785665.84146                  23166684.7574
        20.2504         20.5004
  22247606.5544   -5020995.51548  -3871078.53947                  22247615.7104
        29.5004         28.7504
  22263997.4994    3997171.49648   3135735.38647                  22264007.7924
        29.2504         29.0004
  23542059.7334   -7326034.00647  -5612109.41746                  23542071.9484
        20.2504         21.0004
  24436317.1014   15817250.06246  12247837.53046                  24436331.5654
        15.5004         13.7504
  21841095.7724    3125195.60548   2462568.95447                  21841104.4724
        32.2504         31.2504
 00  5  9 20 13 45.0030000  0  6G 5G 6G10G17G24G30
  23178385.7964   13964206.78447  10833631.02546                  23178398.1874
        20.0004         20.5004
  22245632.3974   -5031369.35648  -3879162.04547                  22245641.4134
        29.5004         28.7504
  22271097.0774    4034480.66548   3164807.44847                  22271107.2764
        29.0004         28.7504
  23539389.8974   -7340064.52647  -5623042.24646                  23539402.4054
        20.2504         21.0004
  24446669.4524   15871649.34846  12290226.49446                  24446684.2454
        15.0004         13.5004
  21847528.0934    3158997.42548   2488907.99447                  21847536.9094
        32.0004         31.2504
 00  5  9 20 14  0.0030000  0  6G 5G 6G10G17G24G30
  23190115.7104   14025845.69747  10881661.24146                  23190128.3234
        20.0004         20.5004
  22243669.6244   -5041683.58148  -3887199.09747                  22243678.5814
        29.5004         29.0004
  22278225.4764    4071940.36448   3193996.80547                  22278235.6514
        29.0004         28.7504
  23536733.4444   -7354025.16347  -5633920.61546                  23536745.4724
        20.0004         21.0004
  24457023.1014   15926059.61246  12332624.01646                  24457037.6014
        15.0004         13.5004
  21853989.6714    3192952.77148   2515366.66847                  21853998.4404
        32.2504         31.2504
 00  5  9 20 14 15.0030000  0  6G 5G 6G10G17G24G30
  23201860.3124   14087563.64647  10929753.04946                  23201872.8314
        20.0004         20.2504
  22241717.4684   -5051942.05448  -3895192.70847                  22241726.3434
        29.2504         29.0004
  22285381.6874    4109546.28648   3223300.09547                  22285392.0504
        29.5004         28.7504
  23534088.7654   -7367919.98547  -5644747.71246                  23534100.9334
        20.2504         21.0004
  24467378.4134   15980476.70746  12375026.86346                  24467393.3824
        14.5004         13.5004
  21860479.5224    3227057.44848   2541941.70547                  21860488.4564
        32.0004         31.0004
 00  5  9 20 14 30.0030000  0  6G 5G 6G10G17G24G30
  23213620.5934   14149363.86247  10977908.96346                  23213632.8314
        20.0004         20.2504
  22239776.8974   -5062141.00348  -3903139.93847                  22239785.7964
        29.5004         29.0004
  22292566.2264    4147301.91748   3252720.04947                  22292576.6714
        29.0004         28.7504
  23531457.9914   -7381745.43347  -5655520.74746                  23531470.2064
        20.5004         21.0004
  24477736.0224   16034904.02246  12417437.66146                  24477750.7224
        14.5004         13.2504
  21866998.5624    3261314.84348   2568635.73747                  21867007.5194
        32.2504         31.2504
 00  5  9 20 14 45.0030000  0  6G 5G 6G10G17G24G30
  23225395.5154   14211242.40747  11026125.90946                  23225407.9644
        20.0004         20.2504
  22237846.6474   -5072283.93148  -3911043.51147                  22237855.6984
        29.2504         29.0004
  22299778.7494    4185203.12248   3282253.43047                  22299788.9724
        29.0004         29.0004
  23528839.5774   -7395505.23947  -5666242.63546                  23528851.4054
        20.5004         21.0004
  24488094.4214   16089337.84446  12459853.53346                  24488109.1444
        14.5004         13.2504
  21873545.7104    3295721.10248   2595445.77447                  21873554.5854
        32.0004         31.2504
 00  5  9 20 15  0.0030000  0  6G 5G 6G10G17G24G30
  23237185.8664   14273200.42346  11074404.78246                  23237198.0114
        19.7504         20.5004
  22235927.4524   -5082369.19348  -3918902.15247                  22235936.5264
        29.0004         29.0004
  22307019.1634    4223251.20948   3311901.26847                  22307029.4684
        29.5004         29.0004
  23526234.0154   -7409197.91447  -5676912.21146                  23526246.2654
        20.5004         21.2504
  24498454.5304   16143779.47546  12502275.47946                  24498469.3354
        14.5004         13.0004
  21880121.7574    3330277.52148   2622372.81447                  21880130.6674
        32.0004         31.2504
 00  5  9 20 15 15.0030000  0  6G 5G 6G10G17G24G30
  23248992.2494   14335242.15046  11122748.87946                  23249004.4764
        19.7504         20.0004
  22234020.1554   -5092392.10048  -3926712.20047                  22234029.1594
        29.0004         28.7504
  22314288.2884    4261450.61348   3341667.01547                  22314298.6044
        28.7504         28.7504
  23523641.8744   -7422818.94347  -5687525.95346                  23523654.0774
        21.0004         21.2504
  24508816.8744   16198233.41546  12544707.02946                  24508832.4404
        14.5004         13.2504
  21886727.1944    3364988.34348   2649420.16747                  21886736.1874
        32.0004         31.2504
 00  5  9 20 15 30.0030000  0  6G 5G 6G10G17G24G30
  23260813.6014   14397363.40246  11171154.94446                  23260825.8864
        19.5004         20.0004
  22232124.2264   -5102356.14248  -3934476.38347                  22232133.2654
        29.0004         29.0004
  22321585.2574    4299797.08248   3371547.35447                  22321595.4914
        29.2504         28.7504
  23521062.8744   -7436372.11747  -5698086.84446                  23521074.8434
        21.0004         21.2504
  24519180.7724   16252695.76846  12587145.14246                  24519195.8004
        14.5004         12.7504
  21893360.8044    3399849.66648   2676584.79347                  21893369.5854
        32.2504         31.2504
 00  5  9 20 15 45.0030000  0  6G 5G 6G10G17G24G30
  23272649.4994   14459561.57546  11219620.95146                  23272662.0424
        19.5004         20.0004
  22230238.7724   -5112263.42848  -3942196.34147                  22230247.8124
        28.7504         29.0004
  22328909.8354    4338288.10248   3401540.33747                  22328920.0344
        29.0004         28.7504
  23518495.9834   -7449859.75147  -5708596.65246                  23518507.9764
        20.5004         21.2504
  24529545.5464   16307163.99346  12629587.82546                  24529560.2334
        14.5004         12.7504
  21900023.1634    3434859.03548   2703864.78047                  21900032.0504
        32.0004         31.2504
 00  5  9 20 16  0.0030000  0  6G 5G 6G10G17G24G30
  23284500.9214   14521839.40446  11268149.02546                  23284513.5224
        19.7504         20.0004
  22228364.9604   -5122110.68948  -3949869.52447                  22228374.1284
        29.0004         29.0004
  22336262.6084    4376926.67348   3431648.28447                  22336273.0194
        29.0004         28.7504
  23515942.6874   -7463278.74247  -5719052.96746                  23515954.5974
        20.7504         21.2504
  24539912.5854   16361641.22846  12672037.52646                  24539927.4484
        14.5004         12.7504
  21906713.6554    3470019.48348   2731262.49547                  21906722.6014
        32.2504         31.2504
 00  5  9 20 16 15.0030000  0  6G 5G 6G10G17G24G30
  23296366.5854   14584194.16446  11316737.04146                  23296379.1634
        19.7504         19.7504
  22226502.1554   -5131900.11548  -3957497.64447                  22226511.4524
        28.7504         29.0004
  22343642.9214    4415710.08248   3461869.10147                  22343653.1204
        29.0004         29.0004
  23513401.6874   -7476631.51847  -5729457.70246                  23513413.2454
        21.2504         21.2504
  24550280.1794   16416124.95946  12714492.29346                  24550294.3864
        13.5004         12.7504
  21913433.0544    3505328.36148   2758775.86547                  21913441.8704
        32.2504         31.2504
 00  5  9 20 16 30.0030000  0  6G 5G 6G10G17G24G30
  23308246.7104   14646624.00746  11365383.56946                  23308259.5464
        19.2504         19.7504
  22224649.9214   -5141633.04848  -3965081.74147                  22224659.0194
        29.0004         28.7504
  22351050.3124    4454636.56548   3492201.39847                  22351060.6404
        29.5004         28.7504
  23510873.1634   -7489919.63347  -5739812.04246                  23510885.0264
        21.0004         21.5004
  24560648.6474   16470613.57646  12756950.87746                  24560663.0544
        13.2504         12.5004
  21920180.0694    3540784.01348   2786403.60747                  21920189.0384
        32.0004         31.0004
 00  5  9 20 16 45.0030000  0  6G 5G 6G10G17G24G30
  23320142.2184   14709134.85746  11414093.21346                  23320154.6794
        19.5004         19.5004
  22222809.6324   -5151303.06148  -3972616.81047                  22222818.6834
        29.0004         29.0004
  22358486.2184    4493712.29148   3522649.98847                  22358496.5344
        29.5004         28.7504
  23508357.9134   -7503136.76247  -5750111.07446                  23508369.9994
        21.5004         21.5004
  24571020.0304   16525113.28746  12799418.07846                  24571035.7024
        12.7504         12.5004
  21926956.0384    3576392.45148   2814150.40047                  21926965.0304
        32.0004         31.0004
 00  5  9 20 17  0.0030000  0  6G 5G 6G10G17G24G30
  23332052.2414   14771723.16646  11462863.21646                  23332064.7844
        19.2504         19.5004
  22220981.0154   -5160913.13148  -3980105.17647                  22220989.9834
        28.7504         28.7504
  22365949.9524    4532933.68548   3553212.07947                  22365960.1874
        28.7504         28.5004
  23505855.4994   -7516286.22447  -5760357.37946                  23505867.4684
        21.5004         21.5004
  24581392.8824   16579620.57446  12841891.18446                  24581407.9684
        13.2504         12.5004
  21933760.7104    3612150.34548   2842013.65547                  21933769.7724
        32.0004         31.2504
 00  5  9 20 17 15.0030000  0  6G 5G 6G10G17G24G30
  23343977.5934   14834389.97946  11511694.38846                  23343990.5814
        19.5004         19.5004
  22219163.9764   -5170461.68348  -3987545.60047                  22219172.9684
        29.0004         29.0004
  22373441.5774    4572301.84748   3583888.54447                  22373451.8704
        29.0004         28.5004
  23503366.5074   -7529366.57447  -5770549.82446                  23503378.3124
        21.5004         21.7504
  24591766.7654   16634136.89846  12884371.35646                  24591781.5814
        13.5004         12.0004
  21940593.8124    3648058.81748   2869994.24047                  21940603.0154
        32.0004         31.0004
 00  5  9 20 17 30.0030000  0  6G 5G 6G10G17G24G30
  23355917.2414   14897132.04546  11560584.20246                  23355929.9014
        19.2504         19.5004
  22217357.9834   -5179951.45048  -3994940.21647                  22217366.9994
        28.7504         28.7504
  22380960.2414    4611813.61148   3614676.90247                  22380970.4764
        28.7504         28.5004
  23500890.1554   -7542380.75947  -5780690.71346                  23500902.0894
        22.0004         21.7504
  24602141.9134   16688659.21646  12926856.17546                  24602156.9054
        13.0004         12.5004
  21947454.8124    3684114.73048   2898089.71647                  21947463.8864
        32.0004         31.2504
 00  5  9 20 17 45.0030000  0  6G 5G 6G10G17G24G30
  23367871.0934   14959949.90246  11609533.07146                  23367884.0344
        19.2504         19.5004
  22215563.6164   -5189381.33048  -4002288.17147                  22215572.5854
        28.7504         29.0004
  22388506.5694    4651469.61148   3645577.65547                  22388517.0034
        28.7504         28.5004
  23498426.0384   -7555327.97547  -5790779.42646                  23498437.7614
        21.5004         22.0004
  24612518.3434   16743188.19746  12969346.21346                  24612532.7144
        12.5004         12.2504
  21954344.3664    3720318.86148   2926300.68647                  21954353.4644
        31.7504         31.0004
 00  5  9 20 18  0.0030000  0  6G 5G 6G10G17G24G30
  23379839.6014   15022844.56746  11658541.78946                  23379852.6474
        19.2504         20.0004
  22213780.9054   -5198749.73548  -4009588.22347                  22213790.0264
        28.7504         28.7504
  22396080.4444    4691270.99348   3676591.68947                  22396090.9724
        29.0004         28.5004
  23495975.5544   -7568206.79747  -5800814.84446                  23495987.3004
        21.7504         22.2504
  24622896.4994   16797725.22046  13011842.49346                  24622912.6514
        12.7504         12.0004
  21961262.2264    3756672.35048   2954628.03747                  21961271.3584
        32.0004         31.0004
 00  5  9 20 18 15.0030000  0  6G 5G 6G10G17G24G30
  23391822.1324   15085813.74246  11707608.56446                  23391834.9684
        19.0004         19.5004
  22212009.6084   -5208058.44848  -4016841.75847                  22212018.7764
        28.5004         28.7504
  22403681.7334    4731215.61848   3707717.34547                  22403692.3084
        28.7504         28.5004
  23493537.2884   -7581019.14147  -5810798.45646                  23493548.7654
        22.0004         22.0004
  24633276.1244   16852268.20746  13054343.42545                  24633291.2924
        13.0004         11.5004
  21968208.1794    3793173.06448   2983070.11347                  21968217.2884
        31.5004         31.0004
 00  5  9 20 18 30.0030000  0  6G 5G 6G10G17G24G30
  23403818.5304   15148854.31246  11756730.97846                  23403831.5894
        19.0004         19.2504
  22210248.9444   -5217310.08548  -4024050.82147                  22210258.0424
        28.7504         29.0004
  22411309.6554    4771300.36548   3738952.18147                  22411320.1944
        28.7504         28.2504
  23491111.1634   -7593767.92847  -5820732.54146                  23491122.8974
        22.0004         22.2504
  24643656.0934   16906814.26046  13096846.75345                  24643671.4954
        13.2504         11.7504
  21975181.4834    3829817.97148   3011624.54447                  21975190.7104
        32.0004         31.2504
 00  5  9 20 18 45.0030000  0  6G 5G 6G10G17G24G30
  23415829.4604   15211973.20246  11805914.41346                  23415842.5424
        19.2504         19.2504
  22208500.6244   -5226497.14548  -4031209.56347                  22208509.6874
        28.7504         29.0004
  22418965.6324    4811532.32748   3770301.73547                  22418976.1594
        28.7504         28.2504
  23488698.9134   -7606445.86747  -5830611.42446                  23488710.6834
        22.5004         22.2504
  24654038.2104   16961370.62446  13139358.13246                  24654053.5774
        13.5004         12.0004
  21982183.6014    3866614.29848   3040296.96647                  21982192.7804
        31.7504         31.2504
 00  5  9 20 19  0.0030000  0  6G 5G 6G10G17G24G30
  23427855.0384   15275165.68946  11855155.20046                  23427868.1204
        19.0004         19.0004
  22206763.8744   -5235623.82748  -4038321.25647                  22206772.9724
        29.0004         28.7504
  22426648.4604    4851906.64548   3801762.21347                  22426659.0584
        28.2504         28.2504
  23486298.7724   -7619057.38247  -5840438.54646                  23486310.6014
        21.7504         22.2504
  24664420.8584   17015932.56546  13181873.81746                  24664436.3544
        13.0004         12.2504
  21989213.4684    3903557.27948   3069083.66047                  21989222.6244
        31.7504         31.0004
 00  5  9 20 19 15.0030000  0  6G 5G 6G10G17G24G30
  23439894.0074   15338431.59946  11904453.19346                  23439907.1944
        19.2504         19.5004
  22205038.7654   -5244689.81548  -4045385.65347                  22205047.6634
        29.0004         29.0004
  22434358.6014    4892423.28848   3833333.59547                  22434369.1634
        28.5004         28.2504
  23483911.5544   -7631602.35447  -5850213.82146                  23483923.2764
        22.0004         22.2504
  24674804.5934   17070500.18046  13224393.95145                  24674820.6634
        12.5004         11.7504
  21996271.5774    3940646.88648   3097984.61147                  21996280.6984
        32.0004         31.2504
 00  5  9 20 19 30.0030000  0  6G 5G 6G10G17G24G30
  23451947.8584   15401773.69746  11953810.56446                  23451961.0224
        19.2504         19.2504
  22203325.7964   -5253691.72748  -4052400.12347                  22203334.8824
        29.0004         29.0004
  22442096.2654    4933085.18748   3865018.16447                  22442106.8394
        28.2504         28.2504
  23481537.5384   -7644077.59647  -5859934.75446                  23481549.3434
        22.2504         22.2504
  24685189.8514   17125076.75046  13266921.04545                  24685205.2534
        12.2504         11.7504
  22003357.9444    3977886.10748   3127002.14047                  22003367.0654
        32.0004         31.0004
 00  5  9 20 19 45.0030000  0  6G 5G 6G10G17G24G30
  23464015.1324   15465187.86846  12003224.08446                  23464027.9334
        19.2504         19.0004
  22201624.1944   -5262633.19348  -4059367.48747                  22201633.1754
        28.7504         28.7504
  22449860.9294    4973888.23748   3896812.71947                  22449871.5264
        28.2504         27.7504
  23479176.3044   -7656486.88947  -5869604.30546                  23479188.2144
        22.2504         22.5004
  24695576.3434   17179658.28646  13309452.01346                  24695591.7804
        12.5004         12.2504
  22010472.2654    4015270.94248   3156133.13647                  22010481.1514
        32.0004         30.7504
 00  5  9 20 20  0.0030000  0  6G 5G 6G10G17G24G30
  23476096.3044   15528673.36946  12052693.18846                  23476109.0694
        19.2504         19.2504
  22199934.0694   -5271514.42348  -4066287.92547                  22199943.0854
        29.0004         28.7504
  22457652.1554    5014831.79848   3928716.76247                  22457662.9524
        28.2504         28.0004
  23476827.2334   -7668830.65747  -5879222.78846                  23476839.2144
        22.0004         22.5004
  24705963.7804   17234244.17846  13351986.38746                  24705979.1944
        13.2504         12.0004
  22017613.9764    4052800.81748   3185377.15147                  22017623.0264
        32.0004         31.0004
 00  5  9 20 20 15.0030000  0  6G 5G 6G10G17G24G30
  23488191.2964   15592232.60346  12102219.75646                  23488204.6364
        19.0004         19.0004
  22198256.1944   -5280332.49548  -4073159.14347                  22198265.1284
        28.7504         28.7504
  22465470.6874    5055918.34648   3960732.23047                  22465481.4954
        28.0004         28.0004
  23474491.2024   -7681106.31547  -5888788.19746                  23474503.1944
        22.2504         22.5004
  24716352.6324   17288837.04146  13394526.18245                  24716368.1284
        14.0004         11.7504
  22024783.7334    4090478.23948   3214736.14047                  22024792.7964
        32.2504         31.0004
 00  5  9 20 20 30.0030000  0  6G 5G 6G10G17G24G30
  23500300.0304   15655864.37046  12151802.82846                  23500313.2294
        19.0004         19.2504
  22196589.9524   -5289088.03148  -4079981.62947                  22196599.0504
        28.7504         28.7504
  22473316.2334    5097146.70848   3992858.19447                  22473326.7964
        28.0004         27.7504
  23472167.9764   -7693314.74747  -5898301.22046                  23472179.9794
        21.5004         22.5004
  24726742.9994   17343436.09446  13437070.79646                  24726758.3314
        14.2504         12.2504
  22031981.2574    4128302.14448   3244209.26647                  22031990.4254
        31.7504         31.0004
 00  5  9 20 20 45.0030000  0  6G 5G 6G10G17G24G30
  23512421.7414   15719564.39346  12201439.09746                  23512434.8584
        18.7504         19.0004
  22194935.0934   -5297784.79048  -4086758.32047                  22194944.0264
        28.7504         28.7504
  22481187.8194    5138512.74548   4025091.44047                  22481198.4174
        28.0004         27.7504
  23469856.8354   -7705459.90247  -5907764.95246                  23469868.8274
        21.7504         22.2504
  24737133.3354   17398037.10946  13479616.97246                  24737149.0774
        14.2504         12.2504
  22039206.1944    4166268.28048   3273793.22447                  22039215.3744
        32.0004         31.0004
 00  5  9 20 21  0.0030000  0  6G 5G 6G10G17G24G30
  23524557.6474   15783337.88046  12251132.60346                  23524570.9404
        18.5004         19.0004
  22193292.2334   -5306416.99948  -4093484.70847                  22193301.2374
        28.7504         28.7504
  22489086.8744    5180021.80947   4057436.14047                  22489097.5074
        27.7504         27.5004
  23467558.5934   -7717536.18247  -5917175.00446                  23467570.5504
        22.0004         22.5004
  24747525.4444   17452645.72146  13522169.03146                  24747541.3974
        13.5004         12.2504
  22046459.1244    4204382.23348   3303492.36447                  22046468.2334
        32.0004         31.0004
 00  5  9 20 21 15.0030000  0  6G 5G 6G10G17G24G30
  23536706.7024   15847181.03846  12300880.39446                  23536719.8544
        18.5004         18.7504
  22191661.3904   -5314987.89148  -4100163.31947                  22191670.3234
        28.5004         28.7504
  22497012.3824    5221670.17448   4089889.37647                  22497022.8394
        28.2504         27.7504
  23465272.9134   -7729547.01647  -5926534.06546                  23465284.5774
        22.0004         22.7504
  24757917.6244   17507258.27646  13564724.17645                  24757934.1874
        13.2504         11.7504
  22053739.2724    4242640.17048   3333303.69547                  22053748.3824
        32.0004         31.0004
 00  5  9 20 21 30.0030000  0  6G 5G 6G10G17G24G30
  23548868.8044   15911093.35546  12350682.08046                  23548882.3314
        18.5004         19.0004
  22190041.9914   -5323497.43748  -4106794.12747                  22190050.8314
        28.5004         29.0004
  22504964.1474    5263457.35848   4122450.79347                  22504974.6164
        28.0004         27.5004
  23462999.8044   -7741492.67947  -5935842.33046                  23463011.6084
        22.2504         23.0004
  24768310.4604   17561874.53246  13607282.20446                  24768326.1084
        13.5004         12.0004
  22061046.8274    4281041.72548   3363226.94147                  22061055.9484
        32.2504         31.0004
 00  5  9 20 21 45.0040000  0  6G 5G 6G10G17G24G30
  23561044.3794   15975075.41846  12400538.11646                  23561057.5904
        18.5004         18.7504
  22188433.7854   -5331949.29748  -4113379.98247                  22188442.7194
        28.7504         28.7504
  22512942.2464    5305382.48748   4155119.68847                  22512952.7034
        28.0004         27.5004
  23460738.1054   -7753377.28247  -5945103.02646                  23460749.8524
        22.0004         22.7504
  24778704.5354   17616494.79546  13649843.38046                  24778719.6684
        14.0004         12.2504
  22068381.6914    4319585.95448   3393261.35747                  22068390.7894
        32.0004         31.0004
 00  5  9 20 22  0.0040000  0  6G 5G 6G10G17G24G30
  23573233.1764   16039127.39346  12450448.62346                  23573246.4224
        18.5004         18.7504
  22186838.4654   -5340333.18248  -4119912.87847                  22186847.2584
        29.0004         29.0004
  22520947.3324    5347448.76547   4187898.57047                  22520957.8364
        27.7504         27.5004
  23458490.2544   -7765190.24747  -5954307.89646                  23458502.1054
        22.5004         23.0004
  24789099.6684   17671120.61146  13692408.84046                  24789114.9534
        13.5004         12.2504
  22075744.2934    4358276.47848   3423409.76747                  22075753.4264
        32.0004         31.0004
 00  5  9 20 22 15.0040000  0  6G 5G 6G10G17G24G30
  23585434.5434   16103246.34646  12500411.31746                  23585447.8014
        18.5004         18.7504
  22185254.5354   -5348656.32948  -4126398.44047                  22185263.5164
        29.0004         28.7504
  22528978.1844    5389651.90647   4220784.10047                  22528988.8164
        27.7504         27.7504
  23456254.4104   -7776939.22347  -5963462.90946                  23456266.1214
        22.2504         23.0004
  24799494.9654   17725748.54446  13734975.97646                  24799510.1214
        13.5004         12.0004
  22083133.8014    4397108.91548   3453668.76547                  22083143.0164
        32.0004         31.0004
 00  5  9 20 22 30.0040000  0  6G 5G 6G10G17G24G30
  23597649.5124   16167435.96646  12550429.07846                  23597662.8284
        18.0004         18.5004
  22183683.1294   -5356914.48548  -4132833.36247                  22183692.1094
        29.0004         28.7504
  22537035.9884    5431995.61047   4253779.16247                  22537046.4924
        27.7504         27.2504
  23454031.7154   -7788620.22747  -5972564.95446                  23454043.6254
        22.0004         22.7504
  24809891.4804   17780382.88346  13777548.07846                  24809907.1294
        14.0004         12.2504
  22090551.2934    4436087.02648   3484041.26547                  22090560.4144
        32.0004         31.0004
 00  5  9 20 22 45.0040000  0  6G 5G 6G10G17G24G30
  23609876.1134   16231686.73946  12600494.49246                  23609889.1024
        18.2504         18.2504
  22182122.1914   -5365116.56648  -4139224.59447                  22182131.1374
        29.2504         29.0004
  22545118.6524    5474470.43747   4286876.39447                  22545129.1334
        27.7504         27.5004
  23451819.8714   -7800242.41547  -5981621.16546                  23451831.8284
        22.0004         23.0004
  24820287.4804   17835014.13146  13820117.78846                  24820302.4844
        13.7504         12.2504
  22097994.6994    4475201.41148   3514519.95947                  22098004.0664
        32.0004         31.0004
 00  5  9 20 23  0.0040000  0  6G 5G 6G10G17G24G30
  23622115.7304   16296005.74746  12650613.07446                  23622129.1414
        18.0004         18.5004
  22180573.5194   -5373254.94148  -4145566.18147                  22180582.6414
        29.2504         29.0004
  22553227.8094    5517083.63947   4320081.45347                  22553238.5354
        27.7504         27.2504
  23449620.8874   -7811798.37147  -5990625.77446                  23449633.0434
        22.2504         23.0004
  24830684.7694   17889649.65846  13862690.84046                  24830700.7464
        13.5004         12.2504
  22105464.9654    4514459.26148   3545110.43947                  22105474.1094
        31.7504         31.0004
 00  5  9 20 23 15.0040000  0  6G 5G 6G10G17G24G30
  23634368.0044   16360391.16446  12700783.40346                  23634381.5314
        18.0004         18.7504
  22179036.7694   -5381330.88448  -4151859.11847                  22179045.7034
        29.2504         29.0004
  22561362.8484    5559833.47447   4353392.97347                  22561373.6914
        27.2504         27.5004
  23447434.2624   -7823289.56947  -5999579.91446                  23447446.1724
        22.5004         23.2504
  24841082.2304   17944288.02946  13905266.09845                  24841097.3754
        13.0004         11.7504
  22112962.6054    4553858.94648   3575811.44747                  22112971.7854
        32.0004         31.0004
 00  5  9 20 23 30.0040000  0  6G 5G 6G10G17G24G30
  23646633.5744   16424847.60346  12751009.07646                  23646647.2894
        17.5004         18.2504
  22177512.8554   -5389339.18048  -4158099.34347                  22177521.9534
        29.2504         29.2504
  22569524.5984    5602724.64447   4386814.63447                  22569535.2424
        27.7504         27.0004
  23445260.6844   -7834711.06647  -6008479.74046                  23445272.5704
        22.2504         23.0004
  24851480.9024   17998934.02946  13947847.31646                  24851496.2694
        12.7504         12.0004
  22120488.0514    4593405.22848   3606626.68147                  22120497.3714
        32.2504         31.0004
 00  5  9 20 23 45.0040000  0  6G 5G 6G10G17G24G30
  23658911.9104   16489369.55846  12801285.79646                  23658925.2154
        17.5004         18.0004
  22176000.7624   -5397284.95548  -4164290.85547                  22176009.6254
        29.2504         29.2504
  22577712.6134    5645751.62547   4420342.11047                  22577723.1414
        27.5004         27.0004
  23443099.2854   -7846068.22847  -6017329.44546                  23443111.2074
        23.0004         23.2504
  24861879.9654   18053582.35546  13990430.32746                  24861895.7194
        12.7504         12.2504
  22128040.3554    4633092.42248   3637551.71747                  22128049.6524
        32.0004         31.0004
 00  5  9 20 24  0.0040000  0  6G 5G 6G10G17G24G30
  23671202.5434   16553954.83346  12851611.85746                  23671215.9184
        18.0004         18.2504
  22174500.2234   -5405169.87948  -4170434.94747                  22174509.1334
        29.5004         29.0004
  22585925.8324    5688912.17148   4453973.66947                  22585936.4414
        28.0004         27.0004
  23440950.1444   -7857362.83847  -6026130.40246                  23440961.8324
        22.5004         23.2504
  24872279.4884   18108230.97846  14033013.58145                  24872294.8204
        12.7504         11.2504
  22135619.0984    4672918.81448   3668585.21847                  22135628.2194
        32.2504         31.0004
 00  5  9 20 24 15.0040000  0  6G 5G 6G10G17G24G30
  23683505.1134   16618606.40146  12901989.57646                  23683518.6054
        18.0004         18.0004
  22173012.3794   -5412990.34348  -4176528.81147                  22173021.4414
        29.7504         29.2504
  22594165.0904    5732209.38548   4487711.72447                  22594175.5474
        28.0004         27.0004
  23438813.2384   -7868591.64447  -6034880.08546                  23438824.6914
        22.5004         23.0004
  24882679.7934   18162883.22846  14075599.66245                  24882696.6254
        12.2504         11.5004
  22143224.7774    4712887.34648   3699729.48147                  22143233.9104
        32.2504         31.0004
 00  5  9 20 24 30.0040000  0  6G 5G 6G10G17G24G30
  23695821.1294   16683327.26646  12952421.28646                  23695834.4104
        17.7504         18.2504
  22171536.8404   -5420742.87848  -4182569.74247                  22171545.7034
        30.0004         29.2504
  22602430.7464    5775646.19247   4521558.54547                  22602441.3324
        27.7504         27.0004
  23436689.7464   -7879751.40347  -6043575.96646                  23436701.6684
        22.7504         23.0004
  24893080.8404   18217542.16546  14118190.94445                  24893096.1724
        12.0004         11.5004
  22150858.2304    4753000.98048   3730986.80347                  22150867.3284
        32.0004         31.0004
 00  5  9 20 24 45.0040000  0  6G 5G 6G10G17G24G30
  23708149.2694   16748110.80846  13002901.84046                  23708163.1024
        17.5004         18.2504
  22170073.4184   -5428433.45048  -4188562.39447                  22170082.3284
        30.0004         29.5004
  22610721.8484    5819216.21147   4555509.16947                  22610732.6564
        27.7504         27.0004
  23434577.7774   -7890848.32747  -6052222.87546                  23434589.6764
        22.2504         23.0004
  24903482.3164   18272201.69946  14160782.68646                  24903498.4574
        12.2504         12.0004
  22158517.9414    4793253.36848   3762352.25147                  22158527.1214
        32.2504         30.7504
 00  5  9 20 25  0.0040000  0  6G 5G 6G10G17G24G30
  23720489.9494   16812961.42246  13053434.65646                  23720503.4304
        17.7504         18.0004
  22168622.7624   -5436057.11048  -4194502.90847                  22168631.5904
        30.0004         29.2504
  22619039.3094    5862923.88347   4589567.05747                  22619049.9884
        27.5004         27.0004
  23432479.1374   -7901877.61247  -6060817.09046                  23432491.0824
        22.5004         23.0004
  24913885.0194   18326866.32346  14203378.38245                  24913900.9964
        12.2504         11.2504
  22166205.2304    4833649.14448   3793829.42747                  22166214.4694
        32.0004         30.7504
 00  5  9 20 25 15.0040000  0  6G 5G 6G10G17G24G30
  23732842.7854   16877875.72546  13104017.10346                  23732856.9224
        17.5004         18.0004
  22167184.2384   -5443616.69048  -4200393.48647                  22167193.1954
        30.0004         29.5004
  22627382.2384    5906765.83247   4623729.57647                  22627392.8484
        27.7504         27.2504
  23430392.5124   -7912842.26947  -6069360.93846                  23430404.4344
        22.7504         23.2504
  24924287.2074   18381533.24445  14245975.90545                  24924304.0624
        11.0004         11.0004
  22173918.9264    4874184.96448   3825415.73247                  22173928.3164
        32.0004         30.7504
 00  5  9 20 25 30.0040000  0  7G26G 5G 6G10G17G24G30
  25545513.9884     -19480.59654
         7.2504
  23745207.1684   16942850.76146  13154646.86246                  23745221.5394
        17.0004         17.7504
  22165757.5194   -5451114.60148  -4206236.01147                  22165766.3124
        30.0004         29.5004
  22635750.0664    5950739.21848   4657994.51447                  22635760.7114
        28.0004         27.0004
  23428317.5274   -7923745.01747  -6077856.55046                  23428329.2734
        22.7504         23.0004
  24934689.8324   18436199.49745  14288572.88845                  24934705.7974
        11.0004         10.7504
  22181658.7464    4914858.01848   3857108.96847                  22181667.9734
        32.0004         30.5004
 00  5  9 20 25 45.0040000  0  7G26G 5G 6G10G17G24G30
  25540459.1524     -46038.51845
         7.7504
  23757584.1604   17007890.68146  13205327.18446                  23757598.0044
        17.0004         18.0004
  22164343.2384   -5458546.09948  -4212026.78547                  22164352.1484
        30.2504         29.5004
  22644143.7304    5994848.28048   4692365.17247                  22644154.1414
        28.2504         26.7504
  23426255.7074   -7934581.41747  -6086300.46846                  23426267.7814
        22.7504         23.2504
  24945093.1444   18490869.52045  14331172.80345                  24945108.6174
        11.7504         11.0004
  22189425.5354    4955672.48948   3888912.40147                  22189434.8324
        32.0004         30.7504
 00  5  9 20 26  0.0040000  0  7G26G 5G 6G10G17G24G30
  25535408.8484     -72587.07544
         7.2504
  23769973.2624   17072996.59246  13256058.93346                  23769987.3754
        17.0004         18.0004
  22162942.0044   -5465909.63148  -4217764.60347                  22162950.8324
        30.2504         29.5004
  22652563.3714    6039094.19548   4726842.46847                  22652573.7814
        28.0004         27.2504
  23424206.6994   -7945350.10647  -6094691.61546                  23424218.4224
        22.7504         23.5004
  24955498.3714   18545544.65246  14373776.72745                  24955514.2424
        12.0004         10.7504
  22197219.5274    4996629.58348   3920826.96847                  22197228.7774
        32.0004         30.5004
 00  5  9 20 26 15.0040000  0  7G26G 5G 6G10G17G24G30
  25530356.1444     -99135.38445
         7.7504
  23782373.6054   17138158.85446  13306834.58746                  23782387.8944
        17.2504         17.7504
  22161552.0744   -5473214.26748  -4223456.52147                  22161561.0904
        30.2504         29.5004
  22661007.3944    6083467.41148   4761418.96147                  22661017.8874
        28.2504         27.0004
  23422168.1684   -7956060.38147  -6103037.25546                  23422179.8674
        23.0004         23.2504
  24965901.3714   18600215.39345  14416377.22845                  24965917.4884
        11.0004         11.2504
  22205038.6994    5037719.75748   3952845.23347                  22205047.8324
        32.0004         30.5004
 00  5  9 20 26 30.0040000  0  7G26G 5G 6G10G17G24G30
  25525305.0274    -125677.60645    -17923.35155                  25525325.6844
         8.0004          8.0004
  23794785.1214   17203382.38946  13357657.98946                  23794799.1764
        17.0004         17.5004
  22160174.1524   -5480454.57848  -4229098.32647                  22160183.0624
        30.2504         29.7504
  22669476.4804    6127972.72347   4796098.38847                  22669487.0194
        27.7504         27.0004
  23420142.2624   -7966707.02847  -6111333.30646                  23420153.9374
        23.2504         23.5004
  24976305.0354   18654887.13545  14458978.47745                  24976320.5554
        10.7504         10.2504
  22212884.3554    5078948.09148   3984971.15747                  22212893.5824
        31.7504         30.5004
 00  5  9 20 26 45.0040000  0  7G26G 5G 6G10G17G24G30
  25520253.6604    -152213.86344    -38600.79345                  25520275.3714
         7.2504          8.2504
  23807208.2464   17268666.33646  13408528.45546                  23807222.2194
        16.7504         17.5004
  22158808.7234   -5487630.73448  -4234690.12947                  22158817.4694
        30.5004         29.7504
  22677970.6914    6172609.53148   4830880.27347                  22677981.2664
        28.5004         27.0004
  23418128.3014   -7977290.53047  -6119580.16246                  23418139.9884
        23.0004         23.2504
  24986709.1134   18709559.14145  14501579.94945                  24986724.6444
        11.2504         10.0004
  22220755.8634    5120313.92448   4017204.22347                  22220765.0904
        31.7504         30.7504
 00  5  9 20 27  0.0040000  0  7G26G 5G 6G10G17G24G30
  25515208.0824    -178742.48845    -59272.30145                  25515225.6294
         8.7504          7.7504
  23819643.2304   17334011.74946  13459446.83146                  23819657.0984
        17.0004         17.2504
  22157455.6684   -5494741.10448  -4240230.67547                  22157464.6024
        30.2504         29.7504
  22686490.1294    6217378.89748   4865765.45947                  22686500.7384
        28.2504         27.2504
  23416126.5124   -7987809.53047  -6127776.74946                  23416138.0704
        23.2504         23.5004
  24997113.5514   18764232.87245  14544182.78545                  24997129.5624
        11.2504         10.2504
  22228653.8944    5161818.25848   4049545.21547                  22228663.1914
        32.0004         30.7504
 00  5  9 20 27 15.0040000  0  7G26G 5G 6G10G17G24G30
  25510160.0984    -205258.05544    -79933.70345                  25510181.7974
         7.0004          8.2504
  23832090.5434   17399423.12446  13510416.60246                  23832104.2814
        17.2504         17.2504
  22156116.0664   -5501780.68748  -4245716.06147                  22156124.9534
        30.5004         30.0004
  22695035.4494    6262285.36748   4900757.46947                  22695046.0944
        28.2504         26.7504
  23414138.1844   -7998259.09647  -6135919.24146                  23414149.6954
        23.2504         23.7504
  25007518.8094   18818912.90145  14586790.50745                  25007534.0474
        11.0004         10.0004
  22236579.1994    5203465.85948   4081997.84547                  22236588.6134
        32.0004         30.5004
 00  5  9 20 27 30.0040000  0  7G26G 5G 6G10G17G24G30
  25505116.7544    -231762.65045   -100586.40545                  25505135.3094
         8.5004          7.7504
  23844550.4104   17464897.76746  13561435.65846                  23844564.2894
        17.0004         17.2504
  22154789.4574   -5508751.69348  -4251148.01347                  22154798.2734
        30.7504         30.0004
  22703606.7464    6307326.30948   4935854.27347                  22703617.4734
        28.0004         26.7504
  23412162.4654   -8008641.66547  -6144009.52546                  23412173.9534
        23.0004         23.5004
  25017924.7464   18873596.93046  14629401.33145                  25017940.9344
        12.0004         11.0004
  22244531.1684    5245253.93248   4114559.93847                  22244540.4654
        32.0004         30.5004
 00  5  9 20 27 45.0040000  0  7G26G 5G 6G10G17G24G30
  25500075.3164    -258261.65745   -121234.88345                  25500097.0044
         8.2504          8.7504
  23857020.6294   17530429.68946  13612499.36646                  23857034.3674
        16.7504         17.2504
  22153474.9494   -5515659.56148  -4256530.76547                  22153483.6134
        30.7504         30.0004
  22712201.9494    6352495.70748   4971051.16747                  22712212.5824
        28.2504         27.0004
  23410198.3324   -8018962.99247  -6152052.08946                  23410209.7154
        23.2504         23.5004
  25028330.7774   18928279.16846  14672010.79245                  25028347.5624
        12.2504         11.0004
  22252508.8094    5287176.59148   4147226.89847                  22252518.2694
        31.7504         30.7504
 00  5  9 20 28  0.0040000  0  7G26G 5G 6G10G17G24G30
  25495033.5664    -284748.13345   -141873.54845                  25495052.4374
         7.7504          8.0004
  23869503.0434   17596025.04646  13663612.49646                  23869517.2974
        17.0004         17.2504
  22152173.4574   -5522497.61548  -4261859.11247                  22152182.2974
        30.5004         30.0004
  22720823.2464    6397799.77848   5006352.99947                  22720834.0084
        28.0004         26.7504
  23408247.0904   -8029216.63747  -6160041.91546                  23408258.5554
        23.5004         23.5004
  25038736.9414   18982966.11646  14714623.91345                  25038753.2584
        12.7504         10.7504
  22260513.4104    5329240.13848   4180003.64247                  22260522.8834
        32.0004         30.5004
 00  5  9 20 28 15.0040000  0  7G26G 5G 6G10G17G24G30
  25489997.2544    -311222.03545   -162502.38945                  25490016.8984
         8.7504          8.5004
  23881997.5744   17661683.14746  13714774.50546                  23882011.5004
        16.7504         17.2504
  22150885.7074   -5529265.92548  -4267133.11747                  22150894.5474
        30.5004         30.0004
  22729469.8164    6443237.93348   5041759.31447                  22729480.4614
        28.2504         27.2504
  23406308.7304   -8039402.93647  -6167979.26746                  23406320.2894
        23.7504         23.7504
  25049144.9574   19037657.25246  14757240.27745                  25049160.8634
        13.0004         11.2504
  22268544.6444    5371444.04448   4212889.75147                  22268554.0944
        32.0004         30.5004
 00  5  9 20 28 30.0040000  0  7G26G 5G 6G10G17G24G30
  25484960.3404    -337690.09945   -183126.74445                  25484981.5824
         7.5004          8.7504
  23894502.4964   17727396.44946  13765979.53646                  23894516.4454
        17.0004         17.2504
  22149609.7694   -5535971.49248  -4272358.23647                  22149618.5624
        30.7504         30.2504
  22738140.5274    6488802.66048   5077264.25847                  22738151.0434
        28.2504         27.0004
  23404381.8094   -8049529.04147  -6175869.71046                  23404393.1914
        23.7504         23.7504
  25059551.1844   19092345.32546  14799854.28245                  25059566.5624
        12.5004         10.7504
  22276601.1134    5413780.89048   4245879.45647                  22276610.4924
        32.0004         30.7504
 00  5  9 20 28 45.0040000  0  7G26G 5G 6G10G17G24G30
  25479924.5514    -364148.38445   -203743.40945                  25479944.8054
         8.7504          8.2504
  23907018.5124   17793168.13346  13817230.06446                  23907032.7424
        17.0004         17.0004
  22148346.4804   -5542610.56448  -4277531.53747                  22148355.4374
        30.7504         30.2504
  22746835.8244    6534497.24848   5112870.38847                  22746846.4344
        28.2504         27.0004
  23402466.9804   -8059591.45747  -6183710.53146                  23402478.7384
        23.7504         23.5004
  25069958.5434   19147033.86146  14842468.65045                  25069974.8834
        12.5004         10.7504
  22284683.5904    5456254.01248   4278975.34647                  22284693.2384
        31.7504         30.5004
 00  5  9 20 29  0.0040000  0  7G26G 5G 6G10G17G24G30
  25474892.3324    -390593.47344   -224349.84945                  25474915.3914
         7.2504          7.7504
  23919546.4184   17859001.10846  13868528.34346                  23919561.0704
        17.0004         17.0004
  22147096.3714   -5549179.83448  -4282650.44547                  22147105.2234
        30.7504         30.0004
  22755556.5824    6580324.47348   5148579.86847                  22755567.2854
        28.2504         27.0004
  23400564.7774   -8069587.13747  -6191499.35146                  23400576.3944
        23.5004         23.7504
  25080365.9964   19201725.91946  14885085.73045                  25080383.2154
        12.5004         10.5004
  22292792.1914    5498866.16648   4312179.56747                  22292801.6644
        31.5004         30.5004
 00  5  9 20 29 15.0040000  0  7G26G 5G 6G10G17G24G30
  25469861.7304    -417026.05845   -244946.54045                  25469881.4224
         8.7504          7.7504
  23932085.5124   17924893.63346  13919873.02446                  23932099.9534
        16.7504         17.0004
  22145859.2624   -5555680.25448  -4287715.70447                  22145867.9844
        30.7504         30.0004
  22764302.2464    6626282.75648   5184391.47747                  22764312.6914
        28.2504         26.7504
  23398674.9264   -8079517.34847  -6199237.15646                  23398686.3794
        23.7504         24.0004
  25090773.8324   19256420.06745  14927704.46745                  25090789.6214
        11.7504         10.0004
  22300927.2694    5541615.95048   4345491.03447                  22300936.8594
        31.2504         30.5004
 00  5  9 20 29 30.0040000  0  7G26G 5G 6G10G17G24G30
  25464834.2624    -443450.74545   -265537.00945                  25464854.5984
         8.2504          8.0004
  23944634.8944   17990840.47746  13971260.03146                  23944649.5124
        16.7504         17.0004
  22144634.4104   -5562116.49448  -4292730.95247                  22144643.2274
        30.5004         30.0004
  22773071.7544    6672366.97648   5220301.22247                  22773082.4804
        28.2504         26.7504
  23396796.9964   -8089386.93047  -6206927.71346                  23396808.6724
        23.7504         23.7504
  25101181.6214   19311111.52446  14970321.08745                  25101198.9454
        13.0004         10.5004
  22309087.6214    5584498.14748   4378905.68247                  22309097.1174
        31.5004         30.5004
 00  5  9 20 29 45.0040000  0  7G26G 5G 6G10G17G24G30
  25459808.1444    -469860.75545   -286116.10745                  25459828.4454
         7.7504          8.0004
  23957195.3634   18056847.70946  14022694.10046                  23957209.4184
        17.0004         17.0004
  22143423.3164   -5568482.02848  -4297691.10647                  22143432.1214
        30.5004         30.2504
  22781866.4654    6718583.21248   5256313.82847                  22781877.2504
        28.0004         26.7504
  23394931.5354   -8099189.56847  -6214566.11346                  23394943.0474
        23.7504         23.7504
  25111589.9344   19365806.41346  15012940.40145                  25111605.5594
        12.7504         11.0004
  22317274.3324    5627518.93948   4412428.32447                  22317283.9804
        31.2504         30.7504
 00  5  9 20 30  0.0040000  0  7G26G 5G 6G10G17G24G30
  25454784.6214    -496256.73745   -306684.23745                  25454806.0984
         8.2504          8.0004
  23969767.8944   18122913.96646  14074174.15546                  23969782.1134
        16.7504         16.7504
  22142225.3014   -5574777.60548  -4302596.74947                  22142234.1524
        30.7504         30.2504
  22790686.0434    6764930.16248   5292428.29247                  22790696.7234
        28.0004         27.0004
  23393078.6844   -8108926.32047  -6222153.17146                  23393089.9844
        23.7504         24.0004
  25121998.5124   19420503.74746  15055561.62445                  25122014.1374
        14.2504         11.0004
  22325486.9654    5670677.11848   4446058.02047                  22325496.5084
        31.5004         30.5004
 00  5  9 20 30 15.0040000  0  7G26G 5G 6G10G17G24G30
  25449763.1294    -522642.93944   -327244.77745                  25449782.3634
         6.5004          8.0004
  23982349.9104   18189034.24346  14125696.29846                  23982364.6444
        16.7504         16.7504
  22141039.6294   -5581007.68748  -4307451.35447                  22141048.6334
        30.7504         30.2504
  22799529.5514    6811402.93848   5328640.80147                  22799540.1604
        28.0004         26.7504
  23391237.4494   -8118601.94947  -6229692.59646                  23391248.9964
        24.2504         23.7504
  25132407.0194   19475198.80946  15098181.08345                  25132422.5744
        14.5004         11.2504
  22333725.0274    5713967.74348   4479790.92347                  22333734.5704
        31.5004         30.7504
 00  5  9 20 30 30.0040000  0  8G26G 5G 6G23G10G17G24G30
  25444744.8874    -549015.68345   -347794.82145                  25444765.5664
         8.7504          9.2504
  23994943.5044   18255211.42946  14177262.80346                  23994958.1444
        16.7504         17.2504
  22139867.0984   -5587168.78448  -4312252.21147                  22139875.9024
        30.7504         30.2504
  25710912.1994     -24331.29355
         7.5004
  22808397.4184    6858004.49647   5364953.65847                  22808408.2974
        27.7504         26.7504
  23389408.4654   -8128213.15247  -6237181.83346                  23389420.0594
        23.7504         24.0004
  25142814.7074   19529894.72446  15140801.19345                  25142829.4414
        13.7504         11.5004
  22341988.7694    5757393.75948   4513629.32247                  22341998.5474
        31.2504         30.5004
 00  5  9 20 30 45.0040000  0  8G26G 5G 6G23G10G17G24G30
  25439730.1914    -575370.64545   -368330.98245                  25439750.6684
         7.7504          8.5004
  24007548.1134   18321449.24546  14228876.52746                  24007562.5664
        16.5004         16.7504
  22138708.8094   -5593256.64248  -4316995.99247                  22138717.5434
        30.5004         30.0004
  25703973.0124     -60799.50945
         7.7504
  22817290.8484    6904738.50848   5401369.72947                  22817301.7504
        28.0004         26.7504
  23387592.6294   -8137755.85647  -6244617.68146                  23387604.0944
        23.7504         24.2504
  25153224.6214   19584595.49146  15183425.10245                  25153240.5624
        14.7504         11.5004
  22350278.9024    5800958.92648   4547576.15447                  22350288.5744
        31.7504         30.5004
 00  5  9 20 31  0.0040000  0  8G26G 5G 6G23G10G17G24G30
  25434716.3164    -601707.76544   -388853.31845                  25434736.4304
         7.2504          8.2504
  24020164.3014   18387746.83446  14280536.84846                  24020179.0594
        16.5004         16.5004
  22137564.3094   -5599271.57848  -4321682.95747                  22137573.1024
        30.5004         30.2504
  25697039.6684     -97232.05244
         7.2504
  22826209.0594    6951604.18848   5437888.39047                  22826219.9844
        28.0004         26.5004
  23385789.6054   -8147230.69247  -6252000.65246                  23385801.1994
        23.7504         24.0004
  25163634.5824   19639300.47546  15226052.26245                  25163650.3484
        13.0004         11.2504
  22358595.4654    5844662.43948   4581630.78247                  22358605.1484
        31.2504         30.7504
 00  5  9 20 31 15.0040000  0  8G26G 5G 6G23G10G17G24G30
  25429709.4804    -628027.50445   -409361.99545                  25429730.3484
         8.7504          8.2504
  24032791.3794   18454103.18346  14332242.94046                  24032806.0904
        16.2504         16.5004
  22136433.2074   -5605214.08548  -4326313.48247                  22136442.0004
        30.7504         30.0004
  25690112.6374    -133629.45844
         7.2504
  22835152.1374    6998600.48347   5474508.83747                  22835163.0274
        27.7504         26.5004
  23383999.2544   -8156638.35247  -6259331.27646                  23384011.0004
        23.7504         23.7504
  25174044.5824   19694008.94646  15268682.16245                  25174060.3484
        13.2504         11.2504
  22366938.0594    5888503.50548   4615792.59847                  22366947.5904
        31.5004         30.5004
 00  5  9 20 31 30.0040000  0  8G26G 5G 6G23G10G17G24G30
  25424701.1054    -654336.88844   -429862.69545                  25424722.5354
         6.5004          8.2504
  24045428.4574   18520510.41246  14383988.69146                  24045442.7814
        16.2504         16.2504
  22135314.9344   -5611091.43648  -4330893.22847                  22135323.7154
        30.5004         30.2504
  25683192.0354    -169998.82444
         7.2504
  22844118.6294    7045719.59947   5511224.98847                  22844129.7074
        27.2504         26.5004
  23382220.3554   -8165986.36947  -6266615.41946                  23382232.0904
        23.7504         24.2504
  25184455.6524   19748713.39046  15311308.91645                  25184471.9694
        13.0004         11.2504
  22375305.6764    5932474.25848   4650055.46647                  22375315.2894
        31.5004         30.5004
 00  5  9 20 31 45.0040000  0  8G26G 5G 6G23G10G17G24G30
  25419698.5124    -680632.02045   -450352.23245                  25419718.1914
         8.2504          8.5004
  24058075.9414   18586971.60746  14435776.48746                  24058090.5704
        16.2504         16.7504
  22134209.6994   -5616899.97848  -4335419.36547                  22134218.5394
        30.5004         30.0004
  25676277.0354    -206336.46444    -18872.54155                  25676302.3094
         7.0004          7.7504
  22853109.1054    7092964.71847   5548039.31247                  22853120.0194
        27.7504         26.2504
  23380453.7464   -8175271.33947  -6273850.43746                  23380465.1764
        24.5004         24.2504
  25194864.6604   19803417.10346  15353935.08445                  25194879.8164
        12.5004         11.7504
  22383698.4264    5976577.96348   4684421.93447                  22383708.1334
        31.2504         30.7504
 00  5  9 20 32  0.0040000  0  8G26G 5G 6G23G10G17G24G30
  25414697.2854    -706907.09844   -470826.19145                  25414717.5624
         6.7504          8.0004
  24070734.3014   18653492.05846  14487610.44846                  24070748.9654
        16.2504         16.2504
  22133118.4574   -5622633.84848  -4339887.31247                  22133127.2854
        30.7504         30.2504
  25669369.3164    -242636.55644    -47158.12245                  25669391.1334
         7.2504          8.0004
  22862124.5274    7140341.15747   5584955.97147                  22862135.4774
        27.2504         26.5004
  23378699.7384   -8184487.74147  -6281032.02646                  23378710.9804
        24.5004         24.2504
  25205275.5274   19858125.62646  15396565.01945                  25205291.7034
        12.2504         11.0004
  22392117.2544    6020819.84048   4718896.06647                  22392127.0084
        31.5004         30.5004
 00  5  9 20 32 15.0040000  0  8G26G 5G 6G23G10G17G24G30
  25409700.3404    -733167.34945   -491288.54945                  25409722.2854
         7.5004          8.7504
  24083402.8094   18720065.61046  14539485.79946                  24083417.6024
        16.0004         16.2504
  22132040.5354   -5628298.69348  -4344301.48147                  22132049.3054
        30.5004         30.0004
  25662467.0984    -278904.63844    -75418.78445                  25662489.0904
         7.2504          8.7504
  22871163.7774    7187842.74147   5621970.14047                  22871174.5984
        27.2504         26.5004
  23376957.6444   -8193641.35647  -6288164.69246                  23376969.1684
        24.2504         24.2504
  25215685.9344   19912833.01545  15439194.07045                  25215703.2694
        11.7504         11.0004
  22400561.5354    6065193.87248   4753473.17847                  22400571.3124
        31.2504         30.5004
 00  5  9 20 32 30.0040000  0  8G26G 5G 6G23G10G17G24G30
  25404706.1764    -759414.78345   -511740.92745                  25404724.7194
         7.7504          8.5004
  24096081.2464   18786689.63946  14591400.47446                  24096095.9454
        15.7504         16.0004
  22130975.1844   -5633896.54848  -4348663.44147                  22130984.0354
        30.2504         30.0004
  25655572.0194    -315142.66144   -103655.97845                  25655595.2304
         7.0004          7.7504
  22880226.4104    7235466.95547   5659079.87447                  22880237.3014
        27.2504         26.5004
  23375227.4344   -8202734.49647  -6295250.23446                  23375238.9804
        24.5004         24.5004
  25226095.9884   19967537.13945  15481820.56245                  25226112.6564
        11.2504         10.5004
  22409030.0984    6109697.53448   4788151.29947                  22409039.8164
        31.7504         30.5004
 00  5  9 20 32 45.0040000  0  8G26G 5G 6G23G10G17G24G30
  25399713.3244    -785642.28744   -532177.85645                  25399732.1254
         6.7504          7.5004
  24108770.5664   18853370.47246  14643359.41346                  24108785.2774
        16.0004         15.7504
  22129923.8634   -5639420.53448  -4352967.84347                  22129932.8674
        30.5004         30.2504
  25648682.4344    -351343.62744   -131864.31545                  25648705.7384
         7.2504          7.5004
  22889313.4964    7283220.10247   5696290.07247                  22889324.6094
        27.0004         26.0004
  23373509.9024   -8211760.52347  -6302283.47446                  23373521.2274
        24.5004         24.5004
  25236506.0434   20022244.43145  15524449.51745                  25236522.3834
        11.0004         10.2504
  22417524.9494    6154337.26648   4822935.45047                  22417534.6444
        31.5004         30.5004
 00  5  9 20 33  0.0040000  0  8G26G 5G 6G23G10G17G24G30
  25394727.4104    -811852.42745   -552601.14745                  25394745.8364
         8.5004          9.0004
  24121469.6054   18920104.77346  14695360.01246                  24121484.3284
        16.0004         16.5004
  22128886.2624   -5644873.38148  -4357216.81247                  22128895.1954
        30.2504         30.0004
  25641800.6294    -387510.26145   -160045.95345                  25641822.1414
         7.5004          8.5004
  22898424.5904    7331098.97847   5733598.23547                  22898435.6214
        27.2504         26.0004
  23371804.3714   -8220722.42947  -6309266.74646                  23371815.8124
        24.2504         24.5004
  25246917.1214   20076951.97245  15567078.67645                  25246933.7424
        11.2504         10.5004
  22426044.8404    6199109.81848   4857823.09747                  22426054.5004
        31.2504         30.5004
 00  5  9 20 33 15.0040000  0  8G26G 5G 6G23G10G17G24G30
  25389742.6844    -838046.95044   -573012.31145                  25389764.7464
         6.7504          8.0004
  24134178.2624   18986890.09246  14747400.37046                  24134193.0784
        16.0004         16.2504
  22127861.9734   -5650257.14648  -4361411.95347                  22127870.9064
        30.5004         30.2504
  25634924.0904    -423644.45745   -188202.26945                  25634945.4614
         8.0004          8.5004
  22907559.2304    7379100.98947   5771002.35547                  22907570.1804
        26.7504         26.0004
  23370110.8244   -8229622.48447  -6316201.83546                  23370122.3594
        24.2504         24.5004
  25257326.7694   20131657.33245  15609706.15845                  25257344.5394
        10.7504         10.5004
  22434589.7934    6244012.75648   4892812.33847                  22434599.6414
        31.2504         30.5004
 00  5  9 20 33 30.0040000  0  8G26G 5G 6G23G10G17G24G30
  25384762.3634    -864218.35245   -593405.46545                  25384782.0084
         7.7504          8.0004
  24146898.6684   19053733.12946  14799485.68946                  24146913.9414
        15.7504         16.0004
  22126851.8634   -5655564.55048  -4365547.58947                  22126860.8554
        30.2504         30.2504
  25628055.7774    -459738.93845   -216327.66545                  25628076.0904
         7.7504          8.2504
  22916718.4024    7427232.93547   5808507.71847                  22916729.5394
        27.0004         26.0004
  23368430.1914   -8238453.66447  -6323083.24746                  23368441.6214
        24.2504         24.5004
  25267738.4344   20186367.63445  15652337.45445                  25267754.3054
        11.2504         10.2504
  22443160.6604    6289052.86848   4927908.47147                  22443170.5084
        31.2504         30.5004
 00  5  9 20 33 45.0040000  0  8G26G 5G 6G23G10G17G24G30
  25379784.2934    -890376.65345   -613788.44445                  25379804.7934
         7.7504          8.0004
  24159627.3164   19120623.28046  14851607.73946                  24159642.5664
        15.7504         16.0004
  22125854.6134   -5660805.51948  -4369631.45747                  22125863.4304
        30.2504         30.0004
  25621191.5824    -495803.44844   -244429.69845                  25621212.2034
         7.2504          8.2504
  22925900.4574    7475484.38547   5846106.20647                  22925911.5944
        26.7504         26.0004
  23366760.7854   -8247226.10247  -6329918.88346                  23366772.3204
        24.7504         24.5004
  25278148.7074   20241072.71445  15694964.72945                  25278165.0234
        11.0004         10.0004
  22451755.6294    6334219.72348   4963103.36847                  22451765.4774
        31.2504         30.5004
 00  5  9 20 34  0.0040000  0  8G26G 5G 6G23G10G17G24G30
  25374809.6764    -916513.78044   -634154.90545                  25374829.1914
         7.2504          8.0004
  24172366.1524   19187567.64246  14903772.01746                  24172381.4264
        15.5004         16.0004
  22124871.3164   -5665972.42648  -4373657.61847                  22124880.1564
        30.2504         30.2504
  25614335.8484    -531830.36844   -272502.40845                  25614355.8674
         7.2504          8.5004
  22935106.4494    7523862.40747   5883803.31747                  22935117.6214
        26.7504         26.0004
  23365104.0984   -8255932.36947  -6336702.96746                  23365115.7034
        24.5004         24.7504
  25288558.6994   20295779.85045  15737593.57945                  25288576.3524
        10.7504         10.2504
  22460376.0904    6379520.42548   4998402.55647                  22460385.8674
        30.7504         30.5004
 00  5  9 20 34 15.0040000  0  8G26G 5G 6G23G10G17G24G30
  25369840.4494    -942628.01145   -654503.48545                  25369859.1214
         8.0004          8.0004
  24185115.9964   19254567.33746  14955979.41346                  24185131.5864
        15.2504         16.0004
  22123902.4654   -5671063.60148  -4377624.76347                  22123911.4104
        30.2504         30.2504
  25607487.3244    -567817.95744   -300544.49845                  25607510.6054
         6.7504          8.7504
  22944337.0354    7572368.12947   5921599.94147                  22944348.5124
        26.5004         26.0004
  23363460.3324   -8264571.07247  -6343434.40246                  23363471.8554
        24.0004         24.5004
  25298970.2304   20350490.44945  15780225.12645                  25298987.0624
        10.2504         10.0004
  22469022.2384    6424956.06148   5033806.89447                  22469032.1214
        31.2504         30.5004
 00  5  9 20 34 30.0040000  0  8G26G 5G 6G23G10G17G24G30
  25364873.2234    -968729.09244   -674841.87945                  25364892.2464
         7.2504          8.5004
  24197874.0984   19321611.79346  15008221.68746                  24197888.8794
        15.2504         15.7504
  22122946.2304   -5676089.03748  -4381540.68047                  22122955.1994
        30.2504         30.2504
  25600645.6214    -603776.14845   -328563.66945                  25600665.6174
         7.5004          8.5004
  22953589.4414    7620990.95847   5959487.81447                  22953600.7074
        26.5004         26.0004
  23361827.1764   -8273152.55547  -6350121.24846                  23361838.7694
        24.0004         24.7504
  25309379.5124   20405194.07945  15822851.24645                  25309395.8984
        10.5004          9.7504
  22477692.1844    6470516.30048   5069308.31747                  22477702.1484
        31.0004         30.5004
 00  5  9 20 34 45.0040000  0  8G26G 5G 6G23G10G17G24G30
  25359910.9184    -994809.20045   -695163.86545                  25359931.5394
         8.0004          8.7504
  24210642.3634   19388708.03946  15060504.31646                  24210657.8714
        15.5004         15.7504
  22122003.9184   -5681041.11648  -4385399.44447                  22122012.7694
        30.2504         30.2504
  25593809.0434    -639697.29244   -356553.98445                  25593828.1844
         7.2504          8.7504
  22962865.9804    7669738.12747   5997472.57347                  22962877.2694
        26.5004         26.0004
  23360206.3324   -8281669.39347  -6356757.72546                  23360217.9964
        24.2504         24.7504
  25319789.6444   20459898.19845  15865477.75045                  25319806.6644
         9.5004         10.2504
  22486386.9104    6516208.20748   5104912.33947                  22486396.8404
        30.7504         30.2504
 00  5  9 20 35  0.0040000  0  8G26G 5G 6G23G10G17G24G30
  25354951.4344   -1020870.40445   -715471.15045                  25354973.2504
         8.0004          7.7504
  24223420.0744   19455853.48946  15112825.28946                  24223435.5824
        15.5004         15.7504
  22121075.1134   -5685921.94448  -4389202.68347                  22121083.8594
        30.0004         30.0004
  25586981.2544    -675583.28145   -384516.93745                  25587000.9804
         8.0004          8.7504
  22972165.2234    7718606.88547   6035552.07847                  22972176.5354
        26.5004         26.0004
  23358597.4264   -8290123.95247  -6363345.67046                  23358609.1484
        24.0004         24.7504
  25330199.6914   20514600.38045  15908102.71945                  25330216.3484
         9.7504          9.5004
  22495106.6214    6562029.22148   5140616.96947                  22495116.5864
        31.0004         30.5004
 00  5  9 20 35 15.0040000  0  8G26G 5G 6G23G10G17G24G30
  25349997.1294   -1046904.95145   -735757.62645                  25350016.8324
         8.2504          8.0004
  24236207.9574   19523054.93246  15165189.88946                  24236223.1254
        15.0004         16.0004
  22120161.2854   -5690724.01448  -4392944.55747                  22120170.1484
        30.2504         30.2504
  25580160.0194    -711426.70745   -412446.65945                  25580182.7154
         8.0004          8.5004
  22981489.1604    7767604.16747   6073731.73147                  22981500.3444
        26.5004         25.7504
  23357001.9024   -8298508.98947  -6369879.44146                  23357013.2734
        24.5004         24.7504
  25340609.1444   20569307.85845  15950731.81745                  25340624.7814
         9.5004          9.7504
  22503851.7154    6607986.34848   5176427.65447                  22503861.6214
        31.0004         30.2504
 00  5  9 20 35 30.0040000  0  8G26G 5G 6G23G10G17G24G30
  25345046.7304   -1072914.65245   -756024.84945                  25345067.8914
         8.0004          8.5004
  24249006.3484   19590309.84146  15217596.15246                  24249021.6444
        14.7504         15.5004
  22119262.0354   -5695449.28648  -4396626.58247                  22119270.9574
        30.5004         30.0004
  25573346.8094    -747229.44245   -440344.72745                  25573365.6804
         7.7504          9.0004
  22990836.9264    7816727.61547   6112009.69847                  22990848.3914
        26.2504         25.7504
  23355419.2624   -8306826.68247  -6376360.73846                  23355430.7854
        24.2504         25.0004
  25351020.9964   20624018.40545  15993363.33645                  25351038.8594
         9.5004         10.0004
  22512622.6844    6654077.11048   5212342.47447                  22512632.6844
        30.7504         30.2504
 00  5  9 20 35 45.0040000  0  8G26G 5G 6G23G10G17G24G30
  25340101.3324   -1098905.71845   -776277.46245                  25340121.0944
         7.5004          8.7504
  24261813.9184   19657611.20846  15270038.61346                  24261829.0274
        14.7504         15.7504
  22118376.1844   -5700104.29148  -4400253.85947                  22118385.0124
        30.5004         30.0004
  25566539.3244    -782997.86545   -468216.03445                  25566560.4374
         8.0004          9.2504
  23000207.5984    7865970.19947   6150380.49046                  23000218.8284
        26.5004         25.5004
  23353847.6994   -8315083.77447  -6382794.81146                  23353859.2814
        24.2504         25.0004
  25361431.7304   20678725.31145  16035992.01545                  25361449.5004
         9.5004         10.0004
  22521417.6214    6700294.56348   5248356.01347                  22521427.5624
        30.7504         30.0004
 00  5  9 20 36  0.0040000  0  8G26G 5G 6G23G10G17G24G30
  25335158.9414   -1124878.65145   -796515.95845                  25335178.8094
         8.2504          8.7504
  24274629.3014   19724957.95246  15322516.43346                  24274644.5164
        14.7504         15.5004
  22117503.7074   -5704689.61648  -4403826.83447                  22117512.5474
        30.2504         30.0004
  25559739.8014    -818732.54945   -496061.03045                  25559761.6524
         8.2504          9.5004
  23009600.6214    7915330.72647   6188843.18946                  23009612.2034
        26.2504         25.5004
  23352287.8404   -8323281.16547  -6389182.36146                  23352299.5044
        24.2504         25.2504
  25371840.3324   20733427.65445  16078617.11645                  25371858.3594
         9.5004          9.7504
  22530236.5124    6746637.43448   5284467.28247                  22530246.5704
        30.5004         30.2504
 00  5  9 20 36 15.0040000  0  8G26G 5G 6G23G10G17G24G30
  25330219.1684   -1150833.87845   -816740.68045                  25330240.6094
         7.5004          9.7504
  24287453.4184   19792348.83346  15375028.64746                  24287469.3364
        15.0004         15.0004
  22116644.3244   -5709205.99848  -4407346.08947                  22116653.1994
        30.2504         30.0004
  25552946.1844    -854434.07845   -523880.23945                  25552966.2034
         8.7504          9.7504
  23019016.1844    7964807.98947   6227396.84946                  23019027.5194
        26.0004         25.5004
  23350739.0594   -8331419.81947  -6395524.14246                  23350750.7814
        23.7504         24.7504
  25382249.6134   20788124.36045  16121237.83645                  25382267.7114
        10.5004          9.5004
  22539079.0744    6793104.66348   5320675.44647                  22539089.0274
        30.5004         30.0004
 00  5  9 20 36 30.0040000  0  8G26G 5G 6G23G10G17G24G30
  25325284.7544   -1176768.25045   -836949.16345                  25325305.1374
         8.2504          9.0004
  24300286.6844   19859786.31646  15427577.16546                  24300302.4964
        14.5004         15.0004
  22115798.5044   -5713650.38648  -4410809.24447                  22115807.4614
        30.2504         30.0004
  25546159.1914    -890099.43645   -551671.25345                  25546179.1764
         8.2504          9.5004
  23028453.8324    8014404.55647   6266043.47746                  23028465.1564
        26.5004         25.5004
  23349202.0514   -8339496.85547  -6401817.91346                  23349213.7034
        24.0004         24.7504
  25392657.6054   20842818.38345  16163856.45845                  25392674.8364
        10.5004         10.2504
  22547945.6994    6839698.77948   5356982.49047                  22547955.7694
        30.5004         30.2504
 00  5  9 20 36 45.0040000  0  8G26G 5G 6G23G10G17G24G30
  25320353.7544   -1202678.26345   -857138.63445                  25320372.5434
         8.5004          8.7504
  24313129.1684   19927273.16846  15480164.15846                  24313144.2664
        14.7504         15.2504
  22114967.1134   -5718019.39748  -4414213.67047                  22114976.0234
        30.2504         30.0004
  25539379.2234    -925725.15545   -579431.34945                  25539399.7344
         8.7504          8.7504
  23037915.2234    8064123.27747   6304785.28946                  23037926.5124
        26.2504         25.2504
  23347677.1764   -8347509.22447  -6408061.29246                  23347688.6874
        23.7504         25.0004
  25403065.7624   20897512.73845  16206475.38345                  25403082.4774
        10.5004         10.0004
  22556836.6844    6886422.76548   5393390.72947                  22556846.8364
        30.2504         30.2504
 00  5  9 20 37  0.0040000  0  8G26G 5G 6G23G10G17G24G30
  25315427.5194   -1228564.26245   -877309.40945                  25315446.7194
         7.7504          9.0004
  24325980.5984   19994808.19246  15532788.68346                  24325996.3984
        15.0004         15.0004
  22114149.9494   -5722313.64948  -4417559.84147                  22114159.0004
        30.2504         30.0004
  25532607.7384    -961311.82745   -607161.07845                  25532627.6414
         8.7504          9.0004
  23047399.4964    8113962.98947   6343621.37546                  23047410.8794
        26.5004         25.5004
  23346164.6994   -8355457.86047  -6414255.00946                  23346176.3984
        24.0004         25.2504
  25413473.7544   20952206.38646  16249093.70645                  25413489.4614
        12.0004         10.2504
  22565752.5824    6933275.48948   5429899.28447                  22565762.8524
        30.0004         30.0004
 00  5  9 20 37 15.0040000  0  8G26G 5G 6G23G10G17G24G30
  25310506.4654   -1254425.17845   -897460.61245                  25310527.4964
         9.2504          8.7504
  24338841.6444   20062391.81146  15585451.08546                  24338856.6954
        14.7504         15.0004
  22113347.1054   -5726532.17548  -4420847.00647                  22113356.1334
        30.2504         30.0004
  25525842.6054    -996858.45445   -634859.55345                  25525862.2384
         8.5004          9.2504
  23056906.7384    8163924.05547   6382552.02446                  23056918.0624
        26.7504         25.0004
  23344664.3634   -8363342.06347  -6420398.52446                  23344675.9104
        24.5004         25.0004
  25423881.6134   21006900.08745  16291712.10645                  25423899.0554
        11.0004          9.7504
  22574693.1844    6980257.24548   5466508.37647                  22574703.3594
        30.5004         30.0004
